<?xml version="1.0" encoding="UTF-8" standalone="no" ?>
<gpx xmlns="http://www.topografix.com/GPX/1/1" xmlns:xsi="http://www.w3.org/2001/XMLSchema-instance" xsi:schemaLocation="http://www.topografix.com/GPX/1/1 http://www.topografix.com/GPX/1/1/gpx.xsd" version="1.1" creator="VisuGPX - https://www.visugpx.com">
  <metadata>
    <name>Vassieux en Vercors 23km</name>
    <desc><![CDATA[J4 Les Hauts Plateaux]]></desc>
  </metadata>
  <wpt lat="44.84843" lon="5.37159">
    <ele>1190.1</ele>
    <name><![CDATA[Les Chalets Natures]]></name>
    <type><![CDATA[hotel]]></type>
  </wpt>
  <wpt lat="44.85672" lon="5.52097">
    <ele>1843</ele>
    <cmt><![CDATA[passage empierré  très délicat à franchir]]></cmt>
    <type><![CDATA[danger]]></type>
  </wpt>
  <trk>
    <name><![CDATA[2024-09-18 17:08:47]]></name>
    <extensions>
      <line xmlns="http://www.topografix.com/GPX/gpx_style/0/2">
        <color>ff000d</color>
        <width>4</width>
      </line>
    </extensions>
    <trkseg>
      <trkpt lat="44.8428" lon="5.42318">
        <ele>1394.53</ele>
        <time>2024-09-18T08:40:24Z</time>
      </trkpt>
      <trkpt lat="44.84281" lon="5.42317">
        <ele>1395.01</ele>
        <time>2024-09-18T08:40:53Z</time>
      </trkpt>
      <trkpt lat="44.8428" lon="5.42314">
        <ele>1394.05</ele>
        <time>2024-09-18T08:41:23Z</time>
      </trkpt>
      <trkpt lat="44.84278" lon="5.42317">
        <ele>1394.05</ele>
        <time>2024-09-18T08:41:40Z</time>
      </trkpt>
      <trkpt lat="44.84276" lon="5.42317">
        <ele>1394.05</ele>
        <time>2024-09-18T08:42:02Z</time>
      </trkpt>
      <trkpt lat="44.84274" lon="5.4232">
        <ele>1395.49</ele>
        <time>2024-09-18T08:42:17Z</time>
      </trkpt>
      <trkpt lat="44.84277" lon="5.42316">
        <ele>1392.61</ele>
        <time>2024-09-18T08:42:30Z</time>
      </trkpt>
      <trkpt lat="44.84277" lon="5.42316">
        <ele>1390.68</ele>
        <time>2024-09-18T08:43:00Z</time>
      </trkpt>
      <trkpt lat="44.84278" lon="5.42315">
        <ele>1391.65</ele>
        <time>2024-09-18T08:43:25Z</time>
      </trkpt>
      <trkpt lat="44.84278" lon="5.42315">
        <ele>1391.65</ele>
        <time>2024-09-18T08:43:38Z</time>
      </trkpt>
      <trkpt lat="44.84272" lon="5.4231">
        <ele>1390.68</ele>
        <time>2024-09-18T08:43:49Z</time>
      </trkpt>
      <trkpt lat="44.84265" lon="5.42311">
        <ele>1391.17</ele>
        <time>2024-09-18T08:43:57Z</time>
      </trkpt>
      <trkpt lat="44.84259" lon="5.42313">
        <ele>1391.65</ele>
        <time>2024-09-18T08:44:02Z</time>
      </trkpt>
      <trkpt lat="44.8425" lon="5.42318">
        <ele>1394.05</ele>
        <time>2024-09-18T08:44:15Z</time>
      </trkpt>
      <trkpt lat="44.84239" lon="5.42345">
        <ele>1397.41</ele>
        <time>2024-09-18T08:44:36Z</time>
      </trkpt>
      <trkpt lat="44.84242" lon="5.42413">
        <ele>1397.41</ele>
        <time>2024-09-18T08:45:16Z</time>
      </trkpt>
      <trkpt lat="44.84244" lon="5.42418">
        <ele>1396.93</ele>
        <time>2024-09-18T08:45:31Z</time>
      </trkpt>
      <trkpt lat="44.84244" lon="5.42428">
        <ele>1397.41</ele>
        <time>2024-09-18T08:45:46Z</time>
      </trkpt>
      <trkpt lat="44.84244" lon="5.42432">
        <ele>1397.41</ele>
        <time>2024-09-18T08:45:49Z</time>
      </trkpt>
      <trkpt lat="44.84235" lon="5.4244">
        <ele>1397.41</ele>
        <time>2024-09-18T08:46:04Z</time>
      </trkpt>
      <trkpt lat="44.84235" lon="5.42435">
        <ele>1397.89</ele>
        <time>2024-09-18T08:46:24Z</time>
      </trkpt>
      <trkpt lat="44.84236" lon="5.42434">
        <ele>1397.41</ele>
        <time>2024-09-18T08:46:39Z</time>
      </trkpt>
      <trkpt lat="44.8424" lon="5.42431">
        <ele>1396.93</ele>
        <time>2024-09-18T08:46:56Z</time>
      </trkpt>
      <trkpt lat="44.8424" lon="5.42432">
        <ele>1396.45</ele>
        <time>2024-09-18T08:46:57Z</time>
      </trkpt>
      <trkpt lat="44.84243" lon="5.42462">
        <ele>1395.97</ele>
        <time>2024-09-18T08:47:15Z</time>
      </trkpt>
      <trkpt lat="44.84243" lon="5.42465">
        <ele>1396.45</ele>
        <time>2024-09-18T08:47:17Z</time>
      </trkpt>
      <trkpt lat="44.84246" lon="5.42496">
        <ele>1394.53</ele>
        <time>2024-09-18T08:47:34Z</time>
      </trkpt>
      <trkpt lat="44.84254" lon="5.42523">
        <ele>1395.49</ele>
        <time>2024-09-18T08:47:51Z</time>
      </trkpt>
      <trkpt lat="44.84259" lon="5.42545">
        <ele>1399.34</ele>
        <time>2024-09-18T08:48:06Z</time>
      </trkpt>
      <trkpt lat="44.84259" lon="5.42564">
        <ele>1410.87</ele>
        <time>2024-09-18T08:48:22Z</time>
      </trkpt>
      <trkpt lat="44.84257" lon="5.42564">
        <ele>1411.35</ele>
        <time>2024-09-18T08:48:24Z</time>
      </trkpt>
      <trkpt lat="44.84231" lon="5.4256">
        <ele>1413.76</ele>
        <time>2024-09-18T08:48:41Z</time>
      </trkpt>
      <trkpt lat="44.84213" lon="5.42562">
        <ele>1419.52</ele>
        <time>2024-09-18T08:48:57Z</time>
      </trkpt>
      <trkpt lat="44.84216" lon="5.42573">
        <ele>1421.93</ele>
        <time>2024-09-18T08:49:13Z</time>
      </trkpt>
      <trkpt lat="44.8421" lon="5.426">
        <ele>1424.33</ele>
        <time>2024-09-18T08:49:32Z</time>
      </trkpt>
      <trkpt lat="44.84198" lon="5.42624">
        <ele>1425.29</ele>
        <time>2024-09-18T08:49:49Z</time>
      </trkpt>
      <trkpt lat="44.8416" lon="5.42651">
        <ele>1433.46</ele>
        <time>2024-09-18T08:50:11Z</time>
      </trkpt>
      <trkpt lat="44.84151" lon="5.42656">
        <ele>1431.54</ele>
        <time>2024-09-18T08:50:19Z</time>
      </trkpt>
      <trkpt lat="44.84134" lon="5.42662">
        <ele>1426.73</ele>
        <time>2024-09-18T08:50:35Z</time>
      </trkpt>
      <trkpt lat="44.84117" lon="5.42666">
        <ele>1429.62</ele>
        <time>2024-09-18T08:50:44Z</time>
      </trkpt>
      <trkpt lat="44.84099" lon="5.42685">
        <ele>1430.58</ele>
        <time>2024-09-18T08:50:59Z</time>
      </trkpt>
      <trkpt lat="44.84088" lon="5.42701">
        <ele>1428.18</ele>
        <time>2024-09-18T08:51:14Z</time>
      </trkpt>
      <trkpt lat="44.84081" lon="5.42721">
        <ele>1428.18</ele>
        <time>2024-09-18T08:51:30Z</time>
      </trkpt>
      <trkpt lat="44.8406" lon="5.42741">
        <ele>1433.46</ele>
        <time>2024-09-18T08:51:47Z</time>
      </trkpt>
      <trkpt lat="44.8404" lon="5.42757">
        <ele>1432.98</ele>
        <time>2024-09-18T08:52:04Z</time>
      </trkpt>
      <trkpt lat="44.8402" lon="5.42774">
        <ele>1427.7</ele>
        <time>2024-09-18T08:52:20Z</time>
      </trkpt>
      <trkpt lat="44.8401" lon="5.42782">
        <ele>1427.7</ele>
        <time>2024-09-18T08:52:32Z</time>
      </trkpt>
      <trkpt lat="44.84003" lon="5.42795">
        <ele>1435.87</ele>
        <time>2024-09-18T08:52:41Z</time>
      </trkpt>
      <trkpt lat="44.83997" lon="5.42808">
        <ele>1455.57</ele>
        <time>2024-09-18T08:52:53Z</time>
      </trkpt>
      <trkpt lat="44.83984" lon="5.42813">
        <ele>1469.99</ele>
        <time>2024-09-18T08:53:09Z</time>
      </trkpt>
      <trkpt lat="44.83981" lon="5.42816">
        <ele>1471.92</ele>
        <time>2024-09-18T08:53:11Z</time>
      </trkpt>
      <trkpt lat="44.83979" lon="5.42818">
        <ele>1472.4</ele>
        <time>2024-09-18T08:53:12Z</time>
      </trkpt>
      <trkpt lat="44.83964" lon="5.4283">
        <ele>1482.49</ele>
        <time>2024-09-18T08:53:28Z</time>
      </trkpt>
      <trkpt lat="44.83947" lon="5.42834">
        <ele>1484.89</ele>
        <time>2024-09-18T08:53:42Z</time>
      </trkpt>
      <trkpt lat="44.83931" lon="5.42837">
        <ele>1489.7</ele>
        <time>2024-09-18T08:53:57Z</time>
      </trkpt>
      <trkpt lat="44.83912" lon="5.42842">
        <ele>1489.7</ele>
        <time>2024-09-18T08:54:13Z</time>
      </trkpt>
      <trkpt lat="44.83891" lon="5.42845">
        <ele>1489.7</ele>
        <time>2024-09-18T08:54:26Z</time>
      </trkpt>
      <trkpt lat="44.83865" lon="5.4285">
        <ele>1490.18</ele>
        <time>2024-09-18T08:54:41Z</time>
      </trkpt>
      <trkpt lat="44.83849" lon="5.42853">
        <ele>1490.18</ele>
        <time>2024-09-18T08:54:54Z</time>
      </trkpt>
      <trkpt lat="44.8383" lon="5.42858">
        <ele>1488.26</ele>
        <time>2024-09-18T08:55:08Z</time>
      </trkpt>
      <trkpt lat="44.8381" lon="5.42863">
        <ele>1487.3</ele>
        <time>2024-09-18T08:55:23Z</time>
      </trkpt>
      <trkpt lat="44.83794" lon="5.4288">
        <ele>1483.45</ele>
        <time>2024-09-18T08:55:37Z</time>
      </trkpt>
      <trkpt lat="44.83777" lon="5.42889">
        <ele>1482.01</ele>
        <time>2024-09-18T08:55:48Z</time>
      </trkpt>
      <trkpt lat="44.83775" lon="5.42891">
        <ele>1480.57</ele>
        <time>2024-09-18T08:55:50Z</time>
      </trkpt>
      <trkpt lat="44.83773" lon="5.42893">
        <ele>1480.09</ele>
        <time>2024-09-18T08:55:52Z</time>
      </trkpt>
      <trkpt lat="44.83772" lon="5.42894">
        <ele>1480.09</ele>
        <time>2024-09-18T08:55:53Z</time>
      </trkpt>
      <trkpt lat="44.83751" lon="5.42905">
        <ele>1480.09</ele>
        <time>2024-09-18T08:56:09Z</time>
      </trkpt>
      <trkpt lat="44.83745" lon="5.42915">
        <ele>1480.57</ele>
        <time>2024-09-18T08:56:16Z</time>
      </trkpt>
      <trkpt lat="44.83744" lon="5.42917">
        <ele>1481.05</ele>
        <time>2024-09-18T08:56:17Z</time>
      </trkpt>
      <trkpt lat="44.83742" lon="5.4292">
        <ele>1481.05</ele>
        <time>2024-09-18T08:56:19Z</time>
      </trkpt>
      <trkpt lat="44.83742" lon="5.42923">
        <ele>1481.53</ele>
        <time>2024-09-18T08:56:21Z</time>
      </trkpt>
      <trkpt lat="44.83749" lon="5.42954">
        <ele>1483.45</ele>
        <time>2024-09-18T08:56:40Z</time>
      </trkpt>
      <trkpt lat="44.83752" lon="5.42982">
        <ele>1483.45</ele>
        <time>2024-09-18T08:56:57Z</time>
      </trkpt>
      <trkpt lat="44.83747" lon="5.43008">
        <ele>1485.37</ele>
        <time>2024-09-18T08:57:15Z</time>
      </trkpt>
      <trkpt lat="44.83737" lon="5.43032">
        <ele>1485.37</ele>
        <time>2024-09-18T08:57:35Z</time>
      </trkpt>
      <trkpt lat="44.83734" lon="5.43045">
        <ele>1487.3</ele>
        <time>2024-09-18T08:57:40Z</time>
      </trkpt>
      <trkpt lat="44.83734" lon="5.43049">
        <ele>1487.78</ele>
        <time>2024-09-18T08:57:41Z</time>
      </trkpt>
      <trkpt lat="44.83728" lon="5.43069">
        <ele>1492.58</ele>
        <time>2024-09-18T08:57:54Z</time>
      </trkpt>
      <trkpt lat="44.83717" lon="5.43092">
        <ele>1495.47</ele>
        <time>2024-09-18T08:58:08Z</time>
      </trkpt>
      <trkpt lat="44.83715" lon="5.43103">
        <ele>1495.95</ele>
        <time>2024-09-18T08:58:16Z</time>
      </trkpt>
      <trkpt lat="44.83715" lon="5.43106">
        <ele>1495.95</ele>
        <time>2024-09-18T08:58:18Z</time>
      </trkpt>
      <trkpt lat="44.83711" lon="5.43119">
        <ele>1495.95</ele>
        <time>2024-09-18T08:58:30Z</time>
      </trkpt>
      <trkpt lat="44.837" lon="5.4313">
        <ele>1495.95</ele>
        <time>2024-09-18T08:58:45Z</time>
      </trkpt>
      <trkpt lat="44.83691" lon="5.4315">
        <ele>1494.51</ele>
        <time>2024-09-18T08:59:03Z</time>
      </trkpt>
      <trkpt lat="44.83687" lon="5.43169">
        <ele>1494.03</ele>
        <time>2024-09-18T08:59:22Z</time>
      </trkpt>
      <trkpt lat="44.83678" lon="5.43183">
        <ele>1493.06</ele>
        <time>2024-09-18T08:59:44Z</time>
      </trkpt>
      <trkpt lat="44.83666" lon="5.432">
        <ele>1491.62</ele>
        <time>2024-09-18T09:00:01Z</time>
      </trkpt>
      <trkpt lat="44.83644" lon="5.43217">
        <ele>1492.58</ele>
        <time>2024-09-18T09:00:23Z</time>
      </trkpt>
      <trkpt lat="44.83618" lon="5.43212">
        <ele>1500.76</ele>
        <time>2024-09-18T09:00:42Z</time>
      </trkpt>
      <trkpt lat="44.83596" lon="5.43212">
        <ele>1512.29</ele>
        <time>2024-09-18T09:01:04Z</time>
      </trkpt>
      <trkpt lat="44.83578" lon="5.4322">
        <ele>1516.62</ele>
        <time>2024-09-18T09:01:22Z</time>
      </trkpt>
      <trkpt lat="44.8356" lon="5.43234">
        <ele>1519.02</ele>
        <time>2024-09-18T09:01:41Z</time>
      </trkpt>
      <trkpt lat="44.83534" lon="5.43248">
        <ele>1519.02</ele>
        <time>2024-09-18T09:02:01Z</time>
      </trkpt>
      <trkpt lat="44.83511" lon="5.43249">
        <ele>1520.94</ele>
        <time>2024-09-18T09:02:20Z</time>
      </trkpt>
      <trkpt lat="44.8348" lon="5.43253">
        <ele>1529.59</ele>
        <time>2024-09-18T09:02:39Z</time>
      </trkpt>
      <trkpt lat="44.83475" lon="5.43252">
        <ele>1531.04</ele>
        <time>2024-09-18T09:02:43Z</time>
      </trkpt>
      <trkpt lat="44.8347" lon="5.43246">
        <ele>1533.92</ele>
        <time>2024-09-18T09:02:46Z</time>
      </trkpt>
      <trkpt lat="44.83448" lon="5.43247">
        <ele>1537.29</ele>
        <time>2024-09-18T09:03:01Z</time>
      </trkpt>
      <trkpt lat="44.83429" lon="5.43251">
        <ele>1537.77</ele>
        <time>2024-09-18T09:03:19Z</time>
      </trkpt>
      <trkpt lat="44.83414" lon="5.43247">
        <ele>1537.77</ele>
        <time>2024-09-18T09:03:34Z</time>
      </trkpt>
      <trkpt lat="44.83414" lon="5.43247">
        <ele>1537.77</ele>
        <time>2024-09-18T09:03:35Z</time>
      </trkpt>
      <trkpt lat="44.83415" lon="5.43248">
        <ele>1537.29</ele>
        <time>2024-09-18T09:03:36Z</time>
      </trkpt>
      <trkpt lat="44.83417" lon="5.43267">
        <ele>1537.77</ele>
        <time>2024-09-18T09:03:52Z</time>
      </trkpt>
      <trkpt lat="44.83413" lon="5.43294">
        <ele>1540.17</ele>
        <time>2024-09-18T09:04:09Z</time>
      </trkpt>
      <trkpt lat="44.83407" lon="5.43323">
        <ele>1540.65</ele>
        <time>2024-09-18T09:04:26Z</time>
      </trkpt>
      <trkpt lat="44.83401" lon="5.43359">
        <ele>1542.57</ele>
        <time>2024-09-18T09:04:46Z</time>
      </trkpt>
      <trkpt lat="44.83396" lon="5.43379">
        <ele>1544.01</ele>
        <time>2024-09-18T09:05:00Z</time>
      </trkpt>
      <trkpt lat="44.83386" lon="5.43406">
        <ele>1547.38</ele>
        <time>2024-09-18T09:05:17Z</time>
      </trkpt>
      <trkpt lat="44.83377" lon="5.43435">
        <ele>1551.22</ele>
        <time>2024-09-18T09:05:35Z</time>
      </trkpt>
      <trkpt lat="44.83375" lon="5.43462">
        <ele>1556.51</ele>
        <time>2024-09-18T09:05:51Z</time>
      </trkpt>
      <trkpt lat="44.83372" lon="5.43489">
        <ele>1560.84</ele>
        <time>2024-09-18T09:06:09Z</time>
      </trkpt>
      <trkpt lat="44.83375" lon="5.43492">
        <ele>1560.84</ele>
        <time>2024-09-18T09:06:15Z</time>
      </trkpt>
      <trkpt lat="44.83376" lon="5.43492">
        <ele>1561.32</ele>
        <time>2024-09-18T09:06:16Z</time>
      </trkpt>
      <trkpt lat="44.83388" lon="5.43499">
        <ele>1561.32</ele>
        <time>2024-09-18T09:06:34Z</time>
      </trkpt>
      <trkpt lat="44.83386" lon="5.43501">
        <ele>1561.8</ele>
        <time>2024-09-18T09:06:37Z</time>
      </trkpt>
      <trkpt lat="44.83373" lon="5.43509">
        <ele>1561.32</ele>
        <time>2024-09-18T09:06:50Z</time>
      </trkpt>
      <trkpt lat="44.83373" lon="5.4351">
        <ele>1561.32</ele>
        <time>2024-09-18T09:06:51Z</time>
      </trkpt>
      <trkpt lat="44.83373" lon="5.43512">
        <ele>1561.32</ele>
        <time>2024-09-18T09:06:52Z</time>
      </trkpt>
      <trkpt lat="44.83371" lon="5.43518">
        <ele>1562.28</ele>
        <time>2024-09-18T09:06:59Z</time>
      </trkpt>
      <trkpt lat="44.83371" lon="5.43519">
        <ele>1562.28</ele>
        <time>2024-09-18T09:07:00Z</time>
      </trkpt>
      <trkpt lat="44.83371" lon="5.43521">
        <ele>1562.28</ele>
        <time>2024-09-18T09:07:01Z</time>
      </trkpt>
      <trkpt lat="44.8337" lon="5.43528">
        <ele>1562.76</ele>
        <time>2024-09-18T09:07:05Z</time>
      </trkpt>
      <trkpt lat="44.83369" lon="5.43557">
        <ele>1565.64</ele>
        <time>2024-09-18T09:07:23Z</time>
      </trkpt>
      <trkpt lat="44.83375" lon="5.4359">
        <ele>1569.01</ele>
        <time>2024-09-18T09:07:43Z</time>
      </trkpt>
      <trkpt lat="44.83395" lon="5.43598">
        <ele>1568.05</ele>
        <time>2024-09-18T09:08:02Z</time>
      </trkpt>
      <trkpt lat="44.83416" lon="5.43588">
        <ele>1569.01</ele>
        <time>2024-09-18T09:08:21Z</time>
      </trkpt>
      <trkpt lat="44.83424" lon="5.43589">
        <ele>1568.53</ele>
        <time>2024-09-18T09:08:28Z</time>
      </trkpt>
      <trkpt lat="44.83428" lon="5.43595">
        <ele>1569.97</ele>
        <time>2024-09-18T09:08:33Z</time>
      </trkpt>
      <trkpt lat="44.83428" lon="5.43597">
        <ele>1570.45</ele>
        <time>2024-09-18T09:08:34Z</time>
      </trkpt>
      <trkpt lat="44.83428" lon="5.43598">
        <ele>1570.93</ele>
        <time>2024-09-18T09:08:35Z</time>
      </trkpt>
      <trkpt lat="44.83429" lon="5.436">
        <ele>1570.93</ele>
        <time>2024-09-18T09:08:36Z</time>
      </trkpt>
      <trkpt lat="44.83429" lon="5.43605">
        <ele>1574.78</ele>
        <time>2024-09-18T09:08:50Z</time>
      </trkpt>
      <trkpt lat="44.83424" lon="5.43606">
        <ele>1575.74</ele>
        <time>2024-09-18T09:09:04Z</time>
      </trkpt>
      <trkpt lat="44.83423" lon="5.43606">
        <ele>1575.74</ele>
        <time>2024-09-18T09:09:05Z</time>
      </trkpt>
      <trkpt lat="44.83421" lon="5.43608">
        <ele>1575.74</ele>
        <time>2024-09-18T09:09:08Z</time>
      </trkpt>
      <trkpt lat="44.83417" lon="5.43619">
        <ele>1577.66</ele>
        <time>2024-09-18T09:09:16Z</time>
      </trkpt>
      <trkpt lat="44.83412" lon="5.43641">
        <ele>1582.95</ele>
        <time>2024-09-18T09:09:31Z</time>
      </trkpt>
      <trkpt lat="44.8341" lon="5.43663">
        <ele>1588.24</ele>
        <time>2024-09-18T09:09:47Z</time>
      </trkpt>
      <trkpt lat="44.83413" lon="5.43665">
        <ele>1589.68</ele>
        <time>2024-09-18T09:09:50Z</time>
      </trkpt>
      <trkpt lat="44.83416" lon="5.4367">
        <ele>1590.64</ele>
        <time>2024-09-18T09:09:54Z</time>
      </trkpt>
      <trkpt lat="44.83417" lon="5.43676">
        <ele>1591.12</ele>
        <time>2024-09-18T09:09:59Z</time>
      </trkpt>
      <trkpt lat="44.83411" lon="5.43702">
        <ele>1595.93</ele>
        <time>2024-09-18T09:10:14Z</time>
      </trkpt>
      <trkpt lat="44.83405" lon="5.4371">
        <ele>1598.33</ele>
        <time>2024-09-18T09:10:21Z</time>
      </trkpt>
      <trkpt lat="44.83404" lon="5.43711">
        <ele>1598.81</ele>
        <time>2024-09-18T09:10:22Z</time>
      </trkpt>
      <trkpt lat="44.83403" lon="5.43713">
        <ele>1599.29</ele>
        <time>2024-09-18T09:10:23Z</time>
      </trkpt>
      <trkpt lat="44.83391" lon="5.4373">
        <ele>1605.06</ele>
        <time>2024-09-18T09:10:39Z</time>
      </trkpt>
      <trkpt lat="44.83383" lon="5.43748">
        <ele>1605.54</ele>
        <time>2024-09-18T09:10:54Z</time>
      </trkpt>
      <trkpt lat="44.83376" lon="5.43762">
        <ele>1605.54</ele>
        <time>2024-09-18T09:11:06Z</time>
      </trkpt>
      <trkpt lat="44.83367" lon="5.43787">
        <ele>1608.9</ele>
        <time>2024-09-18T09:11:25Z</time>
      </trkpt>
      <trkpt lat="44.83377" lon="5.43807">
        <ele>1610.83</ele>
        <time>2024-09-18T09:11:38Z</time>
      </trkpt>
      <trkpt lat="44.83385" lon="5.43837">
        <ele>1613.71</ele>
        <time>2024-09-18T09:11:54Z</time>
      </trkpt>
      <trkpt lat="44.83391" lon="5.4386">
        <ele>1615.63</ele>
        <time>2024-09-18T09:12:07Z</time>
      </trkpt>
      <trkpt lat="44.83401" lon="5.4388">
        <ele>1618.52</ele>
        <time>2024-09-18T09:12:22Z</time>
      </trkpt>
      <trkpt lat="44.83401" lon="5.43883">
        <ele>1619</ele>
        <time>2024-09-18T09:12:24Z</time>
      </trkpt>
      <trkpt lat="44.83401" lon="5.43884">
        <ele>1619</ele>
        <time>2024-09-18T09:12:25Z</time>
      </trkpt>
      <trkpt lat="44.834" lon="5.43886">
        <ele>1619</ele>
        <time>2024-09-18T09:12:26Z</time>
      </trkpt>
      <trkpt lat="44.83391" lon="5.43904">
        <ele>1620.92</ele>
        <time>2024-09-18T09:12:40Z</time>
      </trkpt>
      <trkpt lat="44.83391" lon="5.43906">
        <ele>1621.4</ele>
        <time>2024-09-18T09:12:41Z</time>
      </trkpt>
      <trkpt lat="44.83391" lon="5.43908">
        <ele>1621.4</ele>
        <time>2024-09-18T09:12:42Z</time>
      </trkpt>
      <trkpt lat="44.8339" lon="5.43909">
        <ele>1621.4</ele>
        <time>2024-09-18T09:12:43Z</time>
      </trkpt>
      <trkpt lat="44.8339" lon="5.43911">
        <ele>1621.88</ele>
        <time>2024-09-18T09:12:44Z</time>
      </trkpt>
      <trkpt lat="44.83383" lon="5.4394">
        <ele>1626.69</ele>
        <time>2024-09-18T09:13:03Z</time>
      </trkpt>
      <trkpt lat="44.83384" lon="5.43943">
        <ele>1627.65</ele>
        <time>2024-09-18T09:13:05Z</time>
      </trkpt>
      <trkpt lat="44.83385" lon="5.43945">
        <ele>1628.13</ele>
        <time>2024-09-18T09:13:06Z</time>
      </trkpt>
      <trkpt lat="44.83385" lon="5.43947">
        <ele>1628.61</ele>
        <time>2024-09-18T09:13:07Z</time>
      </trkpt>
      <trkpt lat="44.8338" lon="5.43966">
        <ele>1630.53</ele>
        <time>2024-09-18T09:13:20Z</time>
      </trkpt>
      <trkpt lat="44.8337" lon="5.43989">
        <ele>1633.42</ele>
        <time>2024-09-18T09:13:37Z</time>
      </trkpt>
      <trkpt lat="44.83365" lon="5.44013">
        <ele>1636.78</ele>
        <time>2024-09-18T09:13:53Z</time>
      </trkpt>
      <trkpt lat="44.83362" lon="5.44028">
        <ele>1638.7</ele>
        <time>2024-09-18T09:14:07Z</time>
      </trkpt>
      <trkpt lat="44.83362" lon="5.44032">
        <ele>1639.19</ele>
        <time>2024-09-18T09:14:28Z</time>
      </trkpt>
      <trkpt lat="44.83362" lon="5.44036">
        <ele>1639.19</ele>
        <time>2024-09-18T09:14:31Z</time>
      </trkpt>
      <trkpt lat="44.83356" lon="5.44037">
        <ele>1639.19</ele>
        <time>2024-09-18T09:14:45Z</time>
      </trkpt>
      <trkpt lat="44.83355" lon="5.4404">
        <ele>1638.22</ele>
        <time>2024-09-18T09:15:04Z</time>
      </trkpt>
      <trkpt lat="44.83358" lon="5.44044">
        <ele>1637.74</ele>
        <time>2024-09-18T09:15:18Z</time>
      </trkpt>
      <trkpt lat="44.83359" lon="5.44044">
        <ele>1637.74</ele>
        <time>2024-09-18T09:15:40Z</time>
      </trkpt>
      <trkpt lat="44.83362" lon="5.44046">
        <ele>1637.74</ele>
        <time>2024-09-18T09:15:52Z</time>
      </trkpt>
      <trkpt lat="44.83365" lon="5.44042">
        <ele>1637.74</ele>
        <time>2024-09-18T09:16:07Z</time>
      </trkpt>
      <trkpt lat="44.83366" lon="5.44041">
        <ele>1637.74</ele>
        <time>2024-09-18T09:16:08Z</time>
      </trkpt>
      <trkpt lat="44.83366" lon="5.44039">
        <ele>1637.26</ele>
        <time>2024-09-18T09:16:09Z</time>
      </trkpt>
      <trkpt lat="44.83368" lon="5.44029">
        <ele>1636.3</ele>
        <time>2024-09-18T09:16:16Z</time>
      </trkpt>
      <trkpt lat="44.83363" lon="5.44026">
        <ele>1636.78</ele>
        <time>2024-09-18T09:16:30Z</time>
      </trkpt>
      <trkpt lat="44.83357" lon="5.44028">
        <ele>1636.78</ele>
        <time>2024-09-18T09:16:40Z</time>
      </trkpt>
      <trkpt lat="44.83336" lon="5.44036">
        <ele>1637.26</ele>
        <time>2024-09-18T09:16:58Z</time>
      </trkpt>
      <trkpt lat="44.83313" lon="5.44034">
        <ele>1637.26</ele>
        <time>2024-09-18T09:17:16Z</time>
      </trkpt>
      <trkpt lat="44.83294" lon="5.44048">
        <ele>1640.15</ele>
        <time>2024-09-18T09:17:36Z</time>
      </trkpt>
      <trkpt lat="44.83276" lon="5.44059">
        <ele>1641.59</ele>
        <time>2024-09-18T09:17:54Z</time>
      </trkpt>
      <trkpt lat="44.83266" lon="5.44065">
        <ele>1639.19</ele>
        <time>2024-09-18T09:18:08Z</time>
      </trkpt>
      <trkpt lat="44.83261" lon="5.44062">
        <ele>1637.74</ele>
        <time>2024-09-18T09:18:12Z</time>
      </trkpt>
      <trkpt lat="44.83244" lon="5.44062">
        <ele>1637.74</ele>
        <time>2024-09-18T09:18:25Z</time>
      </trkpt>
      <trkpt lat="44.83232" lon="5.44065">
        <ele>1640.63</ele>
        <time>2024-09-18T09:18:43Z</time>
      </trkpt>
      <trkpt lat="44.83232" lon="5.44065">
        <ele>1640.63</ele>
        <time>2024-09-18T09:18:52Z</time>
      </trkpt>
      <trkpt lat="44.83226" lon="5.4407">
        <ele>1640.15</ele>
        <time>2024-09-18T09:18:59Z</time>
      </trkpt>
      <trkpt lat="44.83223" lon="5.44098">
        <ele>1638.22</ele>
        <time>2024-09-18T09:19:16Z</time>
      </trkpt>
      <trkpt lat="44.83224" lon="5.44126">
        <ele>1635.34</ele>
        <time>2024-09-18T09:19:34Z</time>
      </trkpt>
      <trkpt lat="44.83222" lon="5.44141">
        <ele>1632.94</ele>
        <time>2024-09-18T09:19:50Z</time>
      </trkpt>
      <trkpt lat="44.83221" lon="5.44161">
        <ele>1628.61</ele>
        <time>2024-09-18T09:20:08Z</time>
      </trkpt>
      <trkpt lat="44.83221" lon="5.4418">
        <ele>1626.21</ele>
        <time>2024-09-18T09:20:24Z</time>
      </trkpt>
      <trkpt lat="44.8322" lon="5.44199">
        <ele>1622.84</ele>
        <time>2024-09-18T09:20:40Z</time>
      </trkpt>
      <trkpt lat="44.83219" lon="5.44227">
        <ele>1622.36</ele>
        <time>2024-09-18T09:20:54Z</time>
      </trkpt>
      <trkpt lat="44.83222" lon="5.44262">
        <ele>1625.25</ele>
        <time>2024-09-18T09:21:11Z</time>
      </trkpt>
      <trkpt lat="44.83215" lon="5.44299">
        <ele>1629.57</ele>
        <time>2024-09-18T09:21:31Z</time>
      </trkpt>
      <trkpt lat="44.83212" lon="5.44327">
        <ele>1634.38</ele>
        <time>2024-09-18T09:21:49Z</time>
      </trkpt>
      <trkpt lat="44.83207" lon="5.44362">
        <ele>1636.78</ele>
        <time>2024-09-18T09:22:09Z</time>
      </trkpt>
      <trkpt lat="44.83199" lon="5.44377">
        <ele>1634.38</ele>
        <time>2024-09-18T09:22:20Z</time>
      </trkpt>
      <trkpt lat="44.83201" lon="5.44406">
        <ele>1631.01</ele>
        <time>2024-09-18T09:22:36Z</time>
      </trkpt>
      <trkpt lat="44.83201" lon="5.44437">
        <ele>1630.53</ele>
        <time>2024-09-18T09:22:53Z</time>
      </trkpt>
      <trkpt lat="44.83195" lon="5.44473">
        <ele>1628.13</ele>
        <time>2024-09-18T09:23:13Z</time>
      </trkpt>
      <trkpt lat="44.83197" lon="5.44504">
        <ele>1626.21</ele>
        <time>2024-09-18T09:23:31Z</time>
      </trkpt>
      <trkpt lat="44.83193" lon="5.44521">
        <ele>1623.32</ele>
        <time>2024-09-18T09:23:47Z</time>
      </trkpt>
      <trkpt lat="44.83189" lon="5.44533">
        <ele>1621.4</ele>
        <time>2024-09-18T09:23:57Z</time>
      </trkpt>
      <trkpt lat="44.83193" lon="5.44534">
        <ele>1620.44</ele>
        <time>2024-09-18T09:24:10Z</time>
      </trkpt>
      <trkpt lat="44.8319" lon="5.44539">
        <ele>1621.4</ele>
        <time>2024-09-18T09:24:23Z</time>
      </trkpt>
      <trkpt lat="44.83189" lon="5.44534">
        <ele>1620.92</ele>
        <time>2024-09-18T09:24:49Z</time>
      </trkpt>
      <trkpt lat="44.83189" lon="5.44534">
        <ele>1619.48</ele>
        <time>2024-09-18T09:25:15Z</time>
      </trkpt>
      <trkpt lat="44.83187" lon="5.44539">
        <ele>1620.92</ele>
        <time>2024-09-18T09:25:20Z</time>
      </trkpt>
      <trkpt lat="44.83182" lon="5.44551">
        <ele>1619.48</ele>
        <time>2024-09-18T09:25:36Z</time>
      </trkpt>
      <trkpt lat="44.83183" lon="5.44559">
        <ele>1619.96</ele>
        <time>2024-09-18T09:25:52Z</time>
      </trkpt>
      <trkpt lat="44.83184" lon="5.44563">
        <ele>1619.96</ele>
        <time>2024-09-18T09:26:04Z</time>
      </trkpt>
      <trkpt lat="44.83186" lon="5.44591">
        <ele>1617.56</ele>
        <time>2024-09-18T09:26:21Z</time>
      </trkpt>
      <trkpt lat="44.83191" lon="5.44616">
        <ele>1614.19</ele>
        <time>2024-09-18T09:26:37Z</time>
      </trkpt>
      <trkpt lat="44.83193" lon="5.44647">
        <ele>1610.35</ele>
        <time>2024-09-18T09:26:54Z</time>
      </trkpt>
      <trkpt lat="44.83189" lon="5.44677">
        <ele>1607.46</ele>
        <time>2024-09-18T09:27:10Z</time>
      </trkpt>
      <trkpt lat="44.83181" lon="5.44701">
        <ele>1606.98</ele>
        <time>2024-09-18T09:27:28Z</time>
      </trkpt>
      <trkpt lat="44.8317" lon="5.4473">
        <ele>1607.94</ele>
        <time>2024-09-18T09:27:47Z</time>
      </trkpt>
      <trkpt lat="44.83166" lon="5.4476">
        <ele>1610.83</ele>
        <time>2024-09-18T09:28:04Z</time>
      </trkpt>
      <trkpt lat="44.83155" lon="5.44783">
        <ele>1607.46</ele>
        <time>2024-09-18T09:28:21Z</time>
      </trkpt>
      <trkpt lat="44.8315" lon="5.44799">
        <ele>1604.1</ele>
        <time>2024-09-18T09:28:35Z</time>
      </trkpt>
      <trkpt lat="44.83141" lon="5.4482">
        <ele>1604.1</ele>
        <time>2024-09-18T09:28:51Z</time>
      </trkpt>
      <trkpt lat="44.83137" lon="5.44848">
        <ele>1605.54</ele>
        <time>2024-09-18T09:29:05Z</time>
      </trkpt>
      <trkpt lat="44.83135" lon="5.44885">
        <ele>1605.54</ele>
        <time>2024-09-18T09:29:24Z</time>
      </trkpt>
      <trkpt lat="44.83129" lon="5.44921">
        <ele>1606.5</ele>
        <time>2024-09-18T09:29:43Z</time>
      </trkpt>
      <trkpt lat="44.83119" lon="5.4495">
        <ele>1605.54</ele>
        <time>2024-09-18T09:30:00Z</time>
      </trkpt>
      <trkpt lat="44.83111" lon="5.44972">
        <ele>1601.69</ele>
        <time>2024-09-18T09:30:16Z</time>
      </trkpt>
      <trkpt lat="44.831" lon="5.45008">
        <ele>1596.89</ele>
        <time>2024-09-18T09:30:37Z</time>
      </trkpt>
      <trkpt lat="44.83081" lon="5.45037">
        <ele>1593.52</ele>
        <time>2024-09-18T09:30:56Z</time>
      </trkpt>
      <trkpt lat="44.83067" lon="5.45065">
        <ele>1593.04</ele>
        <time>2024-09-18T09:31:15Z</time>
      </trkpt>
      <trkpt lat="44.83047" lon="5.45097">
        <ele>1585.35</ele>
        <time>2024-09-18T09:31:36Z</time>
      </trkpt>
      <trkpt lat="44.83032" lon="5.45122">
        <ele>1577.66</ele>
        <time>2024-09-18T09:31:54Z</time>
      </trkpt>
      <trkpt lat="44.83026" lon="5.45135">
        <ele>1577.18</ele>
        <time>2024-09-18T09:32:10Z</time>
      </trkpt>
      <trkpt lat="44.83024" lon="5.45137">
        <ele>1577.18</ele>
        <time>2024-09-18T09:32:37Z</time>
      </trkpt>
      <trkpt lat="44.83024" lon="5.45138">
        <ele>1576.22</ele>
        <time>2024-09-18T09:33:01Z</time>
      </trkpt>
      <trkpt lat="44.83025" lon="5.45137">
        <ele>1576.7</ele>
        <time>2024-09-18T09:33:18Z</time>
      </trkpt>
      <trkpt lat="44.83027" lon="5.45129">
        <ele>1578.14</ele>
        <time>2024-09-18T09:33:34Z</time>
      </trkpt>
      <trkpt lat="44.83024" lon="5.45129">
        <ele>1579.58</ele>
        <time>2024-09-18T09:33:49Z</time>
      </trkpt>
      <trkpt lat="44.83025" lon="5.45128">
        <ele>1581.51</ele>
        <time>2024-09-18T09:34:12Z</time>
      </trkpt>
      <trkpt lat="44.83025" lon="5.45129">
        <ele>1581.99</ele>
        <time>2024-09-18T09:34:33Z</time>
      </trkpt>
      <trkpt lat="44.83029" lon="5.45122">
        <ele>1582.95</ele>
        <time>2024-09-18T09:34:46Z</time>
      </trkpt>
      <trkpt lat="44.83028" lon="5.45122">
        <ele>1584.39</ele>
        <time>2024-09-18T09:35:13Z</time>
      </trkpt>
      <trkpt lat="44.83038" lon="5.45123">
        <ele>1589.2</ele>
        <time>2024-09-18T09:35:46Z</time>
      </trkpt>
      <trkpt lat="44.83033" lon="5.45124">
        <ele>1589.68</ele>
        <time>2024-09-18T09:36:12Z</time>
      </trkpt>
      <trkpt lat="44.83029" lon="5.45123">
        <ele>1586.31</ele>
        <time>2024-09-18T09:36:34Z</time>
      </trkpt>
      <trkpt lat="44.83029" lon="5.4512">
        <ele>1586.79</ele>
        <time>2024-09-18T09:36:53Z</time>
      </trkpt>
      <trkpt lat="44.83033" lon="5.45116">
        <ele>1591.6</ele>
        <time>2024-09-18T09:37:20Z</time>
      </trkpt>
      <trkpt lat="44.83034" lon="5.45124">
        <ele>1590.64</ele>
        <time>2024-09-18T09:37:38Z</time>
      </trkpt>
      <trkpt lat="44.83033" lon="5.45129">
        <ele>1587.75</ele>
        <time>2024-09-18T09:37:52Z</time>
      </trkpt>
      <trkpt lat="44.83028" lon="5.45137">
        <ele>1583.91</ele>
        <time>2024-09-18T09:38:07Z</time>
      </trkpt>
      <trkpt lat="44.83017" lon="5.45148">
        <ele>1581.03</ele>
        <time>2024-09-18T09:38:22Z</time>
      </trkpt>
      <trkpt lat="44.83002" lon="5.45165">
        <ele>1576.7</ele>
        <time>2024-09-18T09:38:40Z</time>
      </trkpt>
      <trkpt lat="44.82992" lon="5.45178">
        <ele>1571.89</ele>
        <time>2024-09-18T09:38:56Z</time>
      </trkpt>
      <trkpt lat="44.82986" lon="5.45186">
        <ele>1568.53</ele>
        <time>2024-09-18T09:39:13Z</time>
      </trkpt>
      <trkpt lat="44.82982" lon="5.45199">
        <ele>1567.09</ele>
        <time>2024-09-18T09:39:25Z</time>
      </trkpt>
      <trkpt lat="44.82973" lon="5.45215">
        <ele>1562.28</ele>
        <time>2024-09-18T09:39:47Z</time>
      </trkpt>
      <trkpt lat="44.82963" lon="5.45233">
        <ele>1559.88</ele>
        <time>2024-09-18T09:40:05Z</time>
      </trkpt>
      <trkpt lat="44.82959" lon="5.45253">
        <ele>1557.47</ele>
        <time>2024-09-18T09:40:22Z</time>
      </trkpt>
      <trkpt lat="44.8296" lon="5.45261">
        <ele>1556.03</ele>
        <time>2024-09-18T09:40:28Z</time>
      </trkpt>
      <trkpt lat="44.82967" lon="5.45278">
        <ele>1552.19</ele>
        <time>2024-09-18T09:40:40Z</time>
      </trkpt>
      <trkpt lat="44.82967" lon="5.45279">
        <ele>1552.19</ele>
        <time>2024-09-18T09:40:41Z</time>
      </trkpt>
      <trkpt lat="44.82968" lon="5.45281">
        <ele>1552.19</ele>
        <time>2024-09-18T09:40:42Z</time>
      </trkpt>
      <trkpt lat="44.82974" lon="5.4529">
        <ele>1550.26</ele>
        <time>2024-09-18T09:40:49Z</time>
      </trkpt>
      <trkpt lat="44.82983" lon="5.45313">
        <ele>1550.74</ele>
        <time>2024-09-18T09:41:05Z</time>
      </trkpt>
      <trkpt lat="44.82991" lon="5.45331">
        <ele>1547.86</ele>
        <time>2024-09-18T09:41:21Z</time>
      </trkpt>
      <trkpt lat="44.82996" lon="5.4534">
        <ele>1544.98</ele>
        <time>2024-09-18T09:41:35Z</time>
      </trkpt>
      <trkpt lat="44.82995" lon="5.4534">
        <ele>1544.01</ele>
        <time>2024-09-18T09:41:53Z</time>
      </trkpt>
      <trkpt lat="44.82996" lon="5.45341">
        <ele>1546.42</ele>
        <time>2024-09-18T09:42:07Z</time>
      </trkpt>
      <trkpt lat="44.82996" lon="5.4534">
        <ele>1547.86</ele>
        <time>2024-09-18T09:42:33Z</time>
      </trkpt>
      <trkpt lat="44.83001" lon="5.45351">
        <ele>1546.42</ele>
        <time>2024-09-18T09:42:49Z</time>
      </trkpt>
      <trkpt lat="44.83005" lon="5.4536">
        <ele>1545.94</ele>
        <time>2024-09-18T09:42:56Z</time>
      </trkpt>
      <trkpt lat="44.83006" lon="5.45361">
        <ele>1545.94</ele>
        <time>2024-09-18T09:42:57Z</time>
      </trkpt>
      <trkpt lat="44.83009" lon="5.4538">
        <ele>1546.42</ele>
        <time>2024-09-18T09:43:13Z</time>
      </trkpt>
      <trkpt lat="44.83009" lon="5.45384">
        <ele>1545.94</ele>
        <time>2024-09-18T09:43:28Z</time>
      </trkpt>
      <trkpt lat="44.83009" lon="5.45384">
        <ele>1546.42</ele>
        <time>2024-09-18T09:43:43Z</time>
      </trkpt>
      <trkpt lat="44.83011" lon="5.45383">
        <ele>1548.34</ele>
        <time>2024-09-18T09:43:58Z</time>
      </trkpt>
      <trkpt lat="44.83015" lon="5.45384">
        <ele>1546.9</ele>
        <time>2024-09-18T09:44:04Z</time>
      </trkpt>
      <trkpt lat="44.83019" lon="5.45389">
        <ele>1546.42</ele>
        <time>2024-09-18T09:44:09Z</time>
      </trkpt>
      <trkpt lat="44.83026" lon="5.45397">
        <ele>1545.46</ele>
        <time>2024-09-18T09:44:24Z</time>
      </trkpt>
      <trkpt lat="44.8303" lon="5.45404">
        <ele>1547.86</ele>
        <time>2024-09-18T09:44:40Z</time>
      </trkpt>
      <trkpt lat="44.83031" lon="5.454">
        <ele>1547.86</ele>
        <time>2024-09-18T09:45:11Z</time>
      </trkpt>
      <trkpt lat="44.83033" lon="5.45402">
        <ele>1549.3</ele>
        <time>2024-09-18T09:45:26Z</time>
      </trkpt>
      <trkpt lat="44.83032" lon="5.45399">
        <ele>1550.26</ele>
        <time>2024-09-18T09:45:44Z</time>
      </trkpt>
      <trkpt lat="44.83025" lon="5.454">
        <ele>1549.78</ele>
        <time>2024-09-18T09:45:52Z</time>
      </trkpt>
      <trkpt lat="44.83017" lon="5.45403">
        <ele>1548.34</ele>
        <time>2024-09-18T09:46:06Z</time>
      </trkpt>
      <trkpt lat="44.83019" lon="5.45405">
        <ele>1547.86</ele>
        <time>2024-09-18T09:46:09Z</time>
      </trkpt>
      <trkpt lat="44.83028" lon="5.45418">
        <ele>1545.94</ele>
        <time>2024-09-18T09:46:19Z</time>
      </trkpt>
      <trkpt lat="44.83025" lon="5.4542">
        <ele>1546.42</ele>
        <time>2024-09-18T09:46:30Z</time>
      </trkpt>
      <trkpt lat="44.83026" lon="5.45421">
        <ele>1546.9</ele>
        <time>2024-09-18T09:46:44Z</time>
      </trkpt>
      <trkpt lat="44.83041" lon="5.45438">
        <ele>1548.34</ele>
        <time>2024-09-18T09:47:01Z</time>
      </trkpt>
      <trkpt lat="44.83055" lon="5.45457">
        <ele>1549.78</ele>
        <time>2024-09-18T09:47:14Z</time>
      </trkpt>
      <trkpt lat="44.83071" lon="5.45474">
        <ele>1552.19</ele>
        <time>2024-09-18T09:47:28Z</time>
      </trkpt>
      <trkpt lat="44.83092" lon="5.45486">
        <ele>1556.03</ele>
        <time>2024-09-18T09:47:44Z</time>
      </trkpt>
      <trkpt lat="44.83111" lon="5.45497">
        <ele>1558.92</ele>
        <time>2024-09-18T09:48:02Z</time>
      </trkpt>
      <trkpt lat="44.83133" lon="5.45509">
        <ele>1559.88</ele>
        <time>2024-09-18T09:48:20Z</time>
      </trkpt>
      <trkpt lat="44.83151" lon="5.45511">
        <ele>1562.76</ele>
        <time>2024-09-18T09:48:35Z</time>
      </trkpt>
      <trkpt lat="44.83153" lon="5.45513">
        <ele>1563.24</ele>
        <time>2024-09-18T09:48:37Z</time>
      </trkpt>
      <trkpt lat="44.83155" lon="5.45514">
        <ele>1563.24</ele>
        <time>2024-09-18T09:48:38Z</time>
      </trkpt>
      <trkpt lat="44.83179" lon="5.45529">
        <ele>1563.72</ele>
        <time>2024-09-18T09:48:52Z</time>
      </trkpt>
      <trkpt lat="44.83194" lon="5.45535">
        <ele>1564.68</ele>
        <time>2024-09-18T09:49:02Z</time>
      </trkpt>
      <trkpt lat="44.83214" lon="5.45559">
        <ele>1564.2</ele>
        <time>2024-09-18T09:49:17Z</time>
      </trkpt>
      <trkpt lat="44.83222" lon="5.45584">
        <ele>1563.72</ele>
        <time>2024-09-18T09:49:28Z</time>
      </trkpt>
      <trkpt lat="44.83234" lon="5.45609">
        <ele>1563.72</ele>
        <time>2024-09-18T09:49:42Z</time>
      </trkpt>
      <trkpt lat="44.83242" lon="5.45636">
        <ele>1563.72</ele>
        <time>2024-09-18T09:49:56Z</time>
      </trkpt>
      <trkpt lat="44.83252" lon="5.45671">
        <ele>1562.28</ele>
        <time>2024-09-18T09:50:10Z</time>
      </trkpt>
      <trkpt lat="44.83265" lon="5.45696">
        <ele>1563.72</ele>
        <time>2024-09-18T09:50:24Z</time>
      </trkpt>
      <trkpt lat="44.83271" lon="5.45725">
        <ele>1563.72</ele>
        <time>2024-09-18T09:50:37Z</time>
      </trkpt>
      <trkpt lat="44.83274" lon="5.45751">
        <ele>1564.68</ele>
        <time>2024-09-18T09:50:50Z</time>
      </trkpt>
      <trkpt lat="44.83275" lon="5.4578">
        <ele>1567.09</ele>
        <time>2024-09-18T09:51:04Z</time>
      </trkpt>
      <trkpt lat="44.83279" lon="5.45808">
        <ele>1568.05</ele>
        <time>2024-09-18T09:51:16Z</time>
      </trkpt>
      <trkpt lat="44.83275" lon="5.45843">
        <ele>1572.37</ele>
        <time>2024-09-18T09:51:31Z</time>
      </trkpt>
      <trkpt lat="44.83271" lon="5.45877">
        <ele>1575.26</ele>
        <time>2024-09-18T09:51:45Z</time>
      </trkpt>
      <trkpt lat="44.83267" lon="5.45906">
        <ele>1575.74</ele>
        <time>2024-09-18T09:52:01Z</time>
      </trkpt>
      <trkpt lat="44.83265" lon="5.45935">
        <ele>1579.58</ele>
        <time>2024-09-18T09:52:14Z</time>
      </trkpt>
      <trkpt lat="44.83265" lon="5.45968">
        <ele>1581.99</ele>
        <time>2024-09-18T09:52:31Z</time>
      </trkpt>
      <trkpt lat="44.83262" lon="5.45998">
        <ele>1583.91</ele>
        <time>2024-09-18T09:52:46Z</time>
      </trkpt>
      <trkpt lat="44.83255" lon="5.46031">
        <ele>1584.87</ele>
        <time>2024-09-18T09:53:02Z</time>
      </trkpt>
      <trkpt lat="44.83249" lon="5.46064">
        <ele>1585.35</ele>
        <time>2024-09-18T09:53:18Z</time>
      </trkpt>
      <trkpt lat="44.83243" lon="5.46086">
        <ele>1586.79</ele>
        <time>2024-09-18T09:53:30Z</time>
      </trkpt>
      <trkpt lat="44.83241" lon="5.46103">
        <ele>1587.75</ele>
        <time>2024-09-18T09:53:41Z</time>
      </trkpt>
      <trkpt lat="44.83233" lon="5.4614">
        <ele>1589.68</ele>
        <time>2024-09-18T09:53:59Z</time>
      </trkpt>
      <trkpt lat="44.83223" lon="5.46169">
        <ele>1591.12</ele>
        <time>2024-09-18T09:54:14Z</time>
      </trkpt>
      <trkpt lat="44.83208" lon="5.46198">
        <ele>1593.52</ele>
        <time>2024-09-18T09:54:28Z</time>
      </trkpt>
      <trkpt lat="44.83199" lon="5.46224">
        <ele>1596.89</ele>
        <time>2024-09-18T09:54:43Z</time>
      </trkpt>
      <trkpt lat="44.83193" lon="5.46254">
        <ele>1600.25</ele>
        <time>2024-09-18T09:54:59Z</time>
      </trkpt>
      <trkpt lat="44.83189" lon="5.4628">
        <ele>1603.14</ele>
        <time>2024-09-18T09:55:15Z</time>
      </trkpt>
      <trkpt lat="44.83182" lon="5.46309">
        <ele>1607.46</ele>
        <time>2024-09-18T09:55:29Z</time>
      </trkpt>
      <trkpt lat="44.83176" lon="5.46333">
        <ele>1610.83</ele>
        <time>2024-09-18T09:55:42Z</time>
      </trkpt>
      <trkpt lat="44.8317" lon="5.46357">
        <ele>1613.23</ele>
        <time>2024-09-18T09:55:56Z</time>
      </trkpt>
      <trkpt lat="44.83161" lon="5.46384">
        <ele>1615.15</ele>
        <time>2024-09-18T09:56:11Z</time>
      </trkpt>
      <trkpt lat="44.83152" lon="5.46412">
        <ele>1617.56</ele>
        <time>2024-09-18T09:56:26Z</time>
      </trkpt>
      <trkpt lat="44.8314" lon="5.46442">
        <ele>1619.48</ele>
        <time>2024-09-18T09:56:42Z</time>
      </trkpt>
      <trkpt lat="44.83135" lon="5.46469">
        <ele>1622.36</ele>
        <time>2024-09-18T09:56:53Z</time>
      </trkpt>
      <trkpt lat="44.83135" lon="5.46497">
        <ele>1626.21</ele>
        <time>2024-09-18T09:57:08Z</time>
      </trkpt>
      <trkpt lat="44.83135" lon="5.46519">
        <ele>1629.57</ele>
        <time>2024-09-18T09:57:23Z</time>
      </trkpt>
      <trkpt lat="44.83134" lon="5.46543">
        <ele>1631.49</ele>
        <time>2024-09-18T09:57:35Z</time>
      </trkpt>
      <trkpt lat="44.83132" lon="5.46556">
        <ele>1633.9</ele>
        <time>2024-09-18T09:57:44Z</time>
      </trkpt>
      <trkpt lat="44.83126" lon="5.46576">
        <ele>1636.78</ele>
        <time>2024-09-18T09:57:57Z</time>
      </trkpt>
      <trkpt lat="44.83122" lon="5.46601">
        <ele>1637.74</ele>
        <time>2024-09-18T09:58:11Z</time>
      </trkpt>
      <trkpt lat="44.83117" lon="5.46629">
        <ele>1638.7</ele>
        <time>2024-09-18T09:58:25Z</time>
      </trkpt>
      <trkpt lat="44.83118" lon="5.4665">
        <ele>1640.15</ele>
        <time>2024-09-18T09:58:38Z</time>
      </trkpt>
      <trkpt lat="44.83118" lon="5.46657">
        <ele>1639.19</ele>
        <time>2024-09-18T09:58:57Z</time>
      </trkpt>
      <trkpt lat="44.83116" lon="5.46683">
        <ele>1640.63</ele>
        <time>2024-09-18T09:59:13Z</time>
      </trkpt>
      <trkpt lat="44.83118" lon="5.46685">
        <ele>1640.63</ele>
        <time>2024-09-18T09:59:14Z</time>
      </trkpt>
      <trkpt lat="44.83118" lon="5.46687">
        <ele>1640.63</ele>
        <time>2024-09-18T09:59:15Z</time>
      </trkpt>
      <trkpt lat="44.83119" lon="5.46689">
        <ele>1641.11</ele>
        <time>2024-09-18T09:59:16Z</time>
      </trkpt>
      <trkpt lat="44.83113" lon="5.4672">
        <ele>1645.91</ele>
        <time>2024-09-18T09:59:35Z</time>
      </trkpt>
      <trkpt lat="44.83107" lon="5.46738">
        <ele>1648.32</ele>
        <time>2024-09-18T09:59:47Z</time>
      </trkpt>
      <trkpt lat="44.83105" lon="5.46744">
        <ele>1648.8</ele>
        <time>2024-09-18T09:59:51Z</time>
      </trkpt>
      <trkpt lat="44.83105" lon="5.46746">
        <ele>1649.28</ele>
        <time>2024-09-18T09:59:52Z</time>
      </trkpt>
      <trkpt lat="44.83104" lon="5.46749">
        <ele>1649.28</ele>
        <time>2024-09-18T09:59:53Z</time>
      </trkpt>
      <trkpt lat="44.83104" lon="5.46751">
        <ele>1649.28</ele>
        <time>2024-09-18T09:59:54Z</time>
      </trkpt>
      <trkpt lat="44.83103" lon="5.46752">
        <ele>1649.76</ele>
        <time>2024-09-18T09:59:55Z</time>
      </trkpt>
      <trkpt lat="44.83103" lon="5.46754">
        <ele>1649.76</ele>
        <time>2024-09-18T09:59:56Z</time>
      </trkpt>
      <trkpt lat="44.83103" lon="5.46756">
        <ele>1649.76</ele>
        <time>2024-09-18T09:59:57Z</time>
      </trkpt>
      <trkpt lat="44.83102" lon="5.46757">
        <ele>1649.76</ele>
        <time>2024-09-18T09:59:58Z</time>
      </trkpt>
      <trkpt lat="44.83095" lon="5.46781">
        <ele>1651.2</ele>
        <time>2024-09-18T10:00:11Z</time>
      </trkpt>
      <trkpt lat="44.83087" lon="5.46809">
        <ele>1655.53</ele>
        <time>2024-09-18T10:00:28Z</time>
      </trkpt>
      <trkpt lat="44.83086" lon="5.4681">
        <ele>1656.01</ele>
        <time>2024-09-18T10:00:29Z</time>
      </trkpt>
      <trkpt lat="44.83085" lon="5.46813">
        <ele>1656.01</ele>
        <time>2024-09-18T10:00:31Z</time>
      </trkpt>
      <trkpt lat="44.83078" lon="5.46838">
        <ele>1658.89</ele>
        <time>2024-09-18T10:00:44Z</time>
      </trkpt>
      <trkpt lat="44.83076" lon="5.46859">
        <ele>1662.26</ele>
        <time>2024-09-18T10:00:58Z</time>
      </trkpt>
      <trkpt lat="44.83075" lon="5.46861">
        <ele>1662.74</ele>
        <time>2024-09-18T10:00:59Z</time>
      </trkpt>
      <trkpt lat="44.83075" lon="5.46862">
        <ele>1663.22</ele>
        <time>2024-09-18T10:01:00Z</time>
      </trkpt>
      <trkpt lat="44.83074" lon="5.46863">
        <ele>1663.22</ele>
        <time>2024-09-18T10:01:01Z</time>
      </trkpt>
      <trkpt lat="44.83073" lon="5.46865">
        <ele>1663.7</ele>
        <time>2024-09-18T10:01:02Z</time>
      </trkpt>
      <trkpt lat="44.83062" lon="5.46888">
        <ele>1663.7</ele>
        <time>2024-09-18T10:01:18Z</time>
      </trkpt>
      <trkpt lat="44.83055" lon="5.46914">
        <ele>1664.66</ele>
        <time>2024-09-18T10:01:30Z</time>
      </trkpt>
      <trkpt lat="44.83048" lon="5.46937">
        <ele>1664.18</ele>
        <time>2024-09-18T10:01:47Z</time>
      </trkpt>
      <trkpt lat="44.83048" lon="5.4694">
        <ele>1664.18</ele>
        <time>2024-09-18T10:01:48Z</time>
      </trkpt>
      <trkpt lat="44.83047" lon="5.46954">
        <ele>1664.66</ele>
        <time>2024-09-18T10:01:54Z</time>
      </trkpt>
      <trkpt lat="44.83047" lon="5.46958">
        <ele>1664.66</ele>
        <time>2024-09-18T10:01:56Z</time>
      </trkpt>
      <trkpt lat="44.83039" lon="5.46984">
        <ele>1664.66</ele>
        <time>2024-09-18T10:02:10Z</time>
      </trkpt>
      <trkpt lat="44.83027" lon="5.47004">
        <ele>1664.66</ele>
        <time>2024-09-18T10:02:25Z</time>
      </trkpt>
      <trkpt lat="44.8302" lon="5.47027">
        <ele>1666.1</ele>
        <time>2024-09-18T10:02:42Z</time>
      </trkpt>
      <trkpt lat="44.83015" lon="5.47051">
        <ele>1668.51</ele>
        <time>2024-09-18T10:02:55Z</time>
      </trkpt>
      <trkpt lat="44.83015" lon="5.47054">
        <ele>1668.51</ele>
        <time>2024-09-18T10:02:56Z</time>
      </trkpt>
      <trkpt lat="44.83015" lon="5.47062">
        <ele>1668.99</ele>
        <time>2024-09-18T10:03:00Z</time>
      </trkpt>
      <trkpt lat="44.83016" lon="5.47064">
        <ele>1668.99</ele>
        <time>2024-09-18T10:03:01Z</time>
      </trkpt>
      <trkpt lat="44.83016" lon="5.47066">
        <ele>1668.51</ele>
        <time>2024-09-18T10:03:02Z</time>
      </trkpt>
      <trkpt lat="44.83016" lon="5.47099">
        <ele>1665.14</ele>
        <time>2024-09-18T10:03:18Z</time>
      </trkpt>
      <trkpt lat="44.83018" lon="5.47125">
        <ele>1661.78</ele>
        <time>2024-09-18T10:03:30Z</time>
      </trkpt>
      <trkpt lat="44.83019" lon="5.47141">
        <ele>1660.81</ele>
        <time>2024-09-18T10:03:39Z</time>
      </trkpt>
      <trkpt lat="44.83018" lon="5.47169">
        <ele>1659.37</ele>
        <time>2024-09-18T10:03:53Z</time>
      </trkpt>
      <trkpt lat="44.83011" lon="5.47174">
        <ele>1659.85</ele>
        <time>2024-09-18T10:03:59Z</time>
      </trkpt>
      <trkpt lat="44.8301" lon="5.47175">
        <ele>1659.85</ele>
        <time>2024-09-18T10:04:00Z</time>
      </trkpt>
      <trkpt lat="44.83009" lon="5.47176">
        <ele>1659.85</ele>
        <time>2024-09-18T10:04:01Z</time>
      </trkpt>
      <trkpt lat="44.83008" lon="5.47177">
        <ele>1659.85</ele>
        <time>2024-09-18T10:04:02Z</time>
      </trkpt>
      <trkpt lat="44.83008" lon="5.47179">
        <ele>1659.85</ele>
        <time>2024-09-18T10:04:03Z</time>
      </trkpt>
      <trkpt lat="44.83007" lon="5.47181">
        <ele>1660.33</ele>
        <time>2024-09-18T10:04:04Z</time>
      </trkpt>
      <trkpt lat="44.83007" lon="5.47182">
        <ele>1660.33</ele>
        <time>2024-09-18T10:04:05Z</time>
      </trkpt>
      <trkpt lat="44.82998" lon="5.47212">
        <ele>1662.26</ele>
        <time>2024-09-18T10:04:23Z</time>
      </trkpt>
      <trkpt lat="44.82984" lon="5.47247">
        <ele>1660.81</ele>
        <time>2024-09-18T10:04:42Z</time>
      </trkpt>
      <trkpt lat="44.82968" lon="5.47288">
        <ele>1661.78</ele>
        <time>2024-09-18T10:05:04Z</time>
      </trkpt>
      <trkpt lat="44.82965" lon="5.47323">
        <ele>1660.33</ele>
        <time>2024-09-18T10:05:21Z</time>
      </trkpt>
      <trkpt lat="44.82968" lon="5.47355">
        <ele>1657.45</ele>
        <time>2024-09-18T10:05:36Z</time>
      </trkpt>
      <trkpt lat="44.82969" lon="5.47381">
        <ele>1655.05</ele>
        <time>2024-09-18T10:05:50Z</time>
      </trkpt>
      <trkpt lat="44.8298" lon="5.47403">
        <ele>1653.6</ele>
        <time>2024-09-18T10:06:04Z</time>
      </trkpt>
      <trkpt lat="44.82981" lon="5.47403">
        <ele>1653.12</ele>
        <time>2024-09-18T10:06:05Z</time>
      </trkpt>
      <trkpt lat="44.82983" lon="5.47404">
        <ele>1653.12</ele>
        <time>2024-09-18T10:06:06Z</time>
      </trkpt>
      <trkpt lat="44.83001" lon="5.47411">
        <ele>1652.64</ele>
        <time>2024-09-18T10:06:19Z</time>
      </trkpt>
      <trkpt lat="44.83019" lon="5.47423">
        <ele>1653.6</ele>
        <time>2024-09-18T10:06:32Z</time>
      </trkpt>
      <trkpt lat="44.8302" lon="5.47424">
        <ele>1653.6</ele>
        <time>2024-09-18T10:06:33Z</time>
      </trkpt>
      <trkpt lat="44.83021" lon="5.47425">
        <ele>1653.6</ele>
        <time>2024-09-18T10:06:34Z</time>
      </trkpt>
      <trkpt lat="44.83037" lon="5.47444">
        <ele>1650.72</ele>
        <time>2024-09-18T10:06:49Z</time>
      </trkpt>
      <trkpt lat="44.83053" lon="5.47464">
        <ele>1650.72</ele>
        <time>2024-09-18T10:07:04Z</time>
      </trkpt>
      <trkpt lat="44.83064" lon="5.4748">
        <ele>1649.28</ele>
        <time>2024-09-18T10:07:16Z</time>
      </trkpt>
      <trkpt lat="44.8307" lon="5.47506">
        <ele>1645.43</ele>
        <time>2024-09-18T10:07:31Z</time>
      </trkpt>
      <trkpt lat="44.83071" lon="5.47508">
        <ele>1645.43</ele>
        <time>2024-09-18T10:07:32Z</time>
      </trkpt>
      <trkpt lat="44.83095" lon="5.4753">
        <ele>1641.11</ele>
        <time>2024-09-18T10:07:51Z</time>
      </trkpt>
      <trkpt lat="44.83106" lon="5.47559">
        <ele>1638.22</ele>
        <time>2024-09-18T10:08:08Z</time>
      </trkpt>
      <trkpt lat="44.83112" lon="5.47594">
        <ele>1640.15</ele>
        <time>2024-09-18T10:08:25Z</time>
      </trkpt>
      <trkpt lat="44.83125" lon="5.47612">
        <ele>1636.78</ele>
        <time>2024-09-18T10:08:38Z</time>
      </trkpt>
      <trkpt lat="44.83139" lon="5.47637">
        <ele>1634.38</ele>
        <time>2024-09-18T10:08:53Z</time>
      </trkpt>
      <trkpt lat="44.8315" lon="5.47655">
        <ele>1634.86</ele>
        <time>2024-09-18T10:09:06Z</time>
      </trkpt>
      <trkpt lat="44.83163" lon="5.47678">
        <ele>1632.94</ele>
        <time>2024-09-18T10:09:22Z</time>
      </trkpt>
      <trkpt lat="44.83189" lon="5.477">
        <ele>1630.05</ele>
        <time>2024-09-18T10:09:42Z</time>
      </trkpt>
      <trkpt lat="44.8321" lon="5.47718">
        <ele>1626.69</ele>
        <time>2024-09-18T10:09:59Z</time>
      </trkpt>
      <trkpt lat="44.83233" lon="5.47732">
        <ele>1627.17</ele>
        <time>2024-09-18T10:10:15Z</time>
      </trkpt>
      <trkpt lat="44.83249" lon="5.47738">
        <ele>1626.69</ele>
        <time>2024-09-18T10:10:26Z</time>
      </trkpt>
      <trkpt lat="44.83271" lon="5.47733">
        <ele>1625.25</ele>
        <time>2024-09-18T10:10:41Z</time>
      </trkpt>
      <trkpt lat="44.83272" lon="5.47733">
        <ele>1625.25</ele>
        <time>2024-09-18T10:10:42Z</time>
      </trkpt>
      <trkpt lat="44.83273" lon="5.47735">
        <ele>1624.77</ele>
        <time>2024-09-18T10:10:43Z</time>
      </trkpt>
      <trkpt lat="44.83274" lon="5.47737">
        <ele>1624.77</ele>
        <time>2024-09-18T10:10:44Z</time>
      </trkpt>
      <trkpt lat="44.83275" lon="5.47738">
        <ele>1624.77</ele>
        <time>2024-09-18T10:10:45Z</time>
      </trkpt>
      <trkpt lat="44.83278" lon="5.47745">
        <ele>1626.69</ele>
        <time>2024-09-18T10:10:49Z</time>
      </trkpt>
      <trkpt lat="44.83278" lon="5.47747">
        <ele>1626.69</ele>
        <time>2024-09-18T10:10:50Z</time>
      </trkpt>
      <trkpt lat="44.83279" lon="5.47748">
        <ele>1626.21</ele>
        <time>2024-09-18T10:10:51Z</time>
      </trkpt>
      <trkpt lat="44.83279" lon="5.4775">
        <ele>1626.21</ele>
        <time>2024-09-18T10:10:52Z</time>
      </trkpt>
      <trkpt lat="44.8328" lon="5.47752">
        <ele>1626.21</ele>
        <time>2024-09-18T10:10:53Z</time>
      </trkpt>
      <trkpt lat="44.8328" lon="5.47754">
        <ele>1626.21</ele>
        <time>2024-09-18T10:10:54Z</time>
      </trkpt>
      <trkpt lat="44.83293" lon="5.47787">
        <ele>1625.73</ele>
        <time>2024-09-18T10:11:13Z</time>
      </trkpt>
      <trkpt lat="44.83299" lon="5.4782">
        <ele>1627.65</ele>
        <time>2024-09-18T10:11:31Z</time>
      </trkpt>
      <trkpt lat="44.83312" lon="5.47849">
        <ele>1624.28</ele>
        <time>2024-09-18T10:11:45Z</time>
      </trkpt>
      <trkpt lat="44.83323" lon="5.47878">
        <ele>1620.92</ele>
        <time>2024-09-18T10:12:00Z</time>
      </trkpt>
      <trkpt lat="44.83323" lon="5.47907">
        <ele>1621.4</ele>
        <time>2024-09-18T10:12:15Z</time>
      </trkpt>
      <trkpt lat="44.83314" lon="5.47946">
        <ele>1622.84</ele>
        <time>2024-09-18T10:12:31Z</time>
      </trkpt>
      <trkpt lat="44.83315" lon="5.4798">
        <ele>1622.84</ele>
        <time>2024-09-18T10:12:47Z</time>
      </trkpt>
      <trkpt lat="44.83319" lon="5.48011">
        <ele>1622.84</ele>
        <time>2024-09-18T10:13:02Z</time>
      </trkpt>
      <trkpt lat="44.83342" lon="5.48033">
        <ele>1621.4</ele>
        <time>2024-09-18T10:13:15Z</time>
      </trkpt>
      <trkpt lat="44.8336" lon="5.48054">
        <ele>1621.4</ele>
        <time>2024-09-18T10:13:29Z</time>
      </trkpt>
      <trkpt lat="44.83375" lon="5.48073">
        <ele>1621.4</ele>
        <time>2024-09-18T10:13:42Z</time>
      </trkpt>
      <trkpt lat="44.83391" lon="5.481">
        <ele>1620.44</ele>
        <time>2024-09-18T10:13:56Z</time>
      </trkpt>
      <trkpt lat="44.834" lon="5.48125">
        <ele>1623.8</ele>
        <time>2024-09-18T10:14:11Z</time>
      </trkpt>
      <trkpt lat="44.83403" lon="5.4816">
        <ele>1626.69</ele>
        <time>2024-09-18T10:14:25Z</time>
      </trkpt>
      <trkpt lat="44.83412" lon="5.4817">
        <ele>1627.65</ele>
        <time>2024-09-18T10:14:32Z</time>
      </trkpt>
      <trkpt lat="44.83431" lon="5.48169">
        <ele>1630.05</ele>
        <time>2024-09-18T10:14:48Z</time>
      </trkpt>
      <trkpt lat="44.83454" lon="5.48165">
        <ele>1629.09</ele>
        <time>2024-09-18T10:15:00Z</time>
      </trkpt>
      <trkpt lat="44.83475" lon="5.48159">
        <ele>1628.61</ele>
        <time>2024-09-18T10:15:15Z</time>
      </trkpt>
      <trkpt lat="44.83495" lon="5.48151">
        <ele>1626.69</ele>
        <time>2024-09-18T10:15:28Z</time>
      </trkpt>
      <trkpt lat="44.83518" lon="5.48145">
        <ele>1624.28</ele>
        <time>2024-09-18T10:15:41Z</time>
      </trkpt>
      <trkpt lat="44.83543" lon="5.48137">
        <ele>1620.44</ele>
        <time>2024-09-18T10:15:58Z</time>
      </trkpt>
      <trkpt lat="44.83569" lon="5.48139">
        <ele>1618.04</ele>
        <time>2024-09-18T10:16:16Z</time>
      </trkpt>
      <trkpt lat="44.8359" lon="5.48144">
        <ele>1618.04</ele>
        <time>2024-09-18T10:16:30Z</time>
      </trkpt>
      <trkpt lat="44.83611" lon="5.48147">
        <ele>1617.07</ele>
        <time>2024-09-18T10:16:44Z</time>
      </trkpt>
      <trkpt lat="44.8363" lon="5.48157">
        <ele>1616.59</ele>
        <time>2024-09-18T10:16:58Z</time>
      </trkpt>
      <trkpt lat="44.83655" lon="5.48167">
        <ele>1616.11</ele>
        <time>2024-09-18T10:17:14Z</time>
      </trkpt>
      <trkpt lat="44.83676" lon="5.48182">
        <ele>1616.59</ele>
        <time>2024-09-18T10:17:30Z</time>
      </trkpt>
      <trkpt lat="44.83702" lon="5.4819">
        <ele>1616.59</ele>
        <time>2024-09-18T10:17:48Z</time>
      </trkpt>
      <trkpt lat="44.83725" lon="5.48189">
        <ele>1616.59</ele>
        <time>2024-09-18T10:18:05Z</time>
      </trkpt>
      <trkpt lat="44.83748" lon="5.48185">
        <ele>1618.52</ele>
        <time>2024-09-18T10:18:21Z</time>
      </trkpt>
      <trkpt lat="44.8376" lon="5.48187">
        <ele>1620.44</ele>
        <time>2024-09-18T10:18:29Z</time>
      </trkpt>
      <trkpt lat="44.83761" lon="5.48186">
        <ele>1620.44</ele>
        <time>2024-09-18T10:18:30Z</time>
      </trkpt>
      <trkpt lat="44.83787" lon="5.48189">
        <ele>1622.84</ele>
        <time>2024-09-18T10:18:48Z</time>
      </trkpt>
      <trkpt lat="44.83806" lon="5.48205">
        <ele>1623.32</ele>
        <time>2024-09-18T10:19:01Z</time>
      </trkpt>
      <trkpt lat="44.8383" lon="5.48204">
        <ele>1616.11</ele>
        <time>2024-09-18T10:19:16Z</time>
      </trkpt>
      <trkpt lat="44.83848" lon="5.48209">
        <ele>1611.31</ele>
        <time>2024-09-18T10:19:30Z</time>
      </trkpt>
      <trkpt lat="44.83872" lon="5.4823">
        <ele>1613.23</ele>
        <time>2024-09-18T10:19:46Z</time>
      </trkpt>
      <trkpt lat="44.83895" lon="5.48247">
        <ele>1618.04</ele>
        <time>2024-09-18T10:20:03Z</time>
      </trkpt>
      <trkpt lat="44.83916" lon="5.48263">
        <ele>1619.48</ele>
        <time>2024-09-18T10:20:19Z</time>
      </trkpt>
      <trkpt lat="44.83938" lon="5.48279">
        <ele>1616.59</ele>
        <time>2024-09-18T10:20:35Z</time>
      </trkpt>
      <trkpt lat="44.83961" lon="5.48291">
        <ele>1615.63</ele>
        <time>2024-09-18T10:20:53Z</time>
      </trkpt>
      <trkpt lat="44.83985" lon="5.48306">
        <ele>1617.07</ele>
        <time>2024-09-18T10:21:10Z</time>
      </trkpt>
      <trkpt lat="44.83986" lon="5.48307">
        <ele>1616.59</ele>
        <time>2024-09-18T10:21:11Z</time>
      </trkpt>
      <trkpt lat="44.83987" lon="5.48308">
        <ele>1616.59</ele>
        <time>2024-09-18T10:21:12Z</time>
      </trkpt>
      <trkpt lat="44.83988" lon="5.48309">
        <ele>1616.11</ele>
        <time>2024-09-18T10:21:13Z</time>
      </trkpt>
      <trkpt lat="44.83989" lon="5.4831">
        <ele>1616.11</ele>
        <time>2024-09-18T10:21:14Z</time>
      </trkpt>
      <trkpt lat="44.8399" lon="5.48311">
        <ele>1616.11</ele>
        <time>2024-09-18T10:21:15Z</time>
      </trkpt>
      <trkpt lat="44.83991" lon="5.48312">
        <ele>1616.11</ele>
        <time>2024-09-18T10:21:16Z</time>
      </trkpt>
      <trkpt lat="44.83992" lon="5.48313">
        <ele>1616.11</ele>
        <time>2024-09-18T10:21:17Z</time>
      </trkpt>
      <trkpt lat="44.83993" lon="5.48315">
        <ele>1616.11</ele>
        <time>2024-09-18T10:21:18Z</time>
      </trkpt>
      <trkpt lat="44.84009" lon="5.48329">
        <ele>1616.11</ele>
        <time>2024-09-18T10:21:32Z</time>
      </trkpt>
      <trkpt lat="44.84026" lon="5.48332">
        <ele>1613.71</ele>
        <time>2024-09-18T10:21:45Z</time>
      </trkpt>
      <trkpt lat="44.84046" lon="5.48343">
        <ele>1611.79</ele>
        <time>2024-09-18T10:22:00Z</time>
      </trkpt>
      <trkpt lat="44.84059" lon="5.48355">
        <ele>1607.94</ele>
        <time>2024-09-18T10:22:12Z</time>
      </trkpt>
      <trkpt lat="44.8408" lon="5.4835">
        <ele>1607.46</ele>
        <time>2024-09-18T10:22:27Z</time>
      </trkpt>
      <trkpt lat="44.84089" lon="5.4835">
        <ele>1607.94</ele>
        <time>2024-09-18T10:22:34Z</time>
      </trkpt>
      <trkpt lat="44.8409" lon="5.48349">
        <ele>1607.46</ele>
        <time>2024-09-18T10:22:35Z</time>
      </trkpt>
      <trkpt lat="44.84092" lon="5.48348">
        <ele>1607.46</ele>
        <time>2024-09-18T10:22:36Z</time>
      </trkpt>
      <trkpt lat="44.84093" lon="5.48348">
        <ele>1606.98</ele>
        <time>2024-09-18T10:22:37Z</time>
      </trkpt>
      <trkpt lat="44.84094" lon="5.48346">
        <ele>1606.5</ele>
        <time>2024-09-18T10:22:38Z</time>
      </trkpt>
      <trkpt lat="44.84096" lon="5.48345">
        <ele>1606.5</ele>
        <time>2024-09-18T10:22:39Z</time>
      </trkpt>
      <trkpt lat="44.84097" lon="5.48344">
        <ele>1606.02</ele>
        <time>2024-09-18T10:22:40Z</time>
      </trkpt>
      <trkpt lat="44.84098" lon="5.48343">
        <ele>1605.54</ele>
        <time>2024-09-18T10:22:41Z</time>
      </trkpt>
      <trkpt lat="44.84099" lon="5.48341">
        <ele>1605.06</ele>
        <time>2024-09-18T10:22:42Z</time>
      </trkpt>
      <trkpt lat="44.84104" lon="5.48337">
        <ele>1604.1</ele>
        <time>2024-09-18T10:22:47Z</time>
      </trkpt>
      <trkpt lat="44.84105" lon="5.48338">
        <ele>1603.62</ele>
        <time>2024-09-18T10:22:48Z</time>
      </trkpt>
      <trkpt lat="44.84106" lon="5.48339">
        <ele>1603.14</ele>
        <time>2024-09-18T10:22:49Z</time>
      </trkpt>
      <trkpt lat="44.84107" lon="5.48341">
        <ele>1602.66</ele>
        <time>2024-09-18T10:22:50Z</time>
      </trkpt>
      <trkpt lat="44.84108" lon="5.48342">
        <ele>1602.17</ele>
        <time>2024-09-18T10:22:51Z</time>
      </trkpt>
      <trkpt lat="44.84109" lon="5.48344">
        <ele>1601.69</ele>
        <time>2024-09-18T10:22:52Z</time>
      </trkpt>
      <trkpt lat="44.84119" lon="5.48351">
        <ele>1599.77</ele>
        <time>2024-09-18T10:23:01Z</time>
      </trkpt>
      <trkpt lat="44.84121" lon="5.48351">
        <ele>1599.29</ele>
        <time>2024-09-18T10:23:02Z</time>
      </trkpt>
      <trkpt lat="44.84142" lon="5.48365">
        <ele>1599.29</ele>
        <time>2024-09-18T10:23:17Z</time>
      </trkpt>
      <trkpt lat="44.84148" lon="5.48367">
        <ele>1597.85</ele>
        <time>2024-09-18T10:23:23Z</time>
      </trkpt>
      <trkpt lat="44.8415" lon="5.48366">
        <ele>1597.85</ele>
        <time>2024-09-18T10:23:24Z</time>
      </trkpt>
      <trkpt lat="44.84151" lon="5.48365">
        <ele>1597.37</ele>
        <time>2024-09-18T10:23:25Z</time>
      </trkpt>
      <trkpt lat="44.84157" lon="5.48364">
        <ele>1597.37</ele>
        <time>2024-09-18T10:23:30Z</time>
      </trkpt>
      <trkpt lat="44.84158" lon="5.48364">
        <ele>1597.37</ele>
        <time>2024-09-18T10:23:31Z</time>
      </trkpt>
      <trkpt lat="44.84162" lon="5.48363">
        <ele>1597.85</ele>
        <time>2024-09-18T10:23:34Z</time>
      </trkpt>
      <trkpt lat="44.84184" lon="5.48357">
        <ele>1595.45</ele>
        <time>2024-09-18T10:23:50Z</time>
      </trkpt>
      <trkpt lat="44.84206" lon="5.4836">
        <ele>1593.52</ele>
        <time>2024-09-18T10:24:06Z</time>
      </trkpt>
      <trkpt lat="44.8422" lon="5.48363">
        <ele>1591.6</ele>
        <time>2024-09-18T10:24:18Z</time>
      </trkpt>
      <trkpt lat="44.84224" lon="5.48363">
        <ele>1591.12</ele>
        <time>2024-09-18T10:24:21Z</time>
      </trkpt>
      <trkpt lat="44.84226" lon="5.48363">
        <ele>1591.12</ele>
        <time>2024-09-18T10:24:22Z</time>
      </trkpt>
      <trkpt lat="44.84227" lon="5.48364">
        <ele>1591.12</ele>
        <time>2024-09-18T10:24:23Z</time>
      </trkpt>
      <trkpt lat="44.84233" lon="5.48369">
        <ele>1590.64</ele>
        <time>2024-09-18T10:24:28Z</time>
      </trkpt>
      <trkpt lat="44.84239" lon="5.48374">
        <ele>1590.16</ele>
        <time>2024-09-18T10:24:33Z</time>
      </trkpt>
      <trkpt lat="44.8424" lon="5.48375">
        <ele>1589.68</ele>
        <time>2024-09-18T10:24:34Z</time>
      </trkpt>
      <trkpt lat="44.84241" lon="5.48377">
        <ele>1589.68</ele>
        <time>2024-09-18T10:24:35Z</time>
      </trkpt>
      <trkpt lat="44.84243" lon="5.48377">
        <ele>1589.68</ele>
        <time>2024-09-18T10:24:36Z</time>
      </trkpt>
      <trkpt lat="44.84258" lon="5.4839">
        <ele>1587.27</ele>
        <time>2024-09-18T10:24:49Z</time>
      </trkpt>
      <trkpt lat="44.84277" lon="5.48403">
        <ele>1585.83</ele>
        <time>2024-09-18T10:25:04Z</time>
      </trkpt>
      <trkpt lat="44.84293" lon="5.48412">
        <ele>1583.91</ele>
        <time>2024-09-18T10:25:17Z</time>
      </trkpt>
      <trkpt lat="44.84311" lon="5.48423">
        <ele>1582.47</ele>
        <time>2024-09-18T10:25:31Z</time>
      </trkpt>
      <trkpt lat="44.84317" lon="5.48427">
        <ele>1582.47</ele>
        <time>2024-09-18T10:25:35Z</time>
      </trkpt>
      <trkpt lat="44.84318" lon="5.48428">
        <ele>1582.47</ele>
        <time>2024-09-18T10:25:36Z</time>
      </trkpt>
      <trkpt lat="44.8432" lon="5.48428">
        <ele>1582.47</ele>
        <time>2024-09-18T10:25:37Z</time>
      </trkpt>
      <trkpt lat="44.84321" lon="5.48428">
        <ele>1582.47</ele>
        <time>2024-09-18T10:25:38Z</time>
      </trkpt>
      <trkpt lat="44.84323" lon="5.48427">
        <ele>1582.47</ele>
        <time>2024-09-18T10:25:39Z</time>
      </trkpt>
      <trkpt lat="44.84325" lon="5.48427">
        <ele>1582.47</ele>
        <time>2024-09-18T10:25:40Z</time>
      </trkpt>
      <trkpt lat="44.84326" lon="5.48426">
        <ele>1581.99</ele>
        <time>2024-09-18T10:25:41Z</time>
      </trkpt>
      <trkpt lat="44.84327" lon="5.48425">
        <ele>1581.99</ele>
        <time>2024-09-18T10:25:42Z</time>
      </trkpt>
      <trkpt lat="44.84332" lon="5.48427">
        <ele>1582.47</ele>
        <time>2024-09-18T10:25:47Z</time>
      </trkpt>
      <trkpt lat="44.84333" lon="5.48428">
        <ele>1582.47</ele>
        <time>2024-09-18T10:25:48Z</time>
      </trkpt>
      <trkpt lat="44.84334" lon="5.48429">
        <ele>1582.95</ele>
        <time>2024-09-18T10:25:49Z</time>
      </trkpt>
      <trkpt lat="44.84336" lon="5.48432">
        <ele>1582.95</ele>
        <time>2024-09-18T10:25:51Z</time>
      </trkpt>
      <trkpt lat="44.84339" lon="5.48433">
        <ele>1582.95</ele>
        <time>2024-09-18T10:25:53Z</time>
      </trkpt>
      <trkpt lat="44.8434" lon="5.48433">
        <ele>1582.47</ele>
        <time>2024-09-18T10:25:54Z</time>
      </trkpt>
      <trkpt lat="44.84362" lon="5.48435">
        <ele>1581.03</ele>
        <time>2024-09-18T10:26:09Z</time>
      </trkpt>
      <trkpt lat="44.84371" lon="5.48437">
        <ele>1580.54</ele>
        <time>2024-09-18T10:26:18Z</time>
      </trkpt>
      <trkpt lat="44.84371" lon="5.48439">
        <ele>1580.54</ele>
        <time>2024-09-18T10:26:19Z</time>
      </trkpt>
      <trkpt lat="44.84372" lon="5.4844">
        <ele>1580.54</ele>
        <time>2024-09-18T10:26:20Z</time>
      </trkpt>
      <trkpt lat="44.84373" lon="5.48442">
        <ele>1580.54</ele>
        <time>2024-09-18T10:26:21Z</time>
      </trkpt>
      <trkpt lat="44.84374" lon="5.48443">
        <ele>1580.54</ele>
        <time>2024-09-18T10:26:22Z</time>
      </trkpt>
      <trkpt lat="44.84393" lon="5.48455">
        <ele>1580.06</ele>
        <time>2024-09-18T10:26:36Z</time>
      </trkpt>
      <trkpt lat="44.84409" lon="5.4846">
        <ele>1576.7</ele>
        <time>2024-09-18T10:26:51Z</time>
      </trkpt>
      <trkpt lat="44.84414" lon="5.4846">
        <ele>1575.26</ele>
        <time>2024-09-18T10:26:56Z</time>
      </trkpt>
      <trkpt lat="44.84423" lon="5.48459">
        <ele>1573.82</ele>
        <time>2024-09-18T10:27:03Z</time>
      </trkpt>
      <trkpt lat="44.84437" lon="5.48473">
        <ele>1572.85</ele>
        <time>2024-09-18T10:27:15Z</time>
      </trkpt>
      <trkpt lat="44.84438" lon="5.48474">
        <ele>1572.85</ele>
        <time>2024-09-18T10:27:16Z</time>
      </trkpt>
      <trkpt lat="44.84442" lon="5.48476">
        <ele>1572.37</ele>
        <time>2024-09-18T10:27:19Z</time>
      </trkpt>
      <trkpt lat="44.84443" lon="5.48477">
        <ele>1572.37</ele>
        <time>2024-09-18T10:27:20Z</time>
      </trkpt>
      <trkpt lat="44.84445" lon="5.48478">
        <ele>1572.37</ele>
        <time>2024-09-18T10:27:21Z</time>
      </trkpt>
      <trkpt lat="44.84446" lon="5.48478">
        <ele>1572.37</ele>
        <time>2024-09-18T10:27:22Z</time>
      </trkpt>
      <trkpt lat="44.84448" lon="5.48479">
        <ele>1572.37</ele>
        <time>2024-09-18T10:27:23Z</time>
      </trkpt>
      <trkpt lat="44.84458" lon="5.48486">
        <ele>1570.93</ele>
        <time>2024-09-18T10:27:31Z</time>
      </trkpt>
      <trkpt lat="44.8446" lon="5.48486">
        <ele>1570.45</ele>
        <time>2024-09-18T10:27:32Z</time>
      </trkpt>
      <trkpt lat="44.84461" lon="5.48487">
        <ele>1570.45</ele>
        <time>2024-09-18T10:27:33Z</time>
      </trkpt>
      <trkpt lat="44.84486" lon="5.48496">
        <ele>1571.41</ele>
        <time>2024-09-18T10:27:51Z</time>
      </trkpt>
      <trkpt lat="44.8449" lon="5.48496">
        <ele>1571.41</ele>
        <time>2024-09-18T10:27:55Z</time>
      </trkpt>
      <trkpt lat="44.84506" lon="5.4852">
        <ele>1575.74</ele>
        <time>2024-09-18T10:28:13Z</time>
      </trkpt>
      <trkpt lat="44.84519" lon="5.48529">
        <ele>1575.26</ele>
        <time>2024-09-18T10:28:23Z</time>
      </trkpt>
      <trkpt lat="44.84542" lon="5.48519">
        <ele>1574.3</ele>
        <time>2024-09-18T10:28:40Z</time>
      </trkpt>
      <trkpt lat="44.84545" lon="5.48517">
        <ele>1573.82</ele>
        <time>2024-09-18T10:28:43Z</time>
      </trkpt>
      <trkpt lat="44.84562" lon="5.48516">
        <ele>1571.41</ele>
        <time>2024-09-18T10:28:58Z</time>
      </trkpt>
      <trkpt lat="44.84565" lon="5.48513">
        <ele>1572.37</ele>
        <time>2024-09-18T10:29:02Z</time>
      </trkpt>
      <trkpt lat="44.84569" lon="5.48513">
        <ele>1572.37</ele>
        <time>2024-09-18T10:29:05Z</time>
      </trkpt>
      <trkpt lat="44.84571" lon="5.48514">
        <ele>1571.89</ele>
        <time>2024-09-18T10:29:06Z</time>
      </trkpt>
      <trkpt lat="44.8459" lon="5.48526">
        <ele>1574.3</ele>
        <time>2024-09-18T10:29:22Z</time>
      </trkpt>
      <trkpt lat="44.84609" lon="5.48526">
        <ele>1580.06</ele>
        <time>2024-09-18T10:29:38Z</time>
      </trkpt>
      <trkpt lat="44.84617" lon="5.48523">
        <ele>1580.06</ele>
        <time>2024-09-18T10:29:44Z</time>
      </trkpt>
      <trkpt lat="44.84619" lon="5.48523">
        <ele>1580.06</ele>
        <time>2024-09-18T10:29:45Z</time>
      </trkpt>
      <trkpt lat="44.84642" lon="5.48519">
        <ele>1578.62</ele>
        <time>2024-09-18T10:30:01Z</time>
      </trkpt>
      <trkpt lat="44.84661" lon="5.4851">
        <ele>1579.1</ele>
        <time>2024-09-18T10:30:17Z</time>
      </trkpt>
      <trkpt lat="44.84684" lon="5.48503">
        <ele>1579.1</ele>
        <time>2024-09-18T10:30:34Z</time>
      </trkpt>
      <trkpt lat="44.84703" lon="5.48507">
        <ele>1576.7</ele>
        <time>2024-09-18T10:30:47Z</time>
      </trkpt>
      <trkpt lat="44.84723" lon="5.48525">
        <ele>1578.14</ele>
        <time>2024-09-18T10:31:03Z</time>
      </trkpt>
      <trkpt lat="44.84743" lon="5.48545">
        <ele>1578.14</ele>
        <time>2024-09-18T10:31:20Z</time>
      </trkpt>
      <trkpt lat="44.84763" lon="5.48562">
        <ele>1577.66</ele>
        <time>2024-09-18T10:31:36Z</time>
      </trkpt>
      <trkpt lat="44.84788" lon="5.48576">
        <ele>1576.7</ele>
        <time>2024-09-18T10:31:54Z</time>
      </trkpt>
      <trkpt lat="44.84802" lon="5.48595">
        <ele>1576.7</ele>
        <time>2024-09-18T10:32:08Z</time>
      </trkpt>
      <trkpt lat="44.84822" lon="5.48619">
        <ele>1574.3</ele>
        <time>2024-09-18T10:32:26Z</time>
      </trkpt>
      <trkpt lat="44.84841" lon="5.48638">
        <ele>1573.82</ele>
        <time>2024-09-18T10:32:42Z</time>
      </trkpt>
      <trkpt lat="44.84864" lon="5.48658">
        <ele>1573.82</ele>
        <time>2024-09-18T10:33:01Z</time>
      </trkpt>
      <trkpt lat="44.84882" lon="5.48671">
        <ele>1572.85</ele>
        <time>2024-09-18T10:33:14Z</time>
      </trkpt>
      <trkpt lat="44.849" lon="5.48687">
        <ele>1572.85</ele>
        <time>2024-09-18T10:33:29Z</time>
      </trkpt>
      <trkpt lat="44.84923" lon="5.48701">
        <ele>1570.93</ele>
        <time>2024-09-18T10:33:44Z</time>
      </trkpt>
      <trkpt lat="44.84944" lon="5.48712">
        <ele>1569.97</ele>
        <time>2024-09-18T10:33:59Z</time>
      </trkpt>
      <trkpt lat="44.84967" lon="5.48723">
        <ele>1569.01</ele>
        <time>2024-09-18T10:34:16Z</time>
      </trkpt>
      <trkpt lat="44.84973" lon="5.48726">
        <ele>1569.01</ele>
        <time>2024-09-18T10:34:20Z</time>
      </trkpt>
      <trkpt lat="44.84974" lon="5.48726">
        <ele>1569.01</ele>
        <time>2024-09-18T10:34:21Z</time>
      </trkpt>
      <trkpt lat="44.84976" lon="5.48727">
        <ele>1569.01</ele>
        <time>2024-09-18T10:34:22Z</time>
      </trkpt>
      <trkpt lat="44.84977" lon="5.48729">
        <ele>1569.01</ele>
        <time>2024-09-18T10:34:23Z</time>
      </trkpt>
      <trkpt lat="44.84979" lon="5.4873">
        <ele>1569.01</ele>
        <time>2024-09-18T10:34:24Z</time>
      </trkpt>
      <trkpt lat="44.8498" lon="5.48731">
        <ele>1569.01</ele>
        <time>2024-09-18T10:34:25Z</time>
      </trkpt>
      <trkpt lat="44.84982" lon="5.48732">
        <ele>1569.01</ele>
        <time>2024-09-18T10:34:26Z</time>
      </trkpt>
      <trkpt lat="44.84983" lon="5.48732">
        <ele>1569.01</ele>
        <time>2024-09-18T10:34:27Z</time>
      </trkpt>
      <trkpt lat="44.84984" lon="5.48732">
        <ele>1569.01</ele>
        <time>2024-09-18T10:34:28Z</time>
      </trkpt>
      <trkpt lat="44.84986" lon="5.48732">
        <ele>1569.01</ele>
        <time>2024-09-18T10:34:29Z</time>
      </trkpt>
      <trkpt lat="44.84987" lon="5.48733">
        <ele>1568.53</ele>
        <time>2024-09-18T10:34:30Z</time>
      </trkpt>
      <trkpt lat="44.84989" lon="5.48734">
        <ele>1568.53</ele>
        <time>2024-09-18T10:34:31Z</time>
      </trkpt>
      <trkpt lat="44.84991" lon="5.48735">
        <ele>1568.53</ele>
        <time>2024-09-18T10:34:32Z</time>
      </trkpt>
      <trkpt lat="44.84992" lon="5.48736">
        <ele>1568.05</ele>
        <time>2024-09-18T10:34:33Z</time>
      </trkpt>
      <trkpt lat="44.84994" lon="5.48738">
        <ele>1568.05</ele>
        <time>2024-09-18T10:34:34Z</time>
      </trkpt>
      <trkpt lat="44.85014" lon="5.48754">
        <ele>1567.57</ele>
        <time>2024-09-18T10:34:47Z</time>
      </trkpt>
      <trkpt lat="44.85017" lon="5.48762">
        <ele>1569.01</ele>
        <time>2024-09-18T10:34:56Z</time>
      </trkpt>
      <trkpt lat="44.85017" lon="5.48763">
        <ele>1569.01</ele>
        <time>2024-09-18T10:34:57Z</time>
      </trkpt>
      <trkpt lat="44.85017" lon="5.48765">
        <ele>1569.01</ele>
        <time>2024-09-18T10:34:58Z</time>
      </trkpt>
      <trkpt lat="44.85033" lon="5.48771">
        <ele>1569.49</ele>
        <time>2024-09-18T10:35:11Z</time>
      </trkpt>
      <trkpt lat="44.85052" lon="5.48772">
        <ele>1568.53</ele>
        <time>2024-09-18T10:35:25Z</time>
      </trkpt>
      <trkpt lat="44.85066" lon="5.48745">
        <ele>1567.09</ele>
        <time>2024-09-18T10:35:37Z</time>
      </trkpt>
      <trkpt lat="44.85071" lon="5.48721">
        <ele>1569.01</ele>
        <time>2024-09-18T10:35:50Z</time>
      </trkpt>
      <trkpt lat="44.85084" lon="5.48701">
        <ele>1571.41</ele>
        <time>2024-09-18T10:36:01Z</time>
      </trkpt>
      <trkpt lat="44.85088" lon="5.48697">
        <ele>1572.37</ele>
        <time>2024-09-18T10:36:05Z</time>
      </trkpt>
      <trkpt lat="44.85108" lon="5.48694">
        <ele>1572.37</ele>
        <time>2024-09-18T10:36:20Z</time>
      </trkpt>
      <trkpt lat="44.8513" lon="5.48689">
        <ele>1569.97</ele>
        <time>2024-09-18T10:36:35Z</time>
      </trkpt>
      <trkpt lat="44.85154" lon="5.48687">
        <ele>1569.49</ele>
        <time>2024-09-18T10:36:52Z</time>
      </trkpt>
      <trkpt lat="44.85163" lon="5.48688">
        <ele>1569.01</ele>
        <time>2024-09-18T10:36:59Z</time>
      </trkpt>
      <trkpt lat="44.85171" lon="5.48684">
        <ele>1568.53</ele>
        <time>2024-09-18T10:37:05Z</time>
      </trkpt>
      <trkpt lat="44.85188" lon="5.48705">
        <ele>1569.97</ele>
        <time>2024-09-18T10:37:24Z</time>
      </trkpt>
      <trkpt lat="44.85209" lon="5.48716">
        <ele>1568.53</ele>
        <time>2024-09-18T10:37:40Z</time>
      </trkpt>
      <trkpt lat="44.85225" lon="5.48723">
        <ele>1567.57</ele>
        <time>2024-09-18T10:37:52Z</time>
      </trkpt>
      <trkpt lat="44.85246" lon="5.48737">
        <ele>1565.64</ele>
        <time>2024-09-18T10:38:08Z</time>
      </trkpt>
      <trkpt lat="44.85265" lon="5.48754">
        <ele>1564.68</ele>
        <time>2024-09-18T10:38:24Z</time>
      </trkpt>
      <trkpt lat="44.85282" lon="5.48772">
        <ele>1563.72</ele>
        <time>2024-09-18T10:38:37Z</time>
      </trkpt>
      <trkpt lat="44.85303" lon="5.48788">
        <ele>1563.24</ele>
        <time>2024-09-18T10:38:53Z</time>
      </trkpt>
      <trkpt lat="44.85315" lon="5.48814">
        <ele>1562.28</ele>
        <time>2024-09-18T10:39:08Z</time>
      </trkpt>
      <trkpt lat="44.85337" lon="5.48838">
        <ele>1561.8</ele>
        <time>2024-09-18T10:39:27Z</time>
      </trkpt>
      <trkpt lat="44.85365" lon="5.48847">
        <ele>1559.88</ele>
        <time>2024-09-18T10:39:45Z</time>
      </trkpt>
      <trkpt lat="44.85391" lon="5.48856">
        <ele>1558.43</ele>
        <time>2024-09-18T10:40:02Z</time>
      </trkpt>
      <trkpt lat="44.85408" lon="5.48884">
        <ele>1557.47</ele>
        <time>2024-09-18T10:40:14Z</time>
      </trkpt>
      <trkpt lat="44.85419" lon="5.48905">
        <ele>1557.95</ele>
        <time>2024-09-18T10:40:26Z</time>
      </trkpt>
      <trkpt lat="44.85417" lon="5.48924">
        <ele>1557.95</ele>
        <time>2024-09-18T10:40:37Z</time>
      </trkpt>
      <trkpt lat="44.85416" lon="5.48925">
        <ele>1558.43</ele>
        <time>2024-09-18T10:40:38Z</time>
      </trkpt>
      <trkpt lat="44.85415" lon="5.48925">
        <ele>1558.43</ele>
        <time>2024-09-18T10:40:39Z</time>
      </trkpt>
      <trkpt lat="44.85413" lon="5.48926">
        <ele>1558.43</ele>
        <time>2024-09-18T10:40:40Z</time>
      </trkpt>
      <trkpt lat="44.85408" lon="5.4893">
        <ele>1558.92</ele>
        <time>2024-09-18T10:40:49Z</time>
      </trkpt>
      <trkpt lat="44.85392" lon="5.48941">
        <ele>1558.43</ele>
        <time>2024-09-18T10:41:03Z</time>
      </trkpt>
      <trkpt lat="44.8539" lon="5.48965">
        <ele>1556.51</ele>
        <time>2024-09-18T10:41:16Z</time>
      </trkpt>
      <trkpt lat="44.8539" lon="5.49001">
        <ele>1554.59</ele>
        <time>2024-09-18T10:41:29Z</time>
      </trkpt>
      <trkpt lat="44.85394" lon="5.49031">
        <ele>1554.59</ele>
        <time>2024-09-18T10:41:42Z</time>
      </trkpt>
      <trkpt lat="44.85394" lon="5.49056">
        <ele>1555.07</ele>
        <time>2024-09-18T10:41:58Z</time>
      </trkpt>
      <trkpt lat="44.85404" lon="5.4908">
        <ele>1555.07</ele>
        <time>2024-09-18T10:42:13Z</time>
      </trkpt>
      <trkpt lat="44.85418" lon="5.49111">
        <ele>1557.95</ele>
        <time>2024-09-18T10:42:32Z</time>
      </trkpt>
      <trkpt lat="44.85438" lon="5.49135">
        <ele>1560.36</ele>
        <time>2024-09-18T10:42:50Z</time>
      </trkpt>
      <trkpt lat="44.85458" lon="5.49147">
        <ele>1560.84</ele>
        <time>2024-09-18T10:43:05Z</time>
      </trkpt>
      <trkpt lat="44.85473" lon="5.4917">
        <ele>1559.88</ele>
        <time>2024-09-18T10:43:20Z</time>
      </trkpt>
      <trkpt lat="44.85473" lon="5.49199">
        <ele>1561.8</ele>
        <time>2024-09-18T10:43:36Z</time>
      </trkpt>
      <trkpt lat="44.85484" lon="5.49231">
        <ele>1562.76</ele>
        <time>2024-09-18T10:43:55Z</time>
      </trkpt>
      <trkpt lat="44.85496" lon="5.49259">
        <ele>1564.2</ele>
        <time>2024-09-18T10:44:13Z</time>
      </trkpt>
      <trkpt lat="44.85511" lon="5.49292">
        <ele>1563.24</ele>
        <time>2024-09-18T10:44:35Z</time>
      </trkpt>
      <trkpt lat="44.85519" lon="5.49326">
        <ele>1563.24</ele>
        <time>2024-09-18T10:44:54Z</time>
      </trkpt>
      <trkpt lat="44.85531" lon="5.49359">
        <ele>1563.24</ele>
        <time>2024-09-18T10:45:13Z</time>
      </trkpt>
      <trkpt lat="44.85542" lon="5.49397">
        <ele>1562.76</ele>
        <time>2024-09-18T10:45:34Z</time>
      </trkpt>
      <trkpt lat="44.85553" lon="5.49428">
        <ele>1566.61</ele>
        <time>2024-09-18T10:45:53Z</time>
      </trkpt>
      <trkpt lat="44.85561" lon="5.49444">
        <ele>1570.45</ele>
        <time>2024-09-18T10:46:04Z</time>
      </trkpt>
      <trkpt lat="44.85562" lon="5.49445">
        <ele>1570.45</ele>
        <time>2024-09-18T10:46:05Z</time>
      </trkpt>
      <trkpt lat="44.85563" lon="5.49446">
        <ele>1570.45</ele>
        <time>2024-09-18T10:46:06Z</time>
      </trkpt>
      <trkpt lat="44.85563" lon="5.49447">
        <ele>1570.93</ele>
        <time>2024-09-18T10:46:07Z</time>
      </trkpt>
      <trkpt lat="44.85564" lon="5.49448">
        <ele>1570.93</ele>
        <time>2024-09-18T10:46:08Z</time>
      </trkpt>
      <trkpt lat="44.85565" lon="5.4945">
        <ele>1570.93</ele>
        <time>2024-09-18T10:46:09Z</time>
      </trkpt>
      <trkpt lat="44.85566" lon="5.4947">
        <ele>1570.45</ele>
        <time>2024-09-18T10:46:19Z</time>
      </trkpt>
      <trkpt lat="44.85568" lon="5.49481">
        <ele>1570.93</ele>
        <time>2024-09-18T10:46:25Z</time>
      </trkpt>
      <trkpt lat="44.85577" lon="5.49512">
        <ele>1572.37</ele>
        <time>2024-09-18T10:46:42Z</time>
      </trkpt>
      <trkpt lat="44.85578" lon="5.49521">
        <ele>1572.85</ele>
        <time>2024-09-18T10:46:47Z</time>
      </trkpt>
      <trkpt lat="44.85588" lon="5.49549">
        <ele>1578.14</ele>
        <time>2024-09-18T10:47:04Z</time>
      </trkpt>
      <trkpt lat="44.85597" lon="5.49589">
        <ele>1581.99</ele>
        <time>2024-09-18T10:47:25Z</time>
      </trkpt>
      <trkpt lat="44.85605" lon="5.49621">
        <ele>1583.43</ele>
        <time>2024-09-18T10:47:44Z</time>
      </trkpt>
      <trkpt lat="44.85612" lon="5.49656">
        <ele>1582.95</ele>
        <time>2024-09-18T10:48:04Z</time>
      </trkpt>
      <trkpt lat="44.85613" lon="5.49684">
        <ele>1581.51</ele>
        <time>2024-09-18T10:48:17Z</time>
      </trkpt>
      <trkpt lat="44.85613" lon="5.49714">
        <ele>1582.47</ele>
        <time>2024-09-18T10:48:31Z</time>
      </trkpt>
      <trkpt lat="44.85614" lon="5.49743">
        <ele>1581.51</ele>
        <time>2024-09-18T10:48:48Z</time>
      </trkpt>
      <trkpt lat="44.85623" lon="5.49776">
        <ele>1582.95</ele>
        <time>2024-09-18T10:49:05Z</time>
      </trkpt>
      <trkpt lat="44.8563" lon="5.49811">
        <ele>1588.24</ele>
        <time>2024-09-18T10:49:22Z</time>
      </trkpt>
      <trkpt lat="44.85647" lon="5.49841">
        <ele>1592.08</ele>
        <time>2024-09-18T10:49:41Z</time>
      </trkpt>
      <trkpt lat="44.85656" lon="5.49867">
        <ele>1594.48</ele>
        <time>2024-09-18T10:49:54Z</time>
      </trkpt>
      <trkpt lat="44.85666" lon="5.49898">
        <ele>1597.85</ele>
        <time>2024-09-18T10:50:12Z</time>
      </trkpt>
      <trkpt lat="44.8568" lon="5.49928">
        <ele>1599.29</ele>
        <time>2024-09-18T10:50:27Z</time>
      </trkpt>
      <trkpt lat="44.8569" lon="5.49953">
        <ele>1600.73</ele>
        <time>2024-09-18T10:50:41Z</time>
      </trkpt>
      <trkpt lat="44.85702" lon="5.49979">
        <ele>1602.66</ele>
        <time>2024-09-18T10:50:58Z</time>
      </trkpt>
      <trkpt lat="44.85717" lon="5.50017">
        <ele>1604.58</ele>
        <time>2024-09-18T10:51:15Z</time>
      </trkpt>
      <trkpt lat="44.85727" lon="5.50055">
        <ele>1608.42</ele>
        <time>2024-09-18T10:51:35Z</time>
      </trkpt>
      <trkpt lat="44.85734" lon="5.50085">
        <ele>1611.31</ele>
        <time>2024-09-18T10:51:49Z</time>
      </trkpt>
      <trkpt lat="44.85741" lon="5.50118">
        <ele>1613.23</ele>
        <time>2024-09-18T10:52:07Z</time>
      </trkpt>
      <trkpt lat="44.85746" lon="5.50147">
        <ele>1615.63</ele>
        <time>2024-09-18T10:52:22Z</time>
      </trkpt>
      <trkpt lat="44.85752" lon="5.50189">
        <ele>1617.07</ele>
        <time>2024-09-18T10:52:37Z</time>
      </trkpt>
      <trkpt lat="44.85754" lon="5.50214">
        <ele>1620.44</ele>
        <time>2024-09-18T10:52:51Z</time>
      </trkpt>
      <trkpt lat="44.85762" lon="5.50239">
        <ele>1623.32</ele>
        <time>2024-09-18T10:53:06Z</time>
      </trkpt>
      <trkpt lat="44.85769" lon="5.50271">
        <ele>1628.61</ele>
        <time>2024-09-18T10:53:24Z</time>
      </trkpt>
      <trkpt lat="44.85773" lon="5.50306">
        <ele>1632.46</ele>
        <time>2024-09-18T10:53:44Z</time>
      </trkpt>
      <trkpt lat="44.85778" lon="5.50342">
        <ele>1635.34</ele>
        <time>2024-09-18T10:54:02Z</time>
      </trkpt>
      <trkpt lat="44.85785" lon="5.50375">
        <ele>1637.26</ele>
        <time>2024-09-18T10:54:21Z</time>
      </trkpt>
      <trkpt lat="44.85789" lon="5.50402">
        <ele>1638.7</ele>
        <time>2024-09-18T10:54:35Z</time>
      </trkpt>
      <trkpt lat="44.85793" lon="5.50428">
        <ele>1640.15</ele>
        <time>2024-09-18T10:54:47Z</time>
      </trkpt>
      <trkpt lat="44.858" lon="5.50452">
        <ele>1642.55</ele>
        <time>2024-09-18T10:55:01Z</time>
      </trkpt>
      <trkpt lat="44.85807" lon="5.50489">
        <ele>1645.91</ele>
        <time>2024-09-18T10:55:21Z</time>
      </trkpt>
      <trkpt lat="44.85809" lon="5.50521">
        <ele>1648.8</ele>
        <time>2024-09-18T10:55:36Z</time>
      </trkpt>
      <trkpt lat="44.85814" lon="5.50563">
        <ele>1652.64</ele>
        <time>2024-09-18T10:56:00Z</time>
      </trkpt>
      <trkpt lat="44.85823" lon="5.50596">
        <ele>1655.53</ele>
        <time>2024-09-18T10:56:18Z</time>
      </trkpt>
      <trkpt lat="44.85832" lon="5.50635">
        <ele>1659.37</ele>
        <time>2024-09-18T10:56:37Z</time>
      </trkpt>
      <trkpt lat="44.85833" lon="5.50671">
        <ele>1661.78</ele>
        <time>2024-09-18T10:56:51Z</time>
      </trkpt>
      <trkpt lat="44.85831" lon="5.50703">
        <ele>1665.14</ele>
        <time>2024-09-18T10:57:08Z</time>
      </trkpt>
      <trkpt lat="44.85834" lon="5.50736">
        <ele>1667.54</ele>
        <time>2024-09-18T10:57:24Z</time>
      </trkpt>
      <trkpt lat="44.85836" lon="5.50758">
        <ele>1669.95</ele>
        <time>2024-09-18T10:57:37Z</time>
      </trkpt>
      <trkpt lat="44.8584" lon="5.50797">
        <ele>1674.27</ele>
        <time>2024-09-18T10:57:59Z</time>
      </trkpt>
      <trkpt lat="44.85846" lon="5.50826">
        <ele>1677.64</ele>
        <time>2024-09-18T10:58:16Z</time>
      </trkpt>
      <trkpt lat="44.85858" lon="5.50862">
        <ele>1680.52</ele>
        <time>2024-09-18T10:58:33Z</time>
      </trkpt>
      <trkpt lat="44.85872" lon="5.50898">
        <ele>1684.85</ele>
        <time>2024-09-18T10:58:54Z</time>
      </trkpt>
      <trkpt lat="44.8588" lon="5.50928">
        <ele>1688.69</ele>
        <time>2024-09-18T10:59:13Z</time>
      </trkpt>
      <trkpt lat="44.85886" lon="5.50973">
        <ele>1692.06</ele>
        <time>2024-09-18T10:59:35Z</time>
      </trkpt>
      <trkpt lat="44.8589" lon="5.50999">
        <ele>1694.94</ele>
        <time>2024-09-18T10:59:47Z</time>
      </trkpt>
      <trkpt lat="44.85895" lon="5.51021">
        <ele>1697.83</ele>
        <time>2024-09-18T11:00:00Z</time>
      </trkpt>
      <trkpt lat="44.85903" lon="5.51045">
        <ele>1699.27</ele>
        <time>2024-09-18T11:00:16Z</time>
      </trkpt>
      <trkpt lat="44.85904" lon="5.51047">
        <ele>1699.27</ele>
        <time>2024-09-18T11:00:17Z</time>
      </trkpt>
      <trkpt lat="44.85914" lon="5.51072">
        <ele>1704.07</ele>
        <time>2024-09-18T11:00:32Z</time>
      </trkpt>
      <trkpt lat="44.85917" lon="5.51101">
        <ele>1707.44</ele>
        <time>2024-09-18T11:00:50Z</time>
      </trkpt>
      <trkpt lat="44.85919" lon="5.51107">
        <ele>1708.4</ele>
        <time>2024-09-18T11:00:54Z</time>
      </trkpt>
      <trkpt lat="44.85919" lon="5.51109">
        <ele>1708.4</ele>
        <time>2024-09-18T11:00:55Z</time>
      </trkpt>
      <trkpt lat="44.85919" lon="5.51111">
        <ele>1708.4</ele>
        <time>2024-09-18T11:00:56Z</time>
      </trkpt>
      <trkpt lat="44.85918" lon="5.51121">
        <ele>1709.36</ele>
        <time>2024-09-18T11:01:01Z</time>
      </trkpt>
      <trkpt lat="44.85919" lon="5.51123">
        <ele>1709.84</ele>
        <time>2024-09-18T11:01:02Z</time>
      </trkpt>
      <trkpt lat="44.85919" lon="5.51125">
        <ele>1709.84</ele>
        <time>2024-09-18T11:01:03Z</time>
      </trkpt>
      <trkpt lat="44.85919" lon="5.51127">
        <ele>1710.32</ele>
        <time>2024-09-18T11:01:04Z</time>
      </trkpt>
      <trkpt lat="44.85919" lon="5.51129">
        <ele>1710.32</ele>
        <time>2024-09-18T11:01:05Z</time>
      </trkpt>
      <trkpt lat="44.85919" lon="5.51131">
        <ele>1710.8</ele>
        <time>2024-09-18T11:01:06Z</time>
      </trkpt>
      <trkpt lat="44.85919" lon="5.51133">
        <ele>1710.8</ele>
        <time>2024-09-18T11:01:07Z</time>
      </trkpt>
      <trkpt lat="44.85919" lon="5.51134">
        <ele>1710.8</ele>
        <time>2024-09-18T11:01:08Z</time>
      </trkpt>
      <trkpt lat="44.85918" lon="5.51154">
        <ele>1715.61</ele>
        <time>2024-09-18T11:01:22Z</time>
      </trkpt>
      <trkpt lat="44.85918" lon="5.51156">
        <ele>1716.09</ele>
        <time>2024-09-18T11:01:23Z</time>
      </trkpt>
      <trkpt lat="44.85918" lon="5.51158">
        <ele>1716.09</ele>
        <time>2024-09-18T11:01:24Z</time>
      </trkpt>
      <trkpt lat="44.85918" lon="5.51159">
        <ele>1716.57</ele>
        <time>2024-09-18T11:01:25Z</time>
      </trkpt>
      <trkpt lat="44.85918" lon="5.51161">
        <ele>1716.57</ele>
        <time>2024-09-18T11:01:26Z</time>
      </trkpt>
      <trkpt lat="44.85917" lon="5.51177">
        <ele>1718.01</ele>
        <time>2024-09-18T11:01:36Z</time>
      </trkpt>
      <trkpt lat="44.85916" lon="5.51178">
        <ele>1718.01</ele>
        <time>2024-09-18T11:01:37Z</time>
      </trkpt>
      <trkpt lat="44.85913" lon="5.51198">
        <ele>1718.01</ele>
        <time>2024-09-18T11:01:48Z</time>
      </trkpt>
      <trkpt lat="44.85913" lon="5.51199">
        <ele>1718.49</ele>
        <time>2024-09-18T11:01:49Z</time>
      </trkpt>
      <trkpt lat="44.85912" lon="5.51201">
        <ele>1718.49</ele>
        <time>2024-09-18T11:01:50Z</time>
      </trkpt>
      <trkpt lat="44.85904" lon="5.5123">
        <ele>1719.46</ele>
        <time>2024-09-18T11:02:03Z</time>
      </trkpt>
      <trkpt lat="44.859" lon="5.51253">
        <ele>1720.9</ele>
        <time>2024-09-18T11:02:17Z</time>
      </trkpt>
      <trkpt lat="44.85892" lon="5.51277">
        <ele>1723.78</ele>
        <time>2024-09-18T11:02:33Z</time>
      </trkpt>
      <trkpt lat="44.8589" lon="5.51293">
        <ele>1725.7</ele>
        <time>2024-09-18T11:02:44Z</time>
      </trkpt>
      <trkpt lat="44.85888" lon="5.51321">
        <ele>1728.11</ele>
        <time>2024-09-18T11:03:00Z</time>
      </trkpt>
      <trkpt lat="44.85885" lon="5.51347">
        <ele>1730.99</ele>
        <time>2024-09-18T11:03:17Z</time>
      </trkpt>
      <trkpt lat="44.85885" lon="5.5135">
        <ele>1731.47</ele>
        <time>2024-09-18T11:03:19Z</time>
      </trkpt>
      <trkpt lat="44.8588" lon="5.51377">
        <ele>1733.88</ele>
        <time>2024-09-18T11:03:36Z</time>
      </trkpt>
      <trkpt lat="44.85876" lon="5.51396">
        <ele>1736.76</ele>
        <time>2024-09-18T11:03:49Z</time>
      </trkpt>
      <trkpt lat="44.85876" lon="5.51397">
        <ele>1737.24</ele>
        <time>2024-09-18T11:03:50Z</time>
      </trkpt>
      <trkpt lat="44.85875" lon="5.51412">
        <ele>1739.64</ele>
        <time>2024-09-18T11:03:59Z</time>
      </trkpt>
      <trkpt lat="44.85875" lon="5.51413">
        <ele>1739.64</ele>
        <time>2024-09-18T11:04:00Z</time>
      </trkpt>
      <trkpt lat="44.85875" lon="5.51415">
        <ele>1740.12</ele>
        <time>2024-09-18T11:04:01Z</time>
      </trkpt>
      <trkpt lat="44.85875" lon="5.51416">
        <ele>1740.12</ele>
        <time>2024-09-18T11:04:02Z</time>
      </trkpt>
      <trkpt lat="44.85875" lon="5.51418">
        <ele>1740.6</ele>
        <time>2024-09-18T11:04:03Z</time>
      </trkpt>
      <trkpt lat="44.85875" lon="5.5142">
        <ele>1740.6</ele>
        <time>2024-09-18T11:04:04Z</time>
      </trkpt>
      <trkpt lat="44.85875" lon="5.51444">
        <ele>1744.93</ele>
        <time>2024-09-18T11:04:20Z</time>
      </trkpt>
      <trkpt lat="44.85872" lon="5.51477">
        <ele>1750.7</ele>
        <time>2024-09-18T11:04:42Z</time>
      </trkpt>
      <trkpt lat="44.8587" lon="5.51499">
        <ele>1749.74</ele>
        <time>2024-09-18T11:04:56Z</time>
      </trkpt>
      <trkpt lat="44.85864" lon="5.51525">
        <ele>1751.18</ele>
        <time>2024-09-18T11:05:13Z</time>
      </trkpt>
      <trkpt lat="44.8586" lon="5.51552">
        <ele>1754.06</ele>
        <time>2024-09-18T11:05:31Z</time>
      </trkpt>
      <trkpt lat="44.85852" lon="5.5158">
        <ele>1754.54</ele>
        <time>2024-09-18T11:05:48Z</time>
      </trkpt>
      <trkpt lat="44.85849" lon="5.51606">
        <ele>1755.02</ele>
        <time>2024-09-18T11:06:03Z</time>
      </trkpt>
      <trkpt lat="44.85849" lon="5.51607">
        <ele>1755.5</ele>
        <time>2024-09-18T11:06:04Z</time>
      </trkpt>
      <trkpt lat="44.85849" lon="5.51609">
        <ele>1755.99</ele>
        <time>2024-09-18T11:06:05Z</time>
      </trkpt>
      <trkpt lat="44.85849" lon="5.51611">
        <ele>1755.99</ele>
        <time>2024-09-18T11:06:06Z</time>
      </trkpt>
      <trkpt lat="44.85849" lon="5.51613">
        <ele>1756.47</ele>
        <time>2024-09-18T11:06:07Z</time>
      </trkpt>
      <trkpt lat="44.85848" lon="5.51614">
        <ele>1756.47</ele>
        <time>2024-09-18T11:06:08Z</time>
      </trkpt>
      <trkpt lat="44.85847" lon="5.51616">
        <ele>1756.47</ele>
        <time>2024-09-18T11:06:09Z</time>
      </trkpt>
      <trkpt lat="44.85843" lon="5.51624">
        <ele>1756.47</ele>
        <time>2024-09-18T11:06:15Z</time>
      </trkpt>
      <trkpt lat="44.85835" lon="5.51639">
        <ele>1755.5</ele>
        <time>2024-09-18T11:06:27Z</time>
      </trkpt>
      <trkpt lat="44.85834" lon="5.51641">
        <ele>1755.02</ele>
        <time>2024-09-18T11:06:28Z</time>
      </trkpt>
      <trkpt lat="44.85829" lon="5.51673">
        <ele>1756.95</ele>
        <time>2024-09-18T11:06:47Z</time>
      </trkpt>
      <trkpt lat="44.85827" lon="5.51701">
        <ele>1759.35</ele>
        <time>2024-09-18T11:07:03Z</time>
      </trkpt>
      <trkpt lat="44.85815" lon="5.5172">
        <ele>1764.64</ele>
        <time>2024-09-18T11:07:18Z</time>
      </trkpt>
      <trkpt lat="44.85815" lon="5.51721">
        <ele>1764.64</ele>
        <time>2024-09-18T11:07:19Z</time>
      </trkpt>
      <trkpt lat="44.85816" lon="5.51723">
        <ele>1764.64</ele>
        <time>2024-09-18T11:07:20Z</time>
      </trkpt>
      <trkpt lat="44.85819" lon="5.51743">
        <ele>1767.04</ele>
        <time>2024-09-18T11:07:30Z</time>
      </trkpt>
      <trkpt lat="44.85818" lon="5.51745">
        <ele>1767.52</ele>
        <time>2024-09-18T11:07:31Z</time>
      </trkpt>
      <trkpt lat="44.85811" lon="5.51754">
        <ele>1768</ele>
        <time>2024-09-18T11:07:39Z</time>
      </trkpt>
      <trkpt lat="44.85803" lon="5.51772">
        <ele>1768</ele>
        <time>2024-09-18T11:07:53Z</time>
      </trkpt>
      <trkpt lat="44.85793" lon="5.51799">
        <ele>1768.48</ele>
        <time>2024-09-18T11:08:11Z</time>
      </trkpt>
      <trkpt lat="44.85788" lon="5.5182">
        <ele>1773.29</ele>
        <time>2024-09-18T11:08:23Z</time>
      </trkpt>
      <trkpt lat="44.85789" lon="5.51827">
        <ele>1776.17</ele>
        <time>2024-09-18T11:08:27Z</time>
      </trkpt>
      <trkpt lat="44.85787" lon="5.51833">
        <ele>1778.58</ele>
        <time>2024-09-18T11:08:34Z</time>
      </trkpt>
      <trkpt lat="44.85777" lon="5.51838">
        <ele>1778.58</ele>
        <time>2024-09-18T11:08:50Z</time>
      </trkpt>
      <trkpt lat="44.85775" lon="5.51844">
        <ele>1781.94</ele>
        <time>2024-09-18T11:09:07Z</time>
      </trkpt>
      <trkpt lat="44.85777" lon="5.51847">
        <ele>1785.31</ele>
        <time>2024-09-18T11:09:14Z</time>
      </trkpt>
      <trkpt lat="44.85792" lon="5.51852">
        <ele>1793</ele>
        <time>2024-09-18T11:09:29Z</time>
      </trkpt>
      <trkpt lat="44.85796" lon="5.51858">
        <ele>1794.92</ele>
        <time>2024-09-18T11:09:33Z</time>
      </trkpt>
      <trkpt lat="44.85788" lon="5.51876">
        <ele>1795.88</ele>
        <time>2024-09-18T11:09:49Z</time>
      </trkpt>
      <trkpt lat="44.8578" lon="5.51881">
        <ele>1794.92</ele>
        <time>2024-09-18T11:09:59Z</time>
      </trkpt>
      <trkpt lat="44.85774" lon="5.51883">
        <ele>1794.44</ele>
        <time>2024-09-18T11:10:04Z</time>
      </trkpt>
      <trkpt lat="44.85771" lon="5.51884">
        <ele>1793.96</ele>
        <time>2024-09-18T11:10:07Z</time>
      </trkpt>
      <trkpt lat="44.85759" lon="5.51884">
        <ele>1794.92</ele>
        <time>2024-09-18T11:10:16Z</time>
      </trkpt>
      <trkpt lat="44.85753" lon="5.51891">
        <ele>1799.24</ele>
        <time>2024-09-18T11:10:25Z</time>
      </trkpt>
      <trkpt lat="44.85745" lon="5.51905">
        <ele>1806.45</ele>
        <time>2024-09-18T11:10:39Z</time>
      </trkpt>
      <trkpt lat="44.85745" lon="5.51909">
        <ele>1809.34</ele>
        <time>2024-09-18T11:10:44Z</time>
      </trkpt>
      <trkpt lat="44.85732" lon="5.5193">
        <ele>1809.82</ele>
        <time>2024-09-18T11:11:01Z</time>
      </trkpt>
      <trkpt lat="44.85732" lon="5.51935">
        <ele>1811.26</ele>
        <time>2024-09-18T11:11:06Z</time>
      </trkpt>
      <trkpt lat="44.85733" lon="5.51942">
        <ele>1812.22</ele>
        <time>2024-09-18T11:11:10Z</time>
      </trkpt>
      <trkpt lat="44.8573" lon="5.51961">
        <ele>1815.11</ele>
        <time>2024-09-18T11:11:24Z</time>
      </trkpt>
      <trkpt lat="44.85728" lon="5.51964">
        <ele>1814.63</ele>
        <time>2024-09-18T11:11:27Z</time>
      </trkpt>
      <trkpt lat="44.85726" lon="5.51976">
        <ele>1815.59</ele>
        <time>2024-09-18T11:11:35Z</time>
      </trkpt>
      <trkpt lat="44.8572" lon="5.51999">
        <ele>1818.47</ele>
        <time>2024-09-18T11:11:49Z</time>
      </trkpt>
      <trkpt lat="44.8572" lon="5.52006">
        <ele>1818.95</ele>
        <time>2024-09-18T11:11:52Z</time>
      </trkpt>
      <trkpt lat="44.8572" lon="5.5201">
        <ele>1818.95</ele>
        <time>2024-09-18T11:11:53Z</time>
      </trkpt>
      <trkpt lat="44.85719" lon="5.52014">
        <ele>1818.95</ele>
        <time>2024-09-18T11:11:54Z</time>
      </trkpt>
      <trkpt lat="44.85717" lon="5.52017">
        <ele>1818.47</ele>
        <time>2024-09-18T11:11:55Z</time>
      </trkpt>
      <trkpt lat="44.85716" lon="5.5202">
        <ele>1818.47</ele>
        <time>2024-09-18T11:11:56Z</time>
      </trkpt>
      <trkpt lat="44.8571" lon="5.52031">
        <ele>1817.51</ele>
        <time>2024-09-18T11:12:02Z</time>
      </trkpt>
      <trkpt lat="44.85702" lon="5.5205">
        <ele>1815.59</ele>
        <time>2024-09-18T11:12:14Z</time>
      </trkpt>
      <trkpt lat="44.85695" lon="5.52054">
        <ele>1818.47</ele>
        <time>2024-09-18T11:12:21Z</time>
      </trkpt>
      <trkpt lat="44.85687" lon="5.52064">
        <ele>1820.87</ele>
        <time>2024-09-18T11:12:31Z</time>
      </trkpt>
      <trkpt lat="44.85685" lon="5.52065">
        <ele>1821.35</ele>
        <time>2024-09-18T11:12:32Z</time>
      </trkpt>
      <trkpt lat="44.85683" lon="5.52065">
        <ele>1821.35</ele>
        <time>2024-09-18T11:12:33Z</time>
      </trkpt>
      <trkpt lat="44.85682" lon="5.52066">
        <ele>1821.84</ele>
        <time>2024-09-18T11:12:34Z</time>
      </trkpt>
      <trkpt lat="44.85681" lon="5.52066">
        <ele>1822.32</ele>
        <time>2024-09-18T11:12:35Z</time>
      </trkpt>
      <trkpt lat="44.8568" lon="5.52067">
        <ele>1822.32</ele>
        <time>2024-09-18T11:12:36Z</time>
      </trkpt>
      <trkpt lat="44.85679" lon="5.52068">
        <ele>1822.32</ele>
        <time>2024-09-18T11:12:37Z</time>
      </trkpt>
      <trkpt lat="44.85677" lon="5.52069">
        <ele>1822.8</ele>
        <time>2024-09-18T11:12:38Z</time>
      </trkpt>
      <trkpt lat="44.85676" lon="5.52069">
        <ele>1822.8</ele>
        <time>2024-09-18T11:12:39Z</time>
      </trkpt>
      <trkpt lat="44.85658" lon="5.5207">
        <ele>1827.6</ele>
        <time>2024-09-18T11:12:52Z</time>
      </trkpt>
      <trkpt lat="44.85646" lon="5.52068">
        <ele>1830.49</ele>
        <time>2024-09-18T11:13:05Z</time>
      </trkpt>
      <trkpt lat="44.8563" lon="5.52064">
        <ele>1840.1</ele>
        <time>2024-09-18T11:13:19Z</time>
      </trkpt>
      <trkpt lat="44.85629" lon="5.52064">
        <ele>1840.58</ele>
        <time>2024-09-18T11:13:20Z</time>
      </trkpt>
      <trkpt lat="44.85628" lon="5.52064">
        <ele>1841.06</ele>
        <time>2024-09-18T11:13:21Z</time>
      </trkpt>
      <trkpt lat="44.85619" lon="5.52062">
        <ele>1846.35</ele>
        <time>2024-09-18T11:13:33Z</time>
      </trkpt>
      <trkpt lat="44.85617" lon="5.52062">
        <ele>1846.83</ele>
        <time>2024-09-18T11:13:36Z</time>
      </trkpt>
      <trkpt lat="44.85616" lon="5.52063">
        <ele>1847.31</ele>
        <time>2024-09-18T11:13:37Z</time>
      </trkpt>
      <trkpt lat="44.85616" lon="5.52064">
        <ele>1847.31</ele>
        <time>2024-09-18T11:13:38Z</time>
      </trkpt>
      <trkpt lat="44.85615" lon="5.52065">
        <ele>1847.31</ele>
        <time>2024-09-18T11:13:39Z</time>
      </trkpt>
      <trkpt lat="44.85615" lon="5.52067">
        <ele>1847.31</ele>
        <time>2024-09-18T11:13:40Z</time>
      </trkpt>
      <trkpt lat="44.85614" lon="5.52068">
        <ele>1847.79</ele>
        <time>2024-09-18T11:13:41Z</time>
      </trkpt>
      <trkpt lat="44.85614" lon="5.5207">
        <ele>1847.79</ele>
        <time>2024-09-18T11:13:42Z</time>
      </trkpt>
      <trkpt lat="44.85604" lon="5.52094">
        <ele>1848.75</ele>
        <time>2024-09-18T11:13:56Z</time>
      </trkpt>
      <trkpt lat="44.85596" lon="5.52101">
        <ele>1849.71</ele>
        <time>2024-09-18T11:14:02Z</time>
      </trkpt>
      <trkpt lat="44.85596" lon="5.52105">
        <ele>1850.19</ele>
        <time>2024-09-18T11:14:05Z</time>
      </trkpt>
      <trkpt lat="44.85596" lon="5.52116">
        <ele>1852.12</ele>
        <time>2024-09-18T11:14:12Z</time>
      </trkpt>
      <trkpt lat="44.85595" lon="5.52124">
        <ele>1853.08</ele>
        <time>2024-09-18T11:14:16Z</time>
      </trkpt>
      <trkpt lat="44.85591" lon="5.52141">
        <ele>1855.48</ele>
        <time>2024-09-18T11:14:23Z</time>
      </trkpt>
      <trkpt lat="44.85589" lon="5.52143">
        <ele>1855.96</ele>
        <time>2024-09-18T11:14:25Z</time>
      </trkpt>
      <trkpt lat="44.85586" lon="5.5215">
        <ele>1857.89</ele>
        <time>2024-09-18T11:14:30Z</time>
      </trkpt>
      <trkpt lat="44.85581" lon="5.5215">
        <ele>1859.33</ele>
        <time>2024-09-18T11:14:34Z</time>
      </trkpt>
      <trkpt lat="44.85578" lon="5.52152">
        <ele>1859.81</ele>
        <time>2024-09-18T11:14:38Z</time>
      </trkpt>
      <trkpt lat="44.85562" lon="5.52159">
        <ele>1860.77</ele>
        <time>2024-09-18T11:14:53Z</time>
      </trkpt>
      <trkpt lat="44.85557" lon="5.52164">
        <ele>1861.25</ele>
        <time>2024-09-18T11:14:59Z</time>
      </trkpt>
      <trkpt lat="44.85554" lon="5.52166">
        <ele>1860.77</ele>
        <time>2024-09-18T11:15:02Z</time>
      </trkpt>
      <trkpt lat="44.85548" lon="5.52161">
        <ele>1861.25</ele>
        <time>2024-09-18T11:15:08Z</time>
      </trkpt>
      <trkpt lat="44.85523" lon="5.52157">
        <ele>1863.65</ele>
        <time>2024-09-18T11:15:26Z</time>
      </trkpt>
      <trkpt lat="44.85513" lon="5.52166">
        <ele>1863.17</ele>
        <time>2024-09-18T11:15:38Z</time>
      </trkpt>
      <trkpt lat="44.85507" lon="5.52177">
        <ele>1859.33</ele>
        <time>2024-09-18T11:15:50Z</time>
      </trkpt>
      <trkpt lat="44.85508" lon="5.52213">
        <ele>1858.37</ele>
        <time>2024-09-18T11:16:09Z</time>
      </trkpt>
      <trkpt lat="44.85506" lon="5.52232">
        <ele>1858.85</ele>
        <time>2024-09-18T11:16:21Z</time>
      </trkpt>
      <trkpt lat="44.85504" lon="5.5226">
        <ele>1861.25</ele>
        <time>2024-09-18T11:16:36Z</time>
      </trkpt>
      <trkpt lat="44.85503" lon="5.52292">
        <ele>1860.77</ele>
        <time>2024-09-18T11:16:54Z</time>
      </trkpt>
      <trkpt lat="44.85502" lon="5.52294">
        <ele>1860.77</ele>
        <time>2024-09-18T11:16:56Z</time>
      </trkpt>
      <trkpt lat="44.85497" lon="5.52298">
        <ele>1860.29</ele>
        <time>2024-09-18T11:17:00Z</time>
      </trkpt>
      <trkpt lat="44.85494" lon="5.52305">
        <ele>1860.29</ele>
        <time>2024-09-18T11:17:06Z</time>
      </trkpt>
      <trkpt lat="44.85498" lon="5.52323">
        <ele>1861.25</ele>
        <time>2024-09-18T11:17:19Z</time>
      </trkpt>
      <trkpt lat="44.85495" lon="5.52324">
        <ele>1862.69</ele>
        <time>2024-09-18T11:17:31Z</time>
      </trkpt>
      <trkpt lat="44.85498" lon="5.52326">
        <ele>1861.73</ele>
        <time>2024-09-18T11:17:55Z</time>
      </trkpt>
      <trkpt lat="44.85495" lon="5.52325">
        <ele>1863.65</ele>
        <time>2024-09-18T11:18:14Z</time>
      </trkpt>
      <trkpt lat="44.85495" lon="5.52328">
        <ele>1862.69</ele>
        <time>2024-09-18T11:18:38Z</time>
      </trkpt>
      <trkpt lat="44.85494" lon="5.52329">
        <ele>1863.65</ele>
        <time>2024-09-18T11:18:59Z</time>
      </trkpt>
      <trkpt lat="44.85495" lon="5.52326">
        <ele>1865.09</ele>
        <time>2024-09-18T11:19:18Z</time>
      </trkpt>
      <trkpt lat="44.85495" lon="5.52328">
        <ele>1863.17</ele>
        <time>2024-09-18T11:19:41Z</time>
      </trkpt>
      <trkpt lat="44.85496" lon="5.52324">
        <ele>1863.17</ele>
        <time>2024-09-18T11:20:01Z</time>
      </trkpt>
      <trkpt lat="44.85496" lon="5.52324">
        <ele>1864.61</ele>
        <time>2024-09-18T11:20:17Z</time>
      </trkpt>
      <trkpt lat="44.85496" lon="5.52322">
        <ele>1866.54</ele>
        <time>2024-09-18T11:20:33Z</time>
      </trkpt>
      <trkpt lat="44.85495" lon="5.52319">
        <ele>1867.98</ele>
        <time>2024-09-18T11:20:52Z</time>
      </trkpt>
      <trkpt lat="44.85496" lon="5.5232">
        <ele>1866.06</ele>
        <time>2024-09-18T11:21:08Z</time>
      </trkpt>
      <trkpt lat="44.85495" lon="5.52323">
        <ele>1865.58</ele>
        <time>2024-09-18T11:21:27Z</time>
      </trkpt>
      <trkpt lat="44.85495" lon="5.52326">
        <ele>1866.06</ele>
        <time>2024-09-18T11:21:45Z</time>
      </trkpt>
      <trkpt lat="44.85495" lon="5.52327">
        <ele>1866.54</ele>
        <time>2024-09-18T11:21:59Z</time>
      </trkpt>
      <trkpt lat="44.85497" lon="5.52327">
        <ele>1867.02</ele>
        <time>2024-09-18T11:22:17Z</time>
      </trkpt>
      <trkpt lat="44.85498" lon="5.52325">
        <ele>1865.58</ele>
        <time>2024-09-18T11:22:45Z</time>
      </trkpt>
      <trkpt lat="44.85498" lon="5.52326">
        <ele>1865.09</ele>
        <time>2024-09-18T11:23:18Z</time>
      </trkpt>
      <trkpt lat="44.85497" lon="5.52328">
        <ele>1868.46</ele>
        <time>2024-09-18T11:23:38Z</time>
      </trkpt>
      <trkpt lat="44.85492" lon="5.52326">
        <ele>1868.46</ele>
        <time>2024-09-18T11:23:54Z</time>
      </trkpt>
      <trkpt lat="44.85492" lon="5.52325">
        <ele>1865.58</ele>
        <time>2024-09-18T11:24:18Z</time>
      </trkpt>
      <trkpt lat="44.85496" lon="5.52326">
        <ele>1864.13</ele>
        <time>2024-09-18T11:24:36Z</time>
      </trkpt>
      <trkpt lat="44.85493" lon="5.52325">
        <ele>1864.13</ele>
        <time>2024-09-18T11:24:59Z</time>
      </trkpt>
      <trkpt lat="44.85493" lon="5.52323">
        <ele>1864.61</ele>
        <time>2024-09-18T11:25:16Z</time>
      </trkpt>
      <trkpt lat="44.85494" lon="5.52318">
        <ele>1864.13</ele>
        <time>2024-09-18T11:25:32Z</time>
      </trkpt>
      <trkpt lat="44.85495" lon="5.52305">
        <ele>1862.21</ele>
        <time>2024-09-18T11:25:48Z</time>
      </trkpt>
      <trkpt lat="44.85494" lon="5.52302">
        <ele>1861.25</ele>
        <time>2024-09-18T11:26:03Z</time>
      </trkpt>
      <trkpt lat="44.85496" lon="5.52296">
        <ele>1862.69</ele>
        <time>2024-09-18T11:26:15Z</time>
      </trkpt>
      <trkpt lat="44.85496" lon="5.52297">
        <ele>1863.65</ele>
        <time>2024-09-18T11:26:37Z</time>
      </trkpt>
      <trkpt lat="44.85495" lon="5.52298">
        <ele>1864.13</ele>
        <time>2024-09-18T11:26:56Z</time>
      </trkpt>
      <trkpt lat="44.85496" lon="5.52299">
        <ele>1861.73</ele>
        <time>2024-09-18T11:27:29Z</time>
      </trkpt>
      <trkpt lat="44.85496" lon="5.52298">
        <ele>1861.73</ele>
        <time>2024-09-18T11:27:47Z</time>
      </trkpt>
      <trkpt lat="44.85496" lon="5.523">
        <ele>1863.65</ele>
        <time>2024-09-18T11:28:10Z</time>
      </trkpt>
      <trkpt lat="44.85494" lon="5.52299">
        <ele>1862.69</ele>
        <time>2024-09-18T11:28:24Z</time>
      </trkpt>
      <trkpt lat="44.85492" lon="5.523">
        <ele>1861.25</ele>
        <time>2024-09-18T11:28:41Z</time>
      </trkpt>
      <trkpt lat="44.85492" lon="5.52301">
        <ele>1860.77</ele>
        <time>2024-09-18T11:29:12Z</time>
      </trkpt>
      <trkpt lat="44.85493" lon="5.523">
        <ele>1859.81</ele>
        <time>2024-09-18T11:29:31Z</time>
      </trkpt>
      <trkpt lat="44.85493" lon="5.52298">
        <ele>1860.29</ele>
        <time>2024-09-18T11:29:49Z</time>
      </trkpt>
      <trkpt lat="44.85494" lon="5.523">
        <ele>1860.29</ele>
        <time>2024-09-18T11:30:14Z</time>
      </trkpt>
      <trkpt lat="44.85492" lon="5.52297">
        <ele>1865.58</ele>
        <time>2024-09-18T11:30:52Z</time>
      </trkpt>
      <trkpt lat="44.85492" lon="5.52296">
        <ele>1866.06</ele>
        <time>2024-09-18T11:31:27Z</time>
      </trkpt>
      <trkpt lat="44.85493" lon="5.52297">
        <ele>1864.61</ele>
        <time>2024-09-18T11:31:55Z</time>
      </trkpt>
      <trkpt lat="44.85491" lon="5.52296">
        <ele>1867.98</ele>
        <time>2024-09-18T11:32:28Z</time>
      </trkpt>
      <trkpt lat="44.8549" lon="5.52298">
        <ele>1866.06</ele>
        <time>2024-09-18T11:32:59Z</time>
      </trkpt>
      <trkpt lat="44.85491" lon="5.52301">
        <ele>1865.58</ele>
        <time>2024-09-18T11:33:35Z</time>
      </trkpt>
      <trkpt lat="44.85494" lon="5.52299">
        <ele>1865.58</ele>
        <time>2024-09-18T11:34:02Z</time>
      </trkpt>
      <trkpt lat="44.8549" lon="5.52297">
        <ele>1871.82</ele>
        <time>2024-09-18T11:34:40Z</time>
      </trkpt>
      <trkpt lat="44.85491" lon="5.52301">
        <ele>1873.27</ele>
        <time>2024-09-18T11:35:18Z</time>
      </trkpt>
      <trkpt lat="44.85488" lon="5.52298">
        <ele>1870.86</ele>
        <time>2024-09-18T11:35:37Z</time>
      </trkpt>
      <trkpt lat="44.85489" lon="5.52295">
        <ele>1869.42</ele>
        <time>2024-09-18T11:36:14Z</time>
      </trkpt>
      <trkpt lat="44.85491" lon="5.52295">
        <ele>1866.54</ele>
        <time>2024-09-18T11:36:46Z</time>
      </trkpt>
      <trkpt lat="44.85493" lon="5.52298">
        <ele>1866.06</ele>
        <time>2024-09-18T11:37:18Z</time>
      </trkpt>
      <trkpt lat="44.85491" lon="5.52294">
        <ele>1859.33</ele>
        <time>2024-09-18T11:37:48Z</time>
      </trkpt>
      <trkpt lat="44.85492" lon="5.52296">
        <ele>1859.81</ele>
        <time>2024-09-18T11:38:27Z</time>
      </trkpt>
      <trkpt lat="44.85487" lon="5.52296">
        <ele>1864.61</ele>
        <time>2024-09-18T11:39:00Z</time>
      </trkpt>
      <trkpt lat="44.85491" lon="5.52296">
        <ele>1869.9</ele>
        <time>2024-09-18T11:39:38Z</time>
      </trkpt>
      <trkpt lat="44.85489" lon="5.52295">
        <ele>1872.3</ele>
        <time>2024-09-18T11:40:11Z</time>
      </trkpt>
      <trkpt lat="44.85492" lon="5.52296">
        <ele>1868.46</ele>
        <time>2024-09-18T11:40:41Z</time>
      </trkpt>
      <trkpt lat="44.85492" lon="5.52297">
        <ele>1866.06</ele>
        <time>2024-09-18T11:40:59Z</time>
      </trkpt>
      <trkpt lat="44.85494" lon="5.52299">
        <ele>1865.58</ele>
        <time>2024-09-18T11:41:33Z</time>
      </trkpt>
      <trkpt lat="44.85496" lon="5.52296">
        <ele>1867.02</ele>
        <time>2024-09-18T11:42:16Z</time>
      </trkpt>
      <trkpt lat="44.85494" lon="5.52302">
        <ele>1866.06</ele>
        <time>2024-09-18T11:42:56Z</time>
      </trkpt>
      <trkpt lat="44.85496" lon="5.52303">
        <ele>1865.58</ele>
        <time>2024-09-18T11:43:35Z</time>
      </trkpt>
      <trkpt lat="44.85494" lon="5.52301">
        <ele>1866.54</ele>
        <time>2024-09-18T11:44:14Z</time>
      </trkpt>
      <trkpt lat="44.85493" lon="5.523">
        <ele>1862.21</ele>
        <time>2024-09-18T11:44:53Z</time>
      </trkpt>
      <trkpt lat="44.85494" lon="5.52301">
        <ele>1864.13</ele>
        <time>2024-09-18T11:45:33Z</time>
      </trkpt>
      <trkpt lat="44.85494" lon="5.52299">
        <ele>1866.54</ele>
        <time>2024-09-18T11:46:09Z</time>
      </trkpt>
      <trkpt lat="44.85494" lon="5.52302">
        <ele>1866.06</ele>
        <time>2024-09-18T11:46:51Z</time>
      </trkpt>
      <trkpt lat="44.85495" lon="5.52301">
        <ele>1867.5</ele>
        <time>2024-09-18T11:47:36Z</time>
      </trkpt>
      <trkpt lat="44.85495" lon="5.52302">
        <ele>1866.54</ele>
        <time>2024-09-18T11:48:20Z</time>
      </trkpt>
      <trkpt lat="44.85496" lon="5.52302">
        <ele>1863.65</ele>
        <time>2024-09-18T11:48:58Z</time>
      </trkpt>
      <trkpt lat="44.85496" lon="5.52302">
        <ele>1867.98</ele>
        <time>2024-09-18T11:49:40Z</time>
      </trkpt>
      <trkpt lat="44.85493" lon="5.523">
        <ele>1863.17</ele>
        <time>2024-09-18T11:50:19Z</time>
      </trkpt>
      <trkpt lat="44.85494" lon="5.52301">
        <ele>1865.09</ele>
        <time>2024-09-18T11:51:04Z</time>
      </trkpt>
      <trkpt lat="44.85495" lon="5.52299">
        <ele>1861.25</ele>
        <time>2024-09-18T11:51:47Z</time>
      </trkpt>
      <trkpt lat="44.85494" lon="5.523">
        <ele>1860.77</ele>
        <time>2024-09-18T11:52:21Z</time>
      </trkpt>
      <trkpt lat="44.85493" lon="5.52303">
        <ele>1859.81</ele>
        <time>2024-09-18T11:52:55Z</time>
      </trkpt>
      <trkpt lat="44.85491" lon="5.523">
        <ele>1856.44</ele>
        <time>2024-09-18T11:53:28Z</time>
      </trkpt>
      <trkpt lat="44.85493" lon="5.523">
        <ele>1855.96</ele>
        <time>2024-09-18T11:53:58Z</time>
      </trkpt>
      <trkpt lat="44.85495" lon="5.523">
        <ele>1856.44</ele>
        <time>2024-09-18T11:54:25Z</time>
      </trkpt>
      <trkpt lat="44.85493" lon="5.523">
        <ele>1858.85</ele>
        <time>2024-09-18T11:55:02Z</time>
      </trkpt>
      <trkpt lat="44.85493" lon="5.52301">
        <ele>1862.21</ele>
        <time>2024-09-18T11:55:33Z</time>
      </trkpt>
      <trkpt lat="44.85493" lon="5.52298">
        <ele>1862.21</ele>
        <time>2024-09-18T11:56:05Z</time>
      </trkpt>
      <trkpt lat="44.85492" lon="5.52302">
        <ele>1862.69</ele>
        <time>2024-09-18T11:56:36Z</time>
      </trkpt>
      <trkpt lat="44.85493" lon="5.523">
        <ele>1860.29</ele>
        <time>2024-09-18T11:57:09Z</time>
      </trkpt>
      <trkpt lat="44.85493" lon="5.52303">
        <ele>1858.85</ele>
        <time>2024-09-18T11:57:38Z</time>
      </trkpt>
      <trkpt lat="44.85492" lon="5.52297">
        <ele>1860.77</ele>
        <time>2024-09-18T11:58:13Z</time>
      </trkpt>
      <trkpt lat="44.85491" lon="5.52293">
        <ele>1858.37</ele>
        <time>2024-09-18T11:58:51Z</time>
      </trkpt>
      <trkpt lat="44.85493" lon="5.52304">
        <ele>1857.4</ele>
        <time>2024-09-18T11:59:30Z</time>
      </trkpt>
      <trkpt lat="44.85493" lon="5.523">
        <ele>1867.5</ele>
        <time>2024-09-18T12:00:04Z</time>
      </trkpt>
      <trkpt lat="44.85491" lon="5.52304">
        <ele>1864.61</ele>
        <time>2024-09-18T12:00:41Z</time>
      </trkpt>
      <trkpt lat="44.85493" lon="5.52301">
        <ele>1865.09</ele>
        <time>2024-09-18T12:01:06Z</time>
      </trkpt>
      <trkpt lat="44.85491" lon="5.52302">
        <ele>1863.17</ele>
        <time>2024-09-18T12:01:41Z</time>
      </trkpt>
      <trkpt lat="44.85493" lon="5.523">
        <ele>1863.65</ele>
        <time>2024-09-18T12:02:13Z</time>
      </trkpt>
      <trkpt lat="44.85493" lon="5.52298">
        <ele>1864.13</ele>
        <time>2024-09-18T12:02:46Z</time>
      </trkpt>
      <trkpt lat="44.85494" lon="5.52299">
        <ele>1863.65</ele>
        <time>2024-09-18T12:03:22Z</time>
      </trkpt>
      <trkpt lat="44.85492" lon="5.52301">
        <ele>1863.17</ele>
        <time>2024-09-18T12:03:53Z</time>
      </trkpt>
      <trkpt lat="44.85492" lon="5.523">
        <ele>1862.21</ele>
        <time>2024-09-18T12:04:25Z</time>
      </trkpt>
      <trkpt lat="44.85493" lon="5.52299">
        <ele>1862.21</ele>
        <time>2024-09-18T12:04:50Z</time>
      </trkpt>
      <trkpt lat="44.85491" lon="5.52299">
        <ele>1866.06</ele>
        <time>2024-09-18T12:05:20Z</time>
      </trkpt>
      <trkpt lat="44.85493" lon="5.52301">
        <ele>1864.13</ele>
        <time>2024-09-18T12:05:50Z</time>
      </trkpt>
      <trkpt lat="44.85492" lon="5.52302">
        <ele>1863.17</ele>
        <time>2024-09-18T12:06:28Z</time>
      </trkpt>
      <trkpt lat="44.85493" lon="5.52297">
        <ele>1866.06</ele>
        <time>2024-09-18T12:07:05Z</time>
      </trkpt>
      <trkpt lat="44.8549" lon="5.52302">
        <ele>1864.13</ele>
        <time>2024-09-18T12:07:48Z</time>
      </trkpt>
      <trkpt lat="44.85493" lon="5.52296">
        <ele>1865.09</ele>
        <time>2024-09-18T12:08:28Z</time>
      </trkpt>
      <trkpt lat="44.85493" lon="5.52299">
        <ele>1865.58</ele>
        <time>2024-09-18T12:08:59Z</time>
      </trkpt>
      <trkpt lat="44.85494" lon="5.523">
        <ele>1863.17</ele>
        <time>2024-09-18T12:09:32Z</time>
      </trkpt>
      <trkpt lat="44.85491" lon="5.523">
        <ele>1861.73</ele>
        <time>2024-09-18T12:10:08Z</time>
      </trkpt>
      <trkpt lat="44.85492" lon="5.52301">
        <ele>1862.69</ele>
        <time>2024-09-18T12:10:37Z</time>
      </trkpt>
      <trkpt lat="44.85493" lon="5.52299">
        <ele>1863.17</ele>
        <time>2024-09-18T12:11:10Z</time>
      </trkpt>
      <trkpt lat="44.85491" lon="5.52301">
        <ele>1859.33</ele>
        <time>2024-09-18T12:11:39Z</time>
      </trkpt>
      <trkpt lat="44.85491" lon="5.52303">
        <ele>1859.33</ele>
        <time>2024-09-18T12:12:07Z</time>
      </trkpt>
      <trkpt lat="44.85494" lon="5.52298">
        <ele>1864.61</ele>
        <time>2024-09-18T12:12:40Z</time>
      </trkpt>
      <trkpt lat="44.85492" lon="5.523">
        <ele>1861.25</ele>
        <time>2024-09-18T12:13:16Z</time>
      </trkpt>
      <trkpt lat="44.85493" lon="5.52299">
        <ele>1861.25</ele>
        <time>2024-09-18T12:13:54Z</time>
      </trkpt>
      <trkpt lat="44.85492" lon="5.52302">
        <ele>1861.73</ele>
        <time>2024-09-18T12:14:28Z</time>
      </trkpt>
      <trkpt lat="44.85494" lon="5.523">
        <ele>1861.73</ele>
        <time>2024-09-18T12:15:05Z</time>
      </trkpt>
      <trkpt lat="44.85492" lon="5.52299">
        <ele>1862.21</ele>
        <time>2024-09-18T12:15:36Z</time>
      </trkpt>
      <trkpt lat="44.85492" lon="5.523">
        <ele>1861.25</ele>
        <time>2024-09-18T12:16:07Z</time>
      </trkpt>
      <trkpt lat="44.85492" lon="5.523">
        <ele>1861.25</ele>
        <time>2024-09-18T12:16:43Z</time>
      </trkpt>
      <trkpt lat="44.85493" lon="5.523">
        <ele>1861.25</ele>
        <time>2024-09-18T12:17:15Z</time>
      </trkpt>
      <trkpt lat="44.85493" lon="5.52299">
        <ele>1864.13</ele>
        <time>2024-09-18T12:17:53Z</time>
      </trkpt>
      <trkpt lat="44.85492" lon="5.52301">
        <ele>1860.77</ele>
        <time>2024-09-18T12:18:21Z</time>
      </trkpt>
      <trkpt lat="44.85493" lon="5.52301">
        <ele>1861.73</ele>
        <time>2024-09-18T12:18:47Z</time>
      </trkpt>
      <trkpt lat="44.85491" lon="5.52302">
        <ele>1860.77</ele>
        <time>2024-09-18T12:19:20Z</time>
      </trkpt>
      <trkpt lat="44.85491" lon="5.52302">
        <ele>1862.21</ele>
        <time>2024-09-18T12:19:54Z</time>
      </trkpt>
      <trkpt lat="44.85492" lon="5.52301">
        <ele>1862.21</ele>
        <time>2024-09-18T12:20:23Z</time>
      </trkpt>
      <trkpt lat="44.85491" lon="5.52304">
        <ele>1856.44</ele>
        <time>2024-09-18T12:20:53Z</time>
      </trkpt>
      <trkpt lat="44.85492" lon="5.52302">
        <ele>1856.44</ele>
        <time>2024-09-18T12:21:25Z</time>
      </trkpt>
      <trkpt lat="44.85492" lon="5.52302">
        <ele>1858.85</ele>
        <time>2024-09-18T12:22:02Z</time>
      </trkpt>
      <trkpt lat="44.85493" lon="5.52299">
        <ele>1862.69</ele>
        <time>2024-09-18T12:22:43Z</time>
      </trkpt>
      <trkpt lat="44.85493" lon="5.52296">
        <ele>1860.77</ele>
        <time>2024-09-18T12:23:21Z</time>
      </trkpt>
      <trkpt lat="44.85492" lon="5.52301">
        <ele>1862.21</ele>
        <time>2024-09-18T12:23:48Z</time>
      </trkpt>
      <trkpt lat="44.85493" lon="5.523">
        <ele>1859.81</ele>
        <time>2024-09-18T12:24:17Z</time>
      </trkpt>
      <trkpt lat="44.85492" lon="5.52301">
        <ele>1860.77</ele>
        <time>2024-09-18T12:24:54Z</time>
      </trkpt>
      <trkpt lat="44.85493" lon="5.52299">
        <ele>1862.69</ele>
        <time>2024-09-18T12:25:17Z</time>
      </trkpt>
      <trkpt lat="44.85492" lon="5.52299">
        <ele>1859.33</ele>
        <time>2024-09-18T12:25:42Z</time>
      </trkpt>
      <trkpt lat="44.85493" lon="5.52299">
        <ele>1857.89</ele>
        <time>2024-09-18T12:26:00Z</time>
      </trkpt>
      <trkpt lat="44.85491" lon="5.52301">
        <ele>1855.48</ele>
        <time>2024-09-18T12:26:32Z</time>
      </trkpt>
      <trkpt lat="44.8549" lon="5.523">
        <ele>1857.89</ele>
        <time>2024-09-18T12:27:00Z</time>
      </trkpt>
      <trkpt lat="44.85491" lon="5.523">
        <ele>1856.44</ele>
        <time>2024-09-18T12:27:25Z</time>
      </trkpt>
      <trkpt lat="44.85491" lon="5.52301">
        <ele>1857.4</ele>
        <time>2024-09-18T12:27:50Z</time>
      </trkpt>
      <trkpt lat="44.85492" lon="5.52309">
        <ele>1858.85</ele>
        <time>2024-09-18T12:28:05Z</time>
      </trkpt>
      <trkpt lat="44.85493" lon="5.52317">
        <ele>1859.33</ele>
        <time>2024-09-18T12:28:19Z</time>
      </trkpt>
      <trkpt lat="44.85493" lon="5.52324">
        <ele>1861.25</ele>
        <time>2024-09-18T12:28:33Z</time>
      </trkpt>
      <trkpt lat="44.85495" lon="5.52325">
        <ele>1864.13</ele>
        <time>2024-09-18T12:28:54Z</time>
      </trkpt>
      <trkpt lat="44.85495" lon="5.52327">
        <ele>1864.13</ele>
        <time>2024-09-18T12:29:12Z</time>
      </trkpt>
      <trkpt lat="44.85494" lon="5.52327">
        <ele>1862.69</ele>
        <time>2024-09-18T12:29:30Z</time>
      </trkpt>
      <trkpt lat="44.85494" lon="5.5233">
        <ele>1864.13</ele>
        <time>2024-09-18T12:29:48Z</time>
      </trkpt>
      <trkpt lat="44.8549" lon="5.52327">
        <ele>1862.69</ele>
        <time>2024-09-18T12:30:03Z</time>
      </trkpt>
      <trkpt lat="44.85493" lon="5.52325">
        <ele>1863.65</ele>
        <time>2024-09-18T12:30:30Z</time>
      </trkpt>
      <trkpt lat="44.85493" lon="5.52324">
        <ele>1862.69</ele>
        <time>2024-09-18T12:30:47Z</time>
      </trkpt>
      <trkpt lat="44.85494" lon="5.52324">
        <ele>1865.09</ele>
        <time>2024-09-18T12:30:59Z</time>
      </trkpt>
      <trkpt lat="44.85494" lon="5.52325">
        <ele>1866.06</ele>
        <time>2024-09-18T12:31:16Z</time>
      </trkpt>
      <trkpt lat="44.85491" lon="5.52325">
        <ele>1864.13</ele>
        <time>2024-09-18T12:31:28Z</time>
      </trkpt>
      <trkpt lat="44.85492" lon="5.52325">
        <ele>1863.65</ele>
        <time>2024-09-18T12:31:53Z</time>
      </trkpt>
      <trkpt lat="44.85497" lon="5.52327">
        <ele>1862.21</ele>
        <time>2024-09-18T12:32:09Z</time>
      </trkpt>
      <trkpt lat="44.85497" lon="5.52327">
        <ele>1862.21</ele>
        <time>2024-09-18T12:32:27Z</time>
      </trkpt>
      <trkpt lat="44.85497" lon="5.52331">
        <ele>1862.21</ele>
        <time>2024-09-18T12:32:40Z</time>
      </trkpt>
      <trkpt lat="44.85496" lon="5.52333">
        <ele>1862.69</ele>
        <time>2024-09-18T12:33:06Z</time>
      </trkpt>
      <trkpt lat="44.85497" lon="5.5233">
        <ele>1861.25</ele>
        <time>2024-09-18T12:33:20Z</time>
      </trkpt>
      <trkpt lat="44.85495" lon="5.52326">
        <ele>1861.25</ele>
        <time>2024-09-18T12:33:36Z</time>
      </trkpt>
      <trkpt lat="44.85494" lon="5.5233">
        <ele>1859.33</ele>
        <time>2024-09-18T12:34:04Z</time>
      </trkpt>
      <trkpt lat="44.85492" lon="5.5233">
        <ele>1861.25</ele>
        <time>2024-09-18T12:34:24Z</time>
      </trkpt>
      <trkpt lat="44.85491" lon="5.52329">
        <ele>1861.25</ele>
        <time>2024-09-18T12:34:38Z</time>
      </trkpt>
      <trkpt lat="44.85493" lon="5.52327">
        <ele>1862.21</ele>
        <time>2024-09-18T12:34:52Z</time>
      </trkpt>
      <trkpt lat="44.85492" lon="5.52324">
        <ele>1859.33</ele>
        <time>2024-09-18T12:35:18Z</time>
      </trkpt>
      <trkpt lat="44.8549" lon="5.52327">
        <ele>1859.33</ele>
        <time>2024-09-18T12:35:42Z</time>
      </trkpt>
      <trkpt lat="44.85492" lon="5.52329">
        <ele>1858.37</ele>
        <time>2024-09-18T12:36:04Z</time>
      </trkpt>
      <trkpt lat="44.85495" lon="5.52328">
        <ele>1859.81</ele>
        <time>2024-09-18T12:36:20Z</time>
      </trkpt>
      <trkpt lat="44.85495" lon="5.52332">
        <ele>1856.92</ele>
        <time>2024-09-18T12:36:41Z</time>
      </trkpt>
      <trkpt lat="44.85496" lon="5.52332">
        <ele>1858.85</ele>
        <time>2024-09-18T12:37:01Z</time>
      </trkpt>
      <trkpt lat="44.85497" lon="5.52332">
        <ele>1859.81</ele>
        <time>2024-09-18T12:37:37Z</time>
      </trkpt>
      <trkpt lat="44.85495" lon="5.52328">
        <ele>1859.33</ele>
        <time>2024-09-18T12:37:58Z</time>
      </trkpt>
      <trkpt lat="44.85493" lon="5.52325">
        <ele>1864.61</ele>
        <time>2024-09-18T12:38:20Z</time>
      </trkpt>
      <trkpt lat="44.85496" lon="5.52329">
        <ele>1865.09</ele>
        <time>2024-09-18T12:38:33Z</time>
      </trkpt>
      <trkpt lat="44.85497" lon="5.52331">
        <ele>1867.02</ele>
        <time>2024-09-18T12:39:01Z</time>
      </trkpt>
      <trkpt lat="44.85497" lon="5.52327">
        <ele>1867.02</ele>
        <time>2024-09-18T12:39:13Z</time>
      </trkpt>
      <trkpt lat="44.85492" lon="5.52327">
        <ele>1865.09</ele>
        <time>2024-09-18T12:39:32Z</time>
      </trkpt>
      <trkpt lat="44.85494" lon="5.52329">
        <ele>1863.65</ele>
        <time>2024-09-18T12:39:46Z</time>
      </trkpt>
      <trkpt lat="44.85492" lon="5.52328">
        <ele>1864.61</ele>
        <time>2024-09-18T12:40:11Z</time>
      </trkpt>
      <trkpt lat="44.85491" lon="5.52329">
        <ele>1864.61</ele>
        <time>2024-09-18T12:40:30Z</time>
      </trkpt>
      <trkpt lat="44.85497" lon="5.52326">
        <ele>1865.09</ele>
        <time>2024-09-18T12:40:47Z</time>
      </trkpt>
      <trkpt lat="44.85503" lon="5.52328">
        <ele>1865.58</ele>
        <time>2024-09-18T12:41:02Z</time>
      </trkpt>
      <trkpt lat="44.85505" lon="5.52329">
        <ele>1866.06</ele>
        <time>2024-09-18T12:41:36Z</time>
      </trkpt>
      <trkpt lat="44.85504" lon="5.5233">
        <ele>1866.06</ele>
        <time>2024-09-18T12:42:00Z</time>
      </trkpt>
      <trkpt lat="44.855" lon="5.5233">
        <ele>1867.98</ele>
        <time>2024-09-18T12:42:19Z</time>
      </trkpt>
      <trkpt lat="44.85501" lon="5.52324">
        <ele>1867.5</ele>
        <time>2024-09-18T12:42:34Z</time>
      </trkpt>
      <trkpt lat="44.85506" lon="5.52326">
        <ele>1867.98</ele>
        <time>2024-09-18T12:42:48Z</time>
      </trkpt>
      <trkpt lat="44.85506" lon="5.52324">
        <ele>1868.94</ele>
        <time>2024-09-18T12:43:07Z</time>
      </trkpt>
      <trkpt lat="44.855" lon="5.52325">
        <ele>1867.98</ele>
        <time>2024-09-18T12:43:22Z</time>
      </trkpt>
      <trkpt lat="44.85495" lon="5.52326">
        <ele>1867.02</ele>
        <time>2024-09-18T12:43:38Z</time>
      </trkpt>
      <trkpt lat="44.85493" lon="5.52325">
        <ele>1865.58</ele>
        <time>2024-09-18T12:43:57Z</time>
      </trkpt>
      <trkpt lat="44.85492" lon="5.52318">
        <ele>1861.25</ele>
        <time>2024-09-18T12:44:17Z</time>
      </trkpt>
      <trkpt lat="44.85494" lon="5.52316">
        <ele>1859.81</ele>
        <time>2024-09-18T12:44:33Z</time>
      </trkpt>
      <trkpt lat="44.85496" lon="5.52329">
        <ele>1859.33</ele>
        <time>2024-09-18T12:44:47Z</time>
      </trkpt>
      <trkpt lat="44.85494" lon="5.52329">
        <ele>1861.25</ele>
        <time>2024-09-18T12:45:00Z</time>
      </trkpt>
      <trkpt lat="44.85494" lon="5.52319">
        <ele>1861.25</ele>
        <time>2024-09-18T12:45:15Z</time>
      </trkpt>
      <trkpt lat="44.85494" lon="5.52323">
        <ele>1860.77</ele>
        <time>2024-09-18T12:45:31Z</time>
      </trkpt>
      <trkpt lat="44.85493" lon="5.52323">
        <ele>1859.33</ele>
        <time>2024-09-18T12:46:02Z</time>
      </trkpt>
      <trkpt lat="44.85494" lon="5.52322">
        <ele>1859.81</ele>
        <time>2024-09-18T12:46:25Z</time>
      </trkpt>
      <trkpt lat="44.85493" lon="5.52324">
        <ele>1858.37</ele>
        <time>2024-09-18T12:46:51Z</time>
      </trkpt>
      <trkpt lat="44.85496" lon="5.52327">
        <ele>1859.81</ele>
        <time>2024-09-18T12:47:09Z</time>
      </trkpt>
      <trkpt lat="44.85493" lon="5.52323">
        <ele>1862.21</ele>
        <time>2024-09-18T12:47:28Z</time>
      </trkpt>
      <trkpt lat="44.85495" lon="5.5233">
        <ele>1860.77</ele>
        <time>2024-09-18T12:47:54Z</time>
      </trkpt>
      <trkpt lat="44.85497" lon="5.52332">
        <ele>1864.61</ele>
        <time>2024-09-18T12:48:11Z</time>
      </trkpt>
      <trkpt lat="44.85498" lon="5.52334">
        <ele>1866.54</ele>
        <time>2024-09-18T12:48:39Z</time>
      </trkpt>
      <trkpt lat="44.85493" lon="5.52336">
        <ele>1866.06</ele>
        <time>2024-09-18T12:48:51Z</time>
      </trkpt>
      <trkpt lat="44.85493" lon="5.52336">
        <ele>1865.58</ele>
        <time>2024-09-18T12:49:08Z</time>
      </trkpt>
      <trkpt lat="44.85496" lon="5.52329">
        <ele>1863.17</ele>
        <time>2024-09-18T12:49:24Z</time>
      </trkpt>
      <trkpt lat="44.85496" lon="5.52328">
        <ele>1863.17</ele>
        <time>2024-09-18T12:49:43Z</time>
      </trkpt>
      <trkpt lat="44.85496" lon="5.52328">
        <ele>1863.17</ele>
        <time>2024-09-18T12:49:59Z</time>
      </trkpt>
      <trkpt lat="44.85497" lon="5.52326">
        <ele>1863.65</ele>
        <time>2024-09-18T12:50:18Z</time>
      </trkpt>
      <trkpt lat="44.85495" lon="5.52324">
        <ele>1865.58</ele>
        <time>2024-09-18T12:50:39Z</time>
      </trkpt>
      <trkpt lat="44.85494" lon="5.52326">
        <ele>1865.58</ele>
        <time>2024-09-18T12:51:01Z</time>
      </trkpt>
      <trkpt lat="44.85494" lon="5.52327">
        <ele>1864.13</ele>
        <time>2024-09-18T12:51:26Z</time>
      </trkpt>
      <trkpt lat="44.85491" lon="5.52326">
        <ele>1864.13</ele>
        <time>2024-09-18T12:52:08Z</time>
      </trkpt>
      <trkpt lat="44.85491" lon="5.52328">
        <ele>1862.69</ele>
        <time>2024-09-18T12:52:23Z</time>
      </trkpt>
      <trkpt lat="44.85486" lon="5.52315">
        <ele>1861.25</ele>
        <time>2024-09-18T12:52:38Z</time>
      </trkpt>
      <trkpt lat="44.85484" lon="5.52311">
        <ele>1860.77</ele>
        <time>2024-09-18T12:52:42Z</time>
      </trkpt>
      <trkpt lat="44.85477" lon="5.52301">
        <ele>1859.33</ele>
        <time>2024-09-18T12:52:52Z</time>
      </trkpt>
      <trkpt lat="44.85472" lon="5.52282">
        <ele>1859.33</ele>
        <time>2024-09-18T12:53:08Z</time>
      </trkpt>
      <trkpt lat="44.85466" lon="5.52279">
        <ele>1859.33</ele>
        <time>2024-09-18T12:53:14Z</time>
      </trkpt>
      <trkpt lat="44.8546" lon="5.52273">
        <ele>1859.33</ele>
        <time>2024-09-18T12:53:26Z</time>
      </trkpt>
      <trkpt lat="44.85461" lon="5.52272">
        <ele>1859.81</ele>
        <time>2024-09-18T12:53:43Z</time>
      </trkpt>
      <trkpt lat="44.85464" lon="5.52274">
        <ele>1856.92</ele>
        <time>2024-09-18T12:53:56Z</time>
      </trkpt>
      <trkpt lat="44.85465" lon="5.52279">
        <ele>1856.92</ele>
        <time>2024-09-18T12:54:13Z</time>
      </trkpt>
      <trkpt lat="44.85465" lon="5.52278">
        <ele>1858.85</ele>
        <time>2024-09-18T12:54:34Z</time>
      </trkpt>
      <trkpt lat="44.85468" lon="5.52273">
        <ele>1857.89</ele>
        <time>2024-09-18T12:54:48Z</time>
      </trkpt>
      <trkpt lat="44.85458" lon="5.52251">
        <ele>1858.37</ele>
        <time>2024-09-18T12:55:03Z</time>
      </trkpt>
      <trkpt lat="44.85447" lon="5.52239">
        <ele>1858.37</ele>
        <time>2024-09-18T12:55:16Z</time>
      </trkpt>
      <trkpt lat="44.8544" lon="5.52236">
        <ele>1857.4</ele>
        <time>2024-09-18T12:55:21Z</time>
      </trkpt>
      <trkpt lat="44.8541" lon="5.52235">
        <ele>1859.81</ele>
        <time>2024-09-18T12:55:35Z</time>
      </trkpt>
      <trkpt lat="44.85387" lon="5.52231">
        <ele>1861.73</ele>
        <time>2024-09-18T12:55:55Z</time>
      </trkpt>
      <trkpt lat="44.8536" lon="5.52223">
        <ele>1866.06</ele>
        <time>2024-09-18T12:56:11Z</time>
      </trkpt>
      <trkpt lat="44.85349" lon="5.52218">
        <ele>1869.9</ele>
        <time>2024-09-18T12:56:21Z</time>
      </trkpt>
      <trkpt lat="44.85343" lon="5.52204">
        <ele>1871.34</ele>
        <time>2024-09-18T12:56:32Z</time>
      </trkpt>
      <trkpt lat="44.85344" lon="5.52199">
        <ele>1870.38</ele>
        <time>2024-09-18T12:56:50Z</time>
      </trkpt>
      <trkpt lat="44.85345" lon="5.52198">
        <ele>1870.86</ele>
        <time>2024-09-18T12:57:14Z</time>
      </trkpt>
      <trkpt lat="44.85341" lon="5.52186">
        <ele>1868.94</ele>
        <time>2024-09-18T12:57:38Z</time>
      </trkpt>
      <trkpt lat="44.8533" lon="5.52149">
        <ele>1867.98</ele>
        <time>2024-09-18T12:57:59Z</time>
      </trkpt>
      <trkpt lat="44.85319" lon="5.52127">
        <ele>1868.94</ele>
        <time>2024-09-18T12:58:15Z</time>
      </trkpt>
      <trkpt lat="44.85308" lon="5.52107">
        <ele>1871.34</ele>
        <time>2024-09-18T12:58:31Z</time>
      </trkpt>
      <trkpt lat="44.85306" lon="5.52103">
        <ele>1871.34</ele>
        <time>2024-09-18T12:58:34Z</time>
      </trkpt>
      <trkpt lat="44.85306" lon="5.52092">
        <ele>1870.86</ele>
        <time>2024-09-18T12:58:40Z</time>
      </trkpt>
      <trkpt lat="44.85305" lon="5.52089">
        <ele>1870.86</ele>
        <time>2024-09-18T12:58:41Z</time>
      </trkpt>
      <trkpt lat="44.85304" lon="5.52088">
        <ele>1870.86</ele>
        <time>2024-09-18T12:58:42Z</time>
      </trkpt>
      <trkpt lat="44.85303" lon="5.52086">
        <ele>1870.86</ele>
        <time>2024-09-18T12:58:43Z</time>
      </trkpt>
      <trkpt lat="44.85302" lon="5.52085">
        <ele>1870.38</ele>
        <time>2024-09-18T12:58:44Z</time>
      </trkpt>
      <trkpt lat="44.85284" lon="5.52066">
        <ele>1871.82</ele>
        <time>2024-09-18T12:59:01Z</time>
      </trkpt>
      <trkpt lat="44.85283" lon="5.52065">
        <ele>1871.82</ele>
        <time>2024-09-18T12:59:02Z</time>
      </trkpt>
      <trkpt lat="44.85281" lon="5.52064">
        <ele>1871.82</ele>
        <time>2024-09-18T12:59:03Z</time>
      </trkpt>
      <trkpt lat="44.85265" lon="5.52046">
        <ele>1873.27</ele>
        <time>2024-09-18T12:59:18Z</time>
      </trkpt>
      <trkpt lat="44.85248" lon="5.52019">
        <ele>1873.75</ele>
        <time>2024-09-18T12:59:36Z</time>
      </trkpt>
      <trkpt lat="44.85229" lon="5.51992">
        <ele>1873.75</ele>
        <time>2024-09-18T12:59:47Z</time>
      </trkpt>
      <trkpt lat="44.8521" lon="5.51977">
        <ele>1873.75</ele>
        <time>2024-09-18T13:00:03Z</time>
      </trkpt>
      <trkpt lat="44.85189" lon="5.51952">
        <ele>1872.79</ele>
        <time>2024-09-18T13:00:18Z</time>
      </trkpt>
      <trkpt lat="44.8517" lon="5.51926">
        <ele>1870.38</ele>
        <time>2024-09-18T13:00:36Z</time>
      </trkpt>
      <trkpt lat="44.85151" lon="5.51905">
        <ele>1867.02</ele>
        <time>2024-09-18T13:00:50Z</time>
      </trkpt>
      <trkpt lat="44.85128" lon="5.51884">
        <ele>1866.06</ele>
        <time>2024-09-18T13:01:06Z</time>
      </trkpt>
      <trkpt lat="44.85104" lon="5.51864">
        <ele>1874.23</ele>
        <time>2024-09-18T13:01:27Z</time>
      </trkpt>
      <trkpt lat="44.85079" lon="5.51837">
        <ele>1874.71</ele>
        <time>2024-09-18T13:01:45Z</time>
      </trkpt>
      <trkpt lat="44.85053" lon="5.5181">
        <ele>1875.19</ele>
        <time>2024-09-18T13:02:04Z</time>
      </trkpt>
      <trkpt lat="44.85036" lon="5.51789">
        <ele>1876.63</ele>
        <time>2024-09-18T13:02:21Z</time>
      </trkpt>
      <trkpt lat="44.85016" lon="5.51763">
        <ele>1876.15</ele>
        <time>2024-09-18T13:02:38Z</time>
      </trkpt>
      <trkpt lat="44.84996" lon="5.51742">
        <ele>1874.71</ele>
        <time>2024-09-18T13:02:55Z</time>
      </trkpt>
      <trkpt lat="44.84974" lon="5.51731">
        <ele>1872.3</ele>
        <time>2024-09-18T13:03:11Z</time>
      </trkpt>
      <trkpt lat="44.84948" lon="5.51715">
        <ele>1868.94</ele>
        <time>2024-09-18T13:03:29Z</time>
      </trkpt>
      <trkpt lat="44.8493" lon="5.51693">
        <ele>1863.65</ele>
        <time>2024-09-18T13:03:45Z</time>
      </trkpt>
      <trkpt lat="44.84918" lon="5.51668">
        <ele>1857.89</ele>
        <time>2024-09-18T13:03:59Z</time>
      </trkpt>
      <trkpt lat="44.84906" lon="5.51661">
        <ele>1854.04</ele>
        <time>2024-09-18T13:04:10Z</time>
      </trkpt>
      <trkpt lat="44.84888" lon="5.51635">
        <ele>1848.27</ele>
        <time>2024-09-18T13:04:29Z</time>
      </trkpt>
      <trkpt lat="44.84876" lon="5.51612">
        <ele>1844.43</ele>
        <time>2024-09-18T13:04:46Z</time>
      </trkpt>
      <trkpt lat="44.84868" lon="5.51594">
        <ele>1840.1</ele>
        <time>2024-09-18T13:04:59Z</time>
      </trkpt>
      <trkpt lat="44.84847" lon="5.51579">
        <ele>1834.33</ele>
        <time>2024-09-18T13:05:15Z</time>
      </trkpt>
      <trkpt lat="44.8483" lon="5.51548">
        <ele>1826.16</ele>
        <time>2024-09-18T13:05:31Z</time>
      </trkpt>
      <trkpt lat="44.84808" lon="5.51532">
        <ele>1825.68</ele>
        <time>2024-09-18T13:05:43Z</time>
      </trkpt>
      <trkpt lat="44.84785" lon="5.51513">
        <ele>1823.76</ele>
        <time>2024-09-18T13:06:02Z</time>
      </trkpt>
      <trkpt lat="44.84765" lon="5.51492">
        <ele>1823.76</ele>
        <time>2024-09-18T13:06:13Z</time>
      </trkpt>
      <trkpt lat="44.84744" lon="5.51467">
        <ele>1824.72</ele>
        <time>2024-09-18T13:06:30Z</time>
      </trkpt>
      <trkpt lat="44.84727" lon="5.51441">
        <ele>1833.85</ele>
        <time>2024-09-18T13:06:50Z</time>
      </trkpt>
      <trkpt lat="44.8471" lon="5.51418">
        <ele>1838.18</ele>
        <time>2024-09-18T13:07:07Z</time>
      </trkpt>
      <trkpt lat="44.84693" lon="5.51393">
        <ele>1836.74</ele>
        <time>2024-09-18T13:07:23Z</time>
      </trkpt>
      <trkpt lat="44.8468" lon="5.5138">
        <ele>1837.22</ele>
        <time>2024-09-18T13:07:31Z</time>
      </trkpt>
      <trkpt lat="44.84672" lon="5.51348">
        <ele>1838.66</ele>
        <time>2024-09-18T13:07:45Z</time>
      </trkpt>
      <trkpt lat="44.84651" lon="5.51331">
        <ele>1841.54</ele>
        <time>2024-09-18T13:07:58Z</time>
      </trkpt>
      <trkpt lat="44.84637" lon="5.51315">
        <ele>1846.35</ele>
        <time>2024-09-18T13:08:11Z</time>
      </trkpt>
      <trkpt lat="44.84622" lon="5.51304">
        <ele>1850.19</ele>
        <time>2024-09-18T13:08:24Z</time>
      </trkpt>
      <trkpt lat="44.84618" lon="5.51289">
        <ele>1851.64</ele>
        <time>2024-09-18T13:08:31Z</time>
      </trkpt>
      <trkpt lat="44.84603" lon="5.51273">
        <ele>1855.48</ele>
        <time>2024-09-18T13:08:46Z</time>
      </trkpt>
      <trkpt lat="44.84601" lon="5.51275">
        <ele>1856.44</ele>
        <time>2024-09-18T13:08:51Z</time>
      </trkpt>
      <trkpt lat="44.84602" lon="5.51308">
        <ele>1852.6</ele>
        <time>2024-09-18T13:09:09Z</time>
      </trkpt>
      <trkpt lat="44.84603" lon="5.51312">
        <ele>1852.6</ele>
        <time>2024-09-18T13:09:12Z</time>
      </trkpt>
      <trkpt lat="44.84608" lon="5.51336">
        <ele>1855</ele>
        <time>2024-09-18T13:09:28Z</time>
      </trkpt>
      <trkpt lat="44.84605" lon="5.51356">
        <ele>1857.89</ele>
        <time>2024-09-18T13:09:43Z</time>
      </trkpt>
      <trkpt lat="44.84597" lon="5.51373">
        <ele>1861.25</ele>
        <time>2024-09-18T13:09:55Z</time>
      </trkpt>
      <trkpt lat="44.84595" lon="5.51383">
        <ele>1862.21</ele>
        <time>2024-09-18T13:10:03Z</time>
      </trkpt>
      <trkpt lat="44.84593" lon="5.51393">
        <ele>1863.17</ele>
        <time>2024-09-18T13:10:09Z</time>
      </trkpt>
      <trkpt lat="44.84587" lon="5.51392">
        <ele>1867.02</ele>
        <time>2024-09-18T13:10:13Z</time>
      </trkpt>
      <trkpt lat="44.84585" lon="5.51391">
        <ele>1868.46</ele>
        <time>2024-09-18T13:10:15Z</time>
      </trkpt>
      <trkpt lat="44.84576" lon="5.51387">
        <ele>1873.27</ele>
        <time>2024-09-18T13:10:22Z</time>
      </trkpt>
      <trkpt lat="44.84571" lon="5.51383">
        <ele>1875.19</ele>
        <time>2024-09-18T13:10:25Z</time>
      </trkpt>
      <trkpt lat="44.84555" lon="5.51371">
        <ele>1882.88</ele>
        <time>2024-09-18T13:10:41Z</time>
      </trkpt>
      <trkpt lat="44.84538" lon="5.51368">
        <ele>1886.24</ele>
        <time>2024-09-18T13:10:56Z</time>
      </trkpt>
      <trkpt lat="44.84516" lon="5.51365">
        <ele>1890.57</ele>
        <time>2024-09-18T13:11:09Z</time>
      </trkpt>
      <trkpt lat="44.84489" lon="5.51365">
        <ele>1894.42</ele>
        <time>2024-09-18T13:11:22Z</time>
      </trkpt>
      <trkpt lat="44.84464" lon="5.51371">
        <ele>1893.45</ele>
        <time>2024-09-18T13:11:37Z</time>
      </trkpt>
      <trkpt lat="44.84443" lon="5.51369">
        <ele>1892.01</ele>
        <time>2024-09-18T13:11:52Z</time>
      </trkpt>
      <trkpt lat="44.84427" lon="5.51364">
        <ele>1890.57</ele>
        <time>2024-09-18T13:12:06Z</time>
      </trkpt>
      <trkpt lat="44.84415" lon="5.5136">
        <ele>1888.17</ele>
        <time>2024-09-18T13:12:16Z</time>
      </trkpt>
      <trkpt lat="44.84401" lon="5.51375">
        <ele>1885.76</ele>
        <time>2024-09-18T13:12:32Z</time>
      </trkpt>
      <trkpt lat="44.8438" lon="5.51378">
        <ele>1880.96</ele>
        <time>2024-09-18T13:12:46Z</time>
      </trkpt>
      <trkpt lat="44.84355" lon="5.51369">
        <ele>1876.63</ele>
        <time>2024-09-18T13:13:01Z</time>
      </trkpt>
      <trkpt lat="44.84335" lon="5.5136">
        <ele>1874.71</ele>
        <time>2024-09-18T13:13:15Z</time>
      </trkpt>
      <trkpt lat="44.8432" lon="5.51352">
        <ele>1872.79</ele>
        <time>2024-09-18T13:13:27Z</time>
      </trkpt>
      <trkpt lat="44.84312" lon="5.51341">
        <ele>1869.9</ele>
        <time>2024-09-18T13:13:39Z</time>
      </trkpt>
      <trkpt lat="44.84311" lon="5.5134">
        <ele>1869.9</ele>
        <time>2024-09-18T13:13:40Z</time>
      </trkpt>
      <trkpt lat="44.8431" lon="5.51339">
        <ele>1869.42</ele>
        <time>2024-09-18T13:13:41Z</time>
      </trkpt>
      <trkpt lat="44.843" lon="5.51325">
        <ele>1863.17</ele>
        <time>2024-09-18T13:13:54Z</time>
      </trkpt>
      <trkpt lat="44.84288" lon="5.513">
        <ele>1855</ele>
        <time>2024-09-18T13:14:11Z</time>
      </trkpt>
      <trkpt lat="44.84271" lon="5.51285">
        <ele>1851.64</ele>
        <time>2024-09-18T13:14:27Z</time>
      </trkpt>
      <trkpt lat="44.84252" lon="5.51264">
        <ele>1847.31</ele>
        <time>2024-09-18T13:14:43Z</time>
      </trkpt>
      <trkpt lat="44.84232" lon="5.5124">
        <ele>1846.35</ele>
        <time>2024-09-18T13:15:00Z</time>
      </trkpt>
      <trkpt lat="44.8422" lon="5.51217">
        <ele>1842.98</ele>
        <time>2024-09-18T13:15:16Z</time>
      </trkpt>
      <trkpt lat="44.84211" lon="5.51196">
        <ele>1836.26</ele>
        <time>2024-09-18T13:15:30Z</time>
      </trkpt>
      <trkpt lat="44.84193" lon="5.51182">
        <ele>1830.01</ele>
        <time>2024-09-18T13:15:45Z</time>
      </trkpt>
      <trkpt lat="44.84176" lon="5.51157">
        <ele>1828.56</ele>
        <time>2024-09-18T13:16:02Z</time>
      </trkpt>
      <trkpt lat="44.84163" lon="5.51123">
        <ele>1824.72</ele>
        <time>2024-09-18T13:16:20Z</time>
      </trkpt>
      <trkpt lat="44.84144" lon="5.51101">
        <ele>1822.8</ele>
        <time>2024-09-18T13:16:34Z</time>
      </trkpt>
      <trkpt lat="44.84131" lon="5.51066">
        <ele>1820.87</ele>
        <time>2024-09-18T13:16:48Z</time>
      </trkpt>
      <trkpt lat="44.84117" lon="5.51031">
        <ele>1816.07</ele>
        <time>2024-09-18T13:17:06Z</time>
      </trkpt>
      <trkpt lat="44.84105" lon="5.51012">
        <ele>1813.66</ele>
        <time>2024-09-18T13:17:19Z</time>
      </trkpt>
      <trkpt lat="44.84085" lon="5.50991">
        <ele>1810.3</ele>
        <time>2024-09-18T13:17:35Z</time>
      </trkpt>
      <trkpt lat="44.84067" lon="5.50967">
        <ele>1807.9</ele>
        <time>2024-09-18T13:17:51Z</time>
      </trkpt>
      <trkpt lat="44.84043" lon="5.50939">
        <ele>1804.53</ele>
        <time>2024-09-18T13:18:10Z</time>
      </trkpt>
      <trkpt lat="44.84021" lon="5.5092">
        <ele>1804.05</ele>
        <time>2024-09-18T13:18:26Z</time>
      </trkpt>
      <trkpt lat="44.84003" lon="5.50898">
        <ele>1802.61</ele>
        <time>2024-09-18T13:18:42Z</time>
      </trkpt>
      <trkpt lat="44.83984" lon="5.50879">
        <ele>1800.69</ele>
        <time>2024-09-18T13:18:57Z</time>
      </trkpt>
      <trkpt lat="44.8398" lon="5.50877">
        <ele>1800.21</ele>
        <time>2024-09-18T13:19:00Z</time>
      </trkpt>
      <trkpt lat="44.8398" lon="5.50875">
        <ele>1799.73</ele>
        <time>2024-09-18T13:19:01Z</time>
      </trkpt>
      <trkpt lat="44.8397" lon="5.50851">
        <ele>1795.4</ele>
        <time>2024-09-18T13:19:15Z</time>
      </trkpt>
      <trkpt lat="44.83952" lon="5.50831">
        <ele>1792.03</ele>
        <time>2024-09-18T13:19:30Z</time>
      </trkpt>
      <trkpt lat="44.83936" lon="5.50799">
        <ele>1789.63</ele>
        <time>2024-09-18T13:19:45Z</time>
      </trkpt>
      <trkpt lat="44.83916" lon="5.50768">
        <ele>1786.75</ele>
        <time>2024-09-18T13:20:04Z</time>
      </trkpt>
      <trkpt lat="44.83892" lon="5.50736">
        <ele>1784.34</ele>
        <time>2024-09-18T13:20:25Z</time>
      </trkpt>
      <trkpt lat="44.83877" lon="5.50717">
        <ele>1783.86</ele>
        <time>2024-09-18T13:20:38Z</time>
      </trkpt>
      <trkpt lat="44.83856" lon="5.50691">
        <ele>1781.46</ele>
        <time>2024-09-18T13:20:56Z</time>
      </trkpt>
      <trkpt lat="44.83834" lon="5.5066">
        <ele>1780.02</ele>
        <time>2024-09-18T13:21:15Z</time>
      </trkpt>
      <trkpt lat="44.83815" lon="5.5064">
        <ele>1778.58</ele>
        <time>2024-09-18T13:21:29Z</time>
      </trkpt>
      <trkpt lat="44.8379" lon="5.50621">
        <ele>1776.17</ele>
        <time>2024-09-18T13:21:48Z</time>
      </trkpt>
      <trkpt lat="44.83775" lon="5.50597">
        <ele>1781.94</ele>
        <time>2024-09-18T13:22:03Z</time>
      </trkpt>
      <trkpt lat="44.8376" lon="5.50559">
        <ele>1777.61</ele>
        <time>2024-09-18T13:22:22Z</time>
      </trkpt>
      <trkpt lat="44.83737" lon="5.50534">
        <ele>1778.58</ele>
        <time>2024-09-18T13:22:38Z</time>
      </trkpt>
      <trkpt lat="44.83717" lon="5.50507">
        <ele>1780.5</ele>
        <time>2024-09-18T13:22:56Z</time>
      </trkpt>
      <trkpt lat="44.83694" lon="5.50473">
        <ele>1779.54</ele>
        <time>2024-09-18T13:23:17Z</time>
      </trkpt>
      <trkpt lat="44.83678" lon="5.50455">
        <ele>1778.1</ele>
        <time>2024-09-18T13:23:31Z</time>
      </trkpt>
      <trkpt lat="44.83654" lon="5.50448">
        <ele>1777.13</ele>
        <time>2024-09-18T13:23:46Z</time>
      </trkpt>
      <trkpt lat="44.83632" lon="5.50433">
        <ele>1777.13</ele>
        <time>2024-09-18T13:24:03Z</time>
      </trkpt>
      <trkpt lat="44.83613" lon="5.50406">
        <ele>1779.54</ele>
        <time>2024-09-18T13:24:21Z</time>
      </trkpt>
      <trkpt lat="44.83596" lon="5.50383">
        <ele>1781.94</ele>
        <time>2024-09-18T13:24:38Z</time>
      </trkpt>
      <trkpt lat="44.8357" lon="5.50368">
        <ele>1781.94</ele>
        <time>2024-09-18T13:24:59Z</time>
      </trkpt>
      <trkpt lat="44.83551" lon="5.50352">
        <ele>1783.38</ele>
        <time>2024-09-18T13:25:15Z</time>
      </trkpt>
      <trkpt lat="44.83535" lon="5.50327">
        <ele>1781.94</ele>
        <time>2024-09-18T13:25:30Z</time>
      </trkpt>
      <trkpt lat="44.83521" lon="5.50302">
        <ele>1781.46</ele>
        <time>2024-09-18T13:25:46Z</time>
      </trkpt>
      <trkpt lat="44.83501" lon="5.50279">
        <ele>1780.5</ele>
        <time>2024-09-18T13:26:03Z</time>
      </trkpt>
      <trkpt lat="44.835" lon="5.50278">
        <ele>1780.5</ele>
        <time>2024-09-18T13:26:04Z</time>
      </trkpt>
      <trkpt lat="44.83499" lon="5.50277">
        <ele>1780.5</ele>
        <time>2024-09-18T13:26:05Z</time>
      </trkpt>
      <trkpt lat="44.83499" lon="5.50276">
        <ele>1780.5</ele>
        <time>2024-09-18T13:26:06Z</time>
      </trkpt>
      <trkpt lat="44.83498" lon="5.50275">
        <ele>1780.5</ele>
        <time>2024-09-18T13:26:07Z</time>
      </trkpt>
      <trkpt lat="44.83481" lon="5.50256">
        <ele>1777.13</ele>
        <time>2024-09-18T13:26:22Z</time>
      </trkpt>
      <trkpt lat="44.83472" lon="5.50239">
        <ele>1775.21</ele>
        <time>2024-09-18T13:26:33Z</time>
      </trkpt>
      <trkpt lat="44.83472" lon="5.50237">
        <ele>1775.21</ele>
        <time>2024-09-18T13:26:34Z</time>
      </trkpt>
      <trkpt lat="44.83472" lon="5.50235">
        <ele>1775.21</ele>
        <time>2024-09-18T13:26:35Z</time>
      </trkpt>
      <trkpt lat="44.83472" lon="5.50233">
        <ele>1774.73</ele>
        <time>2024-09-18T13:26:36Z</time>
      </trkpt>
      <trkpt lat="44.83471" lon="5.50232">
        <ele>1774.25</ele>
        <time>2024-09-18T13:26:37Z</time>
      </trkpt>
      <trkpt lat="44.83471" lon="5.5023">
        <ele>1774.25</ele>
        <time>2024-09-18T13:26:38Z</time>
      </trkpt>
      <trkpt lat="44.83471" lon="5.50228">
        <ele>1773.77</ele>
        <time>2024-09-18T13:26:39Z</time>
      </trkpt>
      <trkpt lat="44.83469" lon="5.50224">
        <ele>1772.81</ele>
        <time>2024-09-18T13:26:43Z</time>
      </trkpt>
      <trkpt lat="44.83469" lon="5.50223">
        <ele>1772.33</ele>
        <time>2024-09-18T13:26:44Z</time>
      </trkpt>
      <trkpt lat="44.83468" lon="5.50222">
        <ele>1772.33</ele>
        <time>2024-09-18T13:26:45Z</time>
      </trkpt>
      <trkpt lat="44.83467" lon="5.5022">
        <ele>1771.85</ele>
        <time>2024-09-18T13:26:46Z</time>
      </trkpt>
      <trkpt lat="44.83466" lon="5.50219">
        <ele>1771.85</ele>
        <time>2024-09-18T13:26:47Z</time>
      </trkpt>
      <trkpt lat="44.83461" lon="5.50204">
        <ele>1768.48</ele>
        <time>2024-09-18T13:26:58Z</time>
      </trkpt>
      <trkpt lat="44.83454" lon="5.50194">
        <ele>1764.64</ele>
        <time>2024-09-18T13:27:06Z</time>
      </trkpt>
      <trkpt lat="44.83453" lon="5.50193">
        <ele>1764.16</ele>
        <time>2024-09-18T13:27:07Z</time>
      </trkpt>
      <trkpt lat="44.8345" lon="5.50192">
        <ele>1762.71</ele>
        <time>2024-09-18T13:27:11Z</time>
      </trkpt>
      <trkpt lat="44.83449" lon="5.50191">
        <ele>1762.23</ele>
        <time>2024-09-18T13:27:12Z</time>
      </trkpt>
      <trkpt lat="44.83435" lon="5.50175">
        <ele>1760.79</ele>
        <time>2024-09-18T13:27:28Z</time>
      </trkpt>
      <trkpt lat="44.83424" lon="5.50161">
        <ele>1758.87</ele>
        <time>2024-09-18T13:27:41Z</time>
      </trkpt>
      <trkpt lat="44.83409" lon="5.50144">
        <ele>1756.95</ele>
        <time>2024-09-18T13:27:56Z</time>
      </trkpt>
      <trkpt lat="44.83392" lon="5.50131">
        <ele>1754.06</ele>
        <time>2024-09-18T13:28:11Z</time>
      </trkpt>
      <trkpt lat="44.83379" lon="5.50096">
        <ele>1752.14</ele>
        <time>2024-09-18T13:28:29Z</time>
      </trkpt>
      <trkpt lat="44.83369" lon="5.50081">
        <ele>1751.66</ele>
        <time>2024-09-18T13:28:39Z</time>
      </trkpt>
      <trkpt lat="44.83364" lon="5.50065">
        <ele>1751.66</ele>
        <time>2024-09-18T13:28:52Z</time>
      </trkpt>
      <trkpt lat="44.83354" lon="5.50051">
        <ele>1749.74</ele>
        <time>2024-09-18T13:29:08Z</time>
      </trkpt>
      <trkpt lat="44.83344" lon="5.50045">
        <ele>1747.81</ele>
        <time>2024-09-18T13:29:22Z</time>
      </trkpt>
      <trkpt lat="44.83337" lon="5.50019">
        <ele>1746.85</ele>
        <time>2024-09-18T13:29:36Z</time>
      </trkpt>
      <trkpt lat="44.83333" lon="5.50009">
        <ele>1746.85</ele>
        <time>2024-09-18T13:29:42Z</time>
      </trkpt>
      <trkpt lat="44.8332" lon="5.49986">
        <ele>1745.89</ele>
        <time>2024-09-18T13:29:59Z</time>
      </trkpt>
      <trkpt lat="44.83311" lon="5.49964">
        <ele>1744.45</ele>
        <time>2024-09-18T13:30:12Z</time>
      </trkpt>
      <trkpt lat="44.83295" lon="5.49935">
        <ele>1740.6</ele>
        <time>2024-09-18T13:30:30Z</time>
      </trkpt>
      <trkpt lat="44.83283" lon="5.49906">
        <ele>1740.12</ele>
        <time>2024-09-18T13:30:46Z</time>
      </trkpt>
      <trkpt lat="44.83271" lon="5.49871">
        <ele>1738.68</ele>
        <time>2024-09-18T13:31:05Z</time>
      </trkpt>
      <trkpt lat="44.83271" lon="5.49866">
        <ele>1738.68</ele>
        <time>2024-09-18T13:31:22Z</time>
      </trkpt>
      <trkpt lat="44.83271" lon="5.49861">
        <ele>1737.24</ele>
        <time>2024-09-18T13:31:38Z</time>
      </trkpt>
      <trkpt lat="44.83271" lon="5.4986">
        <ele>1733.88</ele>
        <time>2024-09-18T13:31:55Z</time>
      </trkpt>
      <trkpt lat="44.83266" lon="5.49852">
        <ele>1733.88</ele>
        <time>2024-09-18T13:32:17Z</time>
      </trkpt>
      <trkpt lat="44.83259" lon="5.49836">
        <ele>1732.43</ele>
        <time>2024-09-18T13:32:31Z</time>
      </trkpt>
      <trkpt lat="44.83258" lon="5.49835">
        <ele>1732.43</ele>
        <time>2024-09-18T13:32:32Z</time>
      </trkpt>
      <trkpt lat="44.83257" lon="5.49834">
        <ele>1732.43</ele>
        <time>2024-09-18T13:32:33Z</time>
      </trkpt>
      <trkpt lat="44.83248" lon="5.49811">
        <ele>1729.55</ele>
        <time>2024-09-18T13:32:49Z</time>
      </trkpt>
      <trkpt lat="44.83237" lon="5.49785">
        <ele>1726.67</ele>
        <time>2024-09-18T13:33:05Z</time>
      </trkpt>
      <trkpt lat="44.83223" lon="5.49763">
        <ele>1725.22</ele>
        <time>2024-09-18T13:33:20Z</time>
      </trkpt>
      <trkpt lat="44.83219" lon="5.49746">
        <ele>1723.78</ele>
        <time>2024-09-18T13:33:28Z</time>
      </trkpt>
      <trkpt lat="44.83218" lon="5.49745">
        <ele>1723.3</ele>
        <time>2024-09-18T13:33:29Z</time>
      </trkpt>
      <trkpt lat="44.83218" lon="5.49744">
        <ele>1723.3</ele>
        <time>2024-09-18T13:33:30Z</time>
      </trkpt>
      <trkpt lat="44.83217" lon="5.49742">
        <ele>1722.82</ele>
        <time>2024-09-18T13:33:31Z</time>
      </trkpt>
      <trkpt lat="44.83216" lon="5.49741">
        <ele>1721.86</ele>
        <time>2024-09-18T13:33:32Z</time>
      </trkpt>
      <trkpt lat="44.83208" lon="5.49724">
        <ele>1718.01</ele>
        <time>2024-09-18T13:33:45Z</time>
      </trkpt>
      <trkpt lat="44.83196" lon="5.49702">
        <ele>1715.13</ele>
        <time>2024-09-18T13:34:00Z</time>
      </trkpt>
      <trkpt lat="44.83182" lon="5.49672">
        <ele>1712.73</ele>
        <time>2024-09-18T13:34:16Z</time>
      </trkpt>
      <trkpt lat="44.83172" lon="5.49655">
        <ele>1710.32</ele>
        <time>2024-09-18T13:34:31Z</time>
      </trkpt>
      <trkpt lat="44.83159" lon="5.4963">
        <ele>1708.4</ele>
        <time>2024-09-18T13:34:46Z</time>
      </trkpt>
      <trkpt lat="44.83159" lon="5.49599">
        <ele>1705.52</ele>
        <time>2024-09-18T13:34:59Z</time>
      </trkpt>
      <trkpt lat="44.83151" lon="5.49586">
        <ele>1704.55</ele>
        <time>2024-09-18T13:35:09Z</time>
      </trkpt>
      <trkpt lat="44.83131" lon="5.49566">
        <ele>1703.11</ele>
        <time>2024-09-18T13:35:25Z</time>
      </trkpt>
      <trkpt lat="44.83114" lon="5.49548">
        <ele>1701.67</ele>
        <time>2024-09-18T13:35:40Z</time>
      </trkpt>
      <trkpt lat="44.83093" lon="5.49534">
        <ele>1702.63</ele>
        <time>2024-09-18T13:35:55Z</time>
      </trkpt>
      <trkpt lat="44.83074" lon="5.49515">
        <ele>1702.63</ele>
        <time>2024-09-18T13:36:10Z</time>
      </trkpt>
      <trkpt lat="44.83065" lon="5.49491">
        <ele>1702.15</ele>
        <time>2024-09-18T13:36:24Z</time>
      </trkpt>
      <trkpt lat="44.83052" lon="5.49457">
        <ele>1698.79</ele>
        <time>2024-09-18T13:36:43Z</time>
      </trkpt>
      <trkpt lat="44.83045" lon="5.49428">
        <ele>1694.94</ele>
        <time>2024-09-18T13:36:59Z</time>
      </trkpt>
      <trkpt lat="44.83035" lon="5.49405">
        <ele>1694.46</ele>
        <time>2024-09-18T13:37:12Z</time>
      </trkpt>
      <trkpt lat="44.83034" lon="5.49404">
        <ele>1694.46</ele>
        <time>2024-09-18T13:37:13Z</time>
      </trkpt>
      <trkpt lat="44.83034" lon="5.49402">
        <ele>1694.46</ele>
        <time>2024-09-18T13:37:14Z</time>
      </trkpt>
      <trkpt lat="44.83033" lon="5.49401">
        <ele>1694.46</ele>
        <time>2024-09-18T13:37:15Z</time>
      </trkpt>
      <trkpt lat="44.83033" lon="5.49399">
        <ele>1694.46</ele>
        <time>2024-09-18T13:37:16Z</time>
      </trkpt>
      <trkpt lat="44.83032" lon="5.49398">
        <ele>1694.46</ele>
        <time>2024-09-18T13:37:17Z</time>
      </trkpt>
      <trkpt lat="44.83031" lon="5.49396">
        <ele>1694.46</ele>
        <time>2024-09-18T13:37:18Z</time>
      </trkpt>
      <trkpt lat="44.83031" lon="5.49394">
        <ele>1694.46</ele>
        <time>2024-09-18T13:37:19Z</time>
      </trkpt>
      <trkpt lat="44.83027" lon="5.49385">
        <ele>1694.46</ele>
        <time>2024-09-18T13:37:25Z</time>
      </trkpt>
      <trkpt lat="44.83016" lon="5.49366">
        <ele>1693.5</ele>
        <time>2024-09-18T13:37:40Z</time>
      </trkpt>
      <trkpt lat="44.82998" lon="5.49343">
        <ele>1691.1</ele>
        <time>2024-09-18T13:37:58Z</time>
      </trkpt>
      <trkpt lat="44.82986" lon="5.49316">
        <ele>1691.58</ele>
        <time>2024-09-18T13:38:14Z</time>
      </trkpt>
      <trkpt lat="44.82969" lon="5.49296">
        <ele>1690.14</ele>
        <time>2024-09-18T13:38:31Z</time>
      </trkpt>
      <trkpt lat="44.82955" lon="5.49276">
        <ele>1688.69</ele>
        <time>2024-09-18T13:38:46Z</time>
      </trkpt>
      <trkpt lat="44.82954" lon="5.49274">
        <ele>1688.69</ele>
        <time>2024-09-18T13:38:48Z</time>
      </trkpt>
      <trkpt lat="44.82952" lon="5.49271">
        <ele>1688.69</ele>
        <time>2024-09-18T13:38:51Z</time>
      </trkpt>
      <trkpt lat="44.82951" lon="5.4927">
        <ele>1688.69</ele>
        <time>2024-09-18T13:38:52Z</time>
      </trkpt>
      <trkpt lat="44.82949" lon="5.49269">
        <ele>1688.69</ele>
        <time>2024-09-18T13:38:53Z</time>
      </trkpt>
      <trkpt lat="44.82949" lon="5.49268">
        <ele>1688.69</ele>
        <time>2024-09-18T13:38:54Z</time>
      </trkpt>
      <trkpt lat="44.82948" lon="5.49267">
        <ele>1688.21</ele>
        <time>2024-09-18T13:38:55Z</time>
      </trkpt>
      <trkpt lat="44.82946" lon="5.49256">
        <ele>1687.25</ele>
        <time>2024-09-18T13:39:02Z</time>
      </trkpt>
      <trkpt lat="44.82946" lon="5.49254">
        <ele>1687.25</ele>
        <time>2024-09-18T13:39:03Z</time>
      </trkpt>
      <trkpt lat="44.82936" lon="5.49232">
        <ele>1686.29</ele>
        <time>2024-09-18T13:39:17Z</time>
      </trkpt>
      <trkpt lat="44.82933" lon="5.49221">
        <ele>1685.33</ele>
        <time>2024-09-18T13:39:24Z</time>
      </trkpt>
      <trkpt lat="44.82932" lon="5.4922">
        <ele>1685.33</ele>
        <time>2024-09-18T13:39:25Z</time>
      </trkpt>
      <trkpt lat="44.8292" lon="5.49206">
        <ele>1684.85</ele>
        <time>2024-09-18T13:39:41Z</time>
      </trkpt>
      <trkpt lat="44.82919" lon="5.49205">
        <ele>1685.33</ele>
        <time>2024-09-18T13:39:43Z</time>
      </trkpt>
      <trkpt lat="44.82918" lon="5.49203">
        <ele>1685.33</ele>
        <time>2024-09-18T13:39:44Z</time>
      </trkpt>
      <trkpt lat="44.82917" lon="5.49203">
        <ele>1685.81</ele>
        <time>2024-09-18T13:39:45Z</time>
      </trkpt>
      <trkpt lat="44.82914" lon="5.49202">
        <ele>1686.77</ele>
        <time>2024-09-18T13:39:48Z</time>
      </trkpt>
      <trkpt lat="44.82912" lon="5.49203">
        <ele>1687.73</ele>
        <time>2024-09-18T13:39:51Z</time>
      </trkpt>
      <trkpt lat="44.8291" lon="5.49202">
        <ele>1687.73</ele>
        <time>2024-09-18T13:39:52Z</time>
      </trkpt>
      <trkpt lat="44.82909" lon="5.49201">
        <ele>1687.25</ele>
        <time>2024-09-18T13:39:53Z</time>
      </trkpt>
      <trkpt lat="44.829" lon="5.49187">
        <ele>1687.73</ele>
        <time>2024-09-18T13:40:05Z</time>
      </trkpt>
      <trkpt lat="44.82899" lon="5.49187">
        <ele>1687.73</ele>
        <time>2024-09-18T13:40:06Z</time>
      </trkpt>
      <trkpt lat="44.82898" lon="5.49186">
        <ele>1687.73</ele>
        <time>2024-09-18T13:40:07Z</time>
      </trkpt>
      <trkpt lat="44.82897" lon="5.49184">
        <ele>1687.25</ele>
        <time>2024-09-18T13:40:08Z</time>
      </trkpt>
      <trkpt lat="44.82896" lon="5.49182">
        <ele>1687.25</ele>
        <time>2024-09-18T13:40:09Z</time>
      </trkpt>
      <trkpt lat="44.82896" lon="5.49181">
        <ele>1687.25</ele>
        <time>2024-09-18T13:40:10Z</time>
      </trkpt>
      <trkpt lat="44.82895" lon="5.49179">
        <ele>1687.25</ele>
        <time>2024-09-18T13:40:11Z</time>
      </trkpt>
      <trkpt lat="44.82894" lon="5.49177">
        <ele>1686.77</ele>
        <time>2024-09-18T13:40:12Z</time>
      </trkpt>
      <trkpt lat="44.82891" lon="5.49173">
        <ele>1686.77</ele>
        <time>2024-09-18T13:40:16Z</time>
      </trkpt>
      <trkpt lat="44.8289" lon="5.49172">
        <ele>1686.77</ele>
        <time>2024-09-18T13:40:17Z</time>
      </trkpt>
      <trkpt lat="44.82889" lon="5.49171">
        <ele>1686.77</ele>
        <time>2024-09-18T13:40:18Z</time>
      </trkpt>
      <trkpt lat="44.82879" lon="5.49158">
        <ele>1686.77</ele>
        <time>2024-09-18T13:40:32Z</time>
      </trkpt>
      <trkpt lat="44.82872" lon="5.49145">
        <ele>1686.77</ele>
        <time>2024-09-18T13:40:41Z</time>
      </trkpt>
      <trkpt lat="44.82871" lon="5.49144">
        <ele>1685.81</ele>
        <time>2024-09-18T13:40:43Z</time>
      </trkpt>
      <trkpt lat="44.8287" lon="5.49143">
        <ele>1685.33</ele>
        <time>2024-09-18T13:40:44Z</time>
      </trkpt>
      <trkpt lat="44.8287" lon="5.49141">
        <ele>1684.85</ele>
        <time>2024-09-18T13:40:45Z</time>
      </trkpt>
      <trkpt lat="44.82864" lon="5.49136">
        <ele>1682.93</ele>
        <time>2024-09-18T13:40:52Z</time>
      </trkpt>
      <trkpt lat="44.82863" lon="5.49135">
        <ele>1682.93</ele>
        <time>2024-09-18T13:40:53Z</time>
      </trkpt>
      <trkpt lat="44.82862" lon="5.49134">
        <ele>1682.93</ele>
        <time>2024-09-18T13:40:54Z</time>
      </trkpt>
      <trkpt lat="44.82861" lon="5.49132">
        <ele>1682.44</ele>
        <time>2024-09-18T13:40:55Z</time>
      </trkpt>
      <trkpt lat="44.82861" lon="5.4913">
        <ele>1682.44</ele>
        <time>2024-09-18T13:40:56Z</time>
      </trkpt>
      <trkpt lat="44.82862" lon="5.49127">
        <ele>1681.96</ele>
        <time>2024-09-18T13:40:57Z</time>
      </trkpt>
      <trkpt lat="44.82861" lon="5.49124">
        <ele>1681.48</ele>
        <time>2024-09-18T13:40:58Z</time>
      </trkpt>
      <trkpt lat="44.82861" lon="5.49122">
        <ele>1681.48</ele>
        <time>2024-09-18T13:40:59Z</time>
      </trkpt>
      <trkpt lat="44.82857" lon="5.49098">
        <ele>1681.96</ele>
        <time>2024-09-18T13:41:12Z</time>
      </trkpt>
      <trkpt lat="44.8285" lon="5.49083">
        <ele>1680.52</ele>
        <time>2024-09-18T13:41:26Z</time>
      </trkpt>
      <trkpt lat="44.82852" lon="5.49077">
        <ele>1678.12</ele>
        <time>2024-09-18T13:41:33Z</time>
      </trkpt>
      <trkpt lat="44.82852" lon="5.4907">
        <ele>1677.16</ele>
        <time>2024-09-18T13:41:38Z</time>
      </trkpt>
      <trkpt lat="44.8285" lon="5.4906">
        <ele>1675.23</ele>
        <time>2024-09-18T13:41:48Z</time>
      </trkpt>
      <trkpt lat="44.82848" lon="5.49058">
        <ele>1675.23</ele>
        <time>2024-09-18T13:41:50Z</time>
      </trkpt>
      <trkpt lat="44.82847" lon="5.49058">
        <ele>1674.75</ele>
        <time>2024-09-18T13:41:51Z</time>
      </trkpt>
      <trkpt lat="44.82846" lon="5.49057">
        <ele>1674.75</ele>
        <time>2024-09-18T13:41:52Z</time>
      </trkpt>
      <trkpt lat="44.82846" lon="5.49056">
        <ele>1674.75</ele>
        <time>2024-09-18T13:41:53Z</time>
      </trkpt>
      <trkpt lat="44.82845" lon="5.49055">
        <ele>1674.75</ele>
        <time>2024-09-18T13:41:54Z</time>
      </trkpt>
      <trkpt lat="44.82843" lon="5.49038">
        <ele>1671.39</ele>
        <time>2024-09-18T13:42:07Z</time>
      </trkpt>
      <trkpt lat="44.82837" lon="5.49013">
        <ele>1667.06</ele>
        <time>2024-09-18T13:42:22Z</time>
      </trkpt>
      <trkpt lat="44.82832" lon="5.48975">
        <ele>1663.22</ele>
        <time>2024-09-18T13:42:41Z</time>
      </trkpt>
      <trkpt lat="44.8283" lon="5.48962">
        <ele>1662.74</ele>
        <time>2024-09-18T13:42:54Z</time>
      </trkpt>
      <trkpt lat="44.82831" lon="5.4896">
        <ele>1662.74</ele>
        <time>2024-09-18T13:42:56Z</time>
      </trkpt>
      <trkpt lat="44.82831" lon="5.48959">
        <ele>1662.74</ele>
        <time>2024-09-18T13:42:57Z</time>
      </trkpt>
      <trkpt lat="44.82833" lon="5.48952">
        <ele>1662.26</ele>
        <time>2024-09-18T13:43:04Z</time>
      </trkpt>
      <trkpt lat="44.82835" lon="5.48948">
        <ele>1661.78</ele>
        <time>2024-09-18T13:43:07Z</time>
      </trkpt>
      <trkpt lat="44.82837" lon="5.48935">
        <ele>1659.85</ele>
        <time>2024-09-18T13:43:19Z</time>
      </trkpt>
      <trkpt lat="44.82835" lon="5.48925">
        <ele>1658.41</ele>
        <time>2024-09-18T13:43:28Z</time>
      </trkpt>
      <trkpt lat="44.82834" lon="5.48924">
        <ele>1658.41</ele>
        <time>2024-09-18T13:43:29Z</time>
      </trkpt>
      <trkpt lat="44.82833" lon="5.48922">
        <ele>1657.93</ele>
        <time>2024-09-18T13:43:30Z</time>
      </trkpt>
      <trkpt lat="44.82828" lon="5.489">
        <ele>1656.97</ele>
        <time>2024-09-18T13:43:45Z</time>
      </trkpt>
      <trkpt lat="44.82827" lon="5.48889">
        <ele>1655.53</ele>
        <time>2024-09-18T13:43:55Z</time>
      </trkpt>
      <trkpt lat="44.82818" lon="5.48867">
        <ele>1650.72</ele>
        <time>2024-09-18T13:44:12Z</time>
      </trkpt>
      <trkpt lat="44.82815" lon="5.48863">
        <ele>1650.24</ele>
        <time>2024-09-18T13:44:15Z</time>
      </trkpt>
      <trkpt lat="44.82815" lon="5.48862">
        <ele>1649.76</ele>
        <time>2024-09-18T13:44:16Z</time>
      </trkpt>
      <trkpt lat="44.82814" lon="5.4886">
        <ele>1649.28</ele>
        <time>2024-09-18T13:44:17Z</time>
      </trkpt>
      <trkpt lat="44.82814" lon="5.48858">
        <ele>1649.28</ele>
        <time>2024-09-18T13:44:18Z</time>
      </trkpt>
      <trkpt lat="44.82815" lon="5.4885">
        <ele>1644.47</ele>
        <time>2024-09-18T13:44:33Z</time>
      </trkpt>
      <trkpt lat="44.82816" lon="5.48857">
        <ele>1642.55</ele>
        <time>2024-09-18T13:44:44Z</time>
      </trkpt>
      <trkpt lat="44.82819" lon="5.48865">
        <ele>1643.03</ele>
        <time>2024-09-18T13:44:50Z</time>
      </trkpt>
      <trkpt lat="44.82827" lon="5.48876">
        <ele>1643.03</ele>
        <time>2024-09-18T13:45:05Z</time>
      </trkpt>
      <trkpt lat="44.82826" lon="5.48875">
        <ele>1643.51</ele>
        <time>2024-09-18T13:45:23Z</time>
      </trkpt>
      <trkpt lat="44.82828" lon="5.48887">
        <ele>1643.99</ele>
        <time>2024-09-18T13:45:34Z</time>
      </trkpt>
      <trkpt lat="44.82827" lon="5.48888">
        <ele>1643.99</ele>
        <time>2024-09-18T13:45:35Z</time>
      </trkpt>
      <trkpt lat="44.82827" lon="5.4889">
        <ele>1643.99</ele>
        <time>2024-09-18T13:45:36Z</time>
      </trkpt>
      <trkpt lat="44.82827" lon="5.48899">
        <ele>1644.95</ele>
        <time>2024-09-18T13:45:43Z</time>
      </trkpt>
      <trkpt lat="44.8283" lon="5.48905">
        <ele>1645.91</ele>
        <time>2024-09-18T13:45:47Z</time>
      </trkpt>
      <trkpt lat="44.82837" lon="5.48911">
        <ele>1647.36</ele>
        <time>2024-09-18T13:46:00Z</time>
      </trkpt>
      <trkpt lat="44.82838" lon="5.48911">
        <ele>1647.36</ele>
        <time>2024-09-18T13:46:01Z</time>
      </trkpt>
      <trkpt lat="44.82841" lon="5.48906">
        <ele>1647.36</ele>
        <time>2024-09-18T13:46:07Z</time>
      </trkpt>
      <trkpt lat="44.82847" lon="5.4889">
        <ele>1644.47</ele>
        <time>2024-09-18T13:46:21Z</time>
      </trkpt>
      <trkpt lat="44.82848" lon="5.48875">
        <ele>1641.11</ele>
        <time>2024-09-18T13:46:36Z</time>
      </trkpt>
      <trkpt lat="44.82838" lon="5.48855">
        <ele>1637.74</ele>
        <time>2024-09-18T13:46:48Z</time>
      </trkpt>
      <trkpt lat="44.82835" lon="5.48833">
        <ele>1631.98</ele>
        <time>2024-09-18T13:47:01Z</time>
      </trkpt>
      <trkpt lat="44.82825" lon="5.48803">
        <ele>1625.73</ele>
        <time>2024-09-18T13:47:13Z</time>
      </trkpt>
      <trkpt lat="44.82814" lon="5.48799">
        <ele>1627.65</ele>
        <time>2024-09-18T13:47:26Z</time>
      </trkpt>
      <trkpt lat="44.82808" lon="5.48799">
        <ele>1629.09</ele>
        <time>2024-09-18T13:47:32Z</time>
      </trkpt>
      <trkpt lat="44.82787" lon="5.48781">
        <ele>1629.57</ele>
        <time>2024-09-18T13:47:45Z</time>
      </trkpt>
      <trkpt lat="44.82768" lon="5.48767">
        <ele>1629.57</ele>
        <time>2024-09-18T13:47:59Z</time>
      </trkpt>
      <trkpt lat="44.82765" lon="5.48762">
        <ele>1629.57</ele>
        <time>2024-09-18T13:48:03Z</time>
      </trkpt>
      <trkpt lat="44.82764" lon="5.48761">
        <ele>1629.57</ele>
        <time>2024-09-18T13:48:04Z</time>
      </trkpt>
      <trkpt lat="44.82763" lon="5.48759">
        <ele>1629.57</ele>
        <time>2024-09-18T13:48:05Z</time>
      </trkpt>
      <trkpt lat="44.82762" lon="5.48756">
        <ele>1629.09</ele>
        <time>2024-09-18T13:48:06Z</time>
      </trkpt>
      <trkpt lat="44.82762" lon="5.48754">
        <ele>1629.09</ele>
        <time>2024-09-18T13:48:07Z</time>
      </trkpt>
      <trkpt lat="44.82753" lon="5.48727">
        <ele>1625.73</ele>
        <time>2024-09-18T13:48:23Z</time>
      </trkpt>
      <trkpt lat="44.82753" lon="5.48703">
        <ele>1620.92</ele>
        <time>2024-09-18T13:48:35Z</time>
      </trkpt>
      <trkpt lat="44.82752" lon="5.48671">
        <ele>1613.71</ele>
        <time>2024-09-18T13:48:49Z</time>
      </trkpt>
      <trkpt lat="44.82753" lon="5.48621">
        <ele>1609.38</ele>
        <time>2024-09-18T13:49:10Z</time>
      </trkpt>
      <trkpt lat="44.82746" lon="5.48587">
        <ele>1608.42</ele>
        <time>2024-09-18T13:49:27Z</time>
      </trkpt>
      <trkpt lat="44.82737" lon="5.48551">
        <ele>1607.46</ele>
        <time>2024-09-18T13:49:45Z</time>
      </trkpt>
      <trkpt lat="44.82732" lon="5.48513">
        <ele>1606.02</ele>
        <time>2024-09-18T13:50:03Z</time>
      </trkpt>
      <trkpt lat="44.82728" lon="5.48483">
        <ele>1605.06</ele>
        <time>2024-09-18T13:50:18Z</time>
      </trkpt>
      <trkpt lat="44.82729" lon="5.48476">
        <ele>1604.58</ele>
        <time>2024-09-18T13:50:22Z</time>
      </trkpt>
      <trkpt lat="44.82734" lon="5.48475">
        <ele>1604.1</ele>
        <time>2024-09-18T13:50:34Z</time>
      </trkpt>
      <trkpt lat="44.82738" lon="5.48471">
        <ele>1603.14</ele>
        <time>2024-09-18T13:50:50Z</time>
      </trkpt>
      <trkpt lat="44.8274" lon="5.48471">
        <ele>1602.17</ele>
        <time>2024-09-18T13:51:11Z</time>
      </trkpt>
      <trkpt lat="44.8274" lon="5.48468">
        <ele>1606.5</ele>
        <time>2024-09-18T13:51:33Z</time>
      </trkpt>
      <trkpt lat="44.82741" lon="5.48468">
        <ele>1606.98</ele>
        <time>2024-09-18T13:51:45Z</time>
      </trkpt>
      <trkpt lat="44.82742" lon="5.48464">
        <ele>1606.02</ele>
        <time>2024-09-18T13:51:57Z</time>
      </trkpt>
      <trkpt lat="44.82744" lon="5.48466">
        <ele>1606.5</ele>
        <time>2024-09-18T13:52:09Z</time>
      </trkpt>
      <trkpt lat="44.82744" lon="5.48468">
        <ele>1608.42</ele>
        <time>2024-09-18T13:52:25Z</time>
      </trkpt>
      <trkpt lat="44.82741" lon="5.48468">
        <ele>1611.31</ele>
        <time>2024-09-18T13:52:51Z</time>
      </trkpt>
      <trkpt lat="44.8274" lon="5.48468">
        <ele>1607.46</ele>
        <time>2024-09-18T13:53:16Z</time>
      </trkpt>
      <trkpt lat="44.82739" lon="5.48467">
        <ele>1606.98</ele>
        <time>2024-09-18T13:53:37Z</time>
      </trkpt>
      <trkpt lat="44.8274" lon="5.48469">
        <ele>1604.58</ele>
        <time>2024-09-18T13:54:00Z</time>
      </trkpt>
      <trkpt lat="44.82741" lon="5.48472">
        <ele>1604.58</ele>
        <time>2024-09-18T13:54:03Z</time>
      </trkpt>
      <trkpt lat="44.82741" lon="5.48477">
        <ele>1604.58</ele>
        <time>2024-09-18T13:54:07Z</time>
      </trkpt>
      <trkpt lat="44.82741" lon="5.48478">
        <ele>1604.58</ele>
        <time>2024-09-18T13:54:08Z</time>
      </trkpt>
      <trkpt lat="44.82738" lon="5.48478">
        <ele>1604.58</ele>
        <time>2024-09-18T13:54:11Z</time>
      </trkpt>
      <trkpt lat="44.82732" lon="5.48471">
        <ele>1605.06</ele>
        <time>2024-09-18T13:54:22Z</time>
      </trkpt>
      <trkpt lat="44.82732" lon="5.48469">
        <ele>1603.62</ele>
        <time>2024-09-18T13:54:41Z</time>
      </trkpt>
      <trkpt lat="44.82732" lon="5.48466">
        <ele>1603.14</ele>
        <time>2024-09-18T13:55:00Z</time>
      </trkpt>
      <trkpt lat="44.82732" lon="5.48464">
        <ele>1603.14</ele>
        <time>2024-09-18T13:55:02Z</time>
      </trkpt>
      <trkpt lat="44.82731" lon="5.48462">
        <ele>1603.14</ele>
        <time>2024-09-18T13:55:03Z</time>
      </trkpt>
      <trkpt lat="44.8273" lon="5.4846">
        <ele>1603.14</ele>
        <time>2024-09-18T13:55:04Z</time>
      </trkpt>
      <trkpt lat="44.82723" lon="5.48438">
        <ele>1601.21</ele>
        <time>2024-09-18T13:55:17Z</time>
      </trkpt>
      <trkpt lat="44.82717" lon="5.48406">
        <ele>1600.73</ele>
        <time>2024-09-18T13:55:33Z</time>
      </trkpt>
      <trkpt lat="44.82712" lon="5.4838">
        <ele>1598.81</ele>
        <time>2024-09-18T13:55:45Z</time>
      </trkpt>
      <trkpt lat="44.82712" lon="5.48347">
        <ele>1598.33</ele>
        <time>2024-09-18T13:55:58Z</time>
      </trkpt>
      <trkpt lat="44.82719" lon="5.48322">
        <ele>1597.85</ele>
        <time>2024-09-18T13:56:10Z</time>
      </trkpt>
      <trkpt lat="44.82727" lon="5.48287">
        <ele>1596.41</ele>
        <time>2024-09-18T13:56:27Z</time>
      </trkpt>
      <trkpt lat="44.82731" lon="5.48255">
        <ele>1597.85</ele>
        <time>2024-09-18T13:56:44Z</time>
      </trkpt>
      <trkpt lat="44.82732" lon="5.48217">
        <ele>1599.77</ele>
        <time>2024-09-18T13:57:04Z</time>
      </trkpt>
      <trkpt lat="44.82741" lon="5.48196">
        <ele>1598.33</ele>
        <time>2024-09-18T13:57:19Z</time>
      </trkpt>
      <trkpt lat="44.82752" lon="5.48175">
        <ele>1597.37</ele>
        <time>2024-09-18T13:57:33Z</time>
      </trkpt>
      <trkpt lat="44.8276" lon="5.48149">
        <ele>1597.85</ele>
        <time>2024-09-18T13:57:49Z</time>
      </trkpt>
      <trkpt lat="44.82773" lon="5.48132">
        <ele>1601.69</ele>
        <time>2024-09-18T13:58:03Z</time>
      </trkpt>
      <trkpt lat="44.82782" lon="5.48112">
        <ele>1607.94</ele>
        <time>2024-09-18T13:58:17Z</time>
      </trkpt>
      <trkpt lat="44.82796" lon="5.48109">
        <ele>1610.35</ele>
        <time>2024-09-18T13:58:31Z</time>
      </trkpt>
      <trkpt lat="44.828" lon="5.4811">
        <ele>1610.83</ele>
        <time>2024-09-18T13:58:36Z</time>
      </trkpt>
      <trkpt lat="44.82801" lon="5.4811">
        <ele>1610.83</ele>
        <time>2024-09-18T13:58:37Z</time>
      </trkpt>
      <trkpt lat="44.82802" lon="5.4811">
        <ele>1611.31</ele>
        <time>2024-09-18T13:58:38Z</time>
      </trkpt>
      <trkpt lat="44.82823" lon="5.48096">
        <ele>1611.79</ele>
        <time>2024-09-18T13:58:54Z</time>
      </trkpt>
      <trkpt lat="44.82843" lon="5.48083">
        <ele>1609.86</ele>
        <time>2024-09-18T13:59:10Z</time>
      </trkpt>
      <trkpt lat="44.82862" lon="5.48073">
        <ele>1607.94</ele>
        <time>2024-09-18T13:59:23Z</time>
      </trkpt>
      <trkpt lat="44.82879" lon="5.48058">
        <ele>1607.46</ele>
        <time>2024-09-18T13:59:37Z</time>
      </trkpt>
      <trkpt lat="44.82899" lon="5.48045">
        <ele>1607.46</ele>
        <time>2024-09-18T13:59:49Z</time>
      </trkpt>
      <trkpt lat="44.82921" lon="5.48028">
        <ele>1610.83</ele>
        <time>2024-09-18T14:00:06Z</time>
      </trkpt>
      <trkpt lat="44.82935" lon="5.48015">
        <ele>1612.27</ele>
        <time>2024-09-18T14:00:18Z</time>
      </trkpt>
      <trkpt lat="44.82954" lon="5.47998">
        <ele>1612.75</ele>
        <time>2024-09-18T14:00:33Z</time>
      </trkpt>
      <trkpt lat="44.82972" lon="5.47978">
        <ele>1611.31</ele>
        <time>2024-09-18T14:00:46Z</time>
      </trkpt>
      <trkpt lat="44.82993" lon="5.47949">
        <ele>1611.79</ele>
        <time>2024-09-18T14:01:03Z</time>
      </trkpt>
      <trkpt lat="44.83005" lon="5.47933">
        <ele>1611.79</ele>
        <time>2024-09-18T14:01:15Z</time>
      </trkpt>
      <trkpt lat="44.83023" lon="5.47912">
        <ele>1615.15</ele>
        <time>2024-09-18T14:01:32Z</time>
      </trkpt>
      <trkpt lat="44.83034" lon="5.4789">
        <ele>1615.15</ele>
        <time>2024-09-18T14:01:43Z</time>
      </trkpt>
      <trkpt lat="44.83046" lon="5.47865">
        <ele>1617.56</ele>
        <time>2024-09-18T14:01:58Z</time>
      </trkpt>
      <trkpt lat="44.8305" lon="5.4786">
        <ele>1618.52</ele>
        <time>2024-09-18T14:02:02Z</time>
      </trkpt>
      <trkpt lat="44.83048" lon="5.47833">
        <ele>1620.92</ele>
        <time>2024-09-18T14:02:18Z</time>
      </trkpt>
      <trkpt lat="44.83045" lon="5.47811">
        <ele>1621.88</ele>
        <time>2024-09-18T14:02:30Z</time>
      </trkpt>
      <trkpt lat="44.83041" lon="5.47789">
        <ele>1621.4</ele>
        <time>2024-09-18T14:02:44Z</time>
      </trkpt>
      <trkpt lat="44.8305" lon="5.47764">
        <ele>1620.92</ele>
        <time>2024-09-18T14:02:58Z</time>
      </trkpt>
      <trkpt lat="44.83051" lon="5.4776">
        <ele>1620.92</ele>
        <time>2024-09-18T14:03:00Z</time>
      </trkpt>
      <trkpt lat="44.83054" lon="5.47749">
        <ele>1620.92</ele>
        <time>2024-09-18T14:03:06Z</time>
      </trkpt>
      <trkpt lat="44.83059" lon="5.47711">
        <ele>1622.36</ele>
        <time>2024-09-18T14:03:19Z</time>
      </trkpt>
      <trkpt lat="44.83065" lon="5.4768">
        <ele>1625.25</ele>
        <time>2024-09-18T14:03:36Z</time>
      </trkpt>
      <trkpt lat="44.83068" lon="5.47653">
        <ele>1628.13</ele>
        <time>2024-09-18T14:03:47Z</time>
      </trkpt>
      <trkpt lat="44.8306" lon="5.47623">
        <ele>1630.05</ele>
        <time>2024-09-18T14:04:01Z</time>
      </trkpt>
      <trkpt lat="44.83051" lon="5.47596">
        <ele>1633.42</ele>
        <time>2024-09-18T14:04:17Z</time>
      </trkpt>
      <trkpt lat="44.83039" lon="5.47563">
        <ele>1634.38</ele>
        <time>2024-09-18T14:04:34Z</time>
      </trkpt>
      <trkpt lat="44.83037" lon="5.47549">
        <ele>1636.78</ele>
        <time>2024-09-18T14:04:41Z</time>
      </trkpt>
      <trkpt lat="44.83026" lon="5.47522">
        <ele>1640.15</ele>
        <time>2024-09-18T14:04:55Z</time>
      </trkpt>
      <trkpt lat="44.83012" lon="5.47502">
        <ele>1643.51</ele>
        <time>2024-09-18T14:05:10Z</time>
      </trkpt>
      <trkpt lat="44.82998" lon="5.47487">
        <ele>1644.95</ele>
        <time>2024-09-18T14:05:21Z</time>
      </trkpt>
      <trkpt lat="44.82982" lon="5.47468">
        <ele>1647.36</ele>
        <time>2024-09-18T14:05:38Z</time>
      </trkpt>
      <trkpt lat="44.82974" lon="5.4744">
        <ele>1648.32</ele>
        <time>2024-09-18T14:05:50Z</time>
      </trkpt>
      <trkpt lat="44.82971" lon="5.47419">
        <ele>1651.2</ele>
        <time>2024-09-18T14:06:02Z</time>
      </trkpt>
      <trkpt lat="44.82971" lon="5.47417">
        <ele>1651.68</ele>
        <time>2024-09-18T14:06:03Z</time>
      </trkpt>
      <trkpt lat="44.8297" lon="5.47416">
        <ele>1651.68</ele>
        <time>2024-09-18T14:06:04Z</time>
      </trkpt>
      <trkpt lat="44.8297" lon="5.47414">
        <ele>1652.16</ele>
        <time>2024-09-18T14:06:05Z</time>
      </trkpt>
      <trkpt lat="44.8297" lon="5.47412">
        <ele>1652.16</ele>
        <time>2024-09-18T14:06:06Z</time>
      </trkpt>
      <trkpt lat="44.8297" lon="5.4741">
        <ele>1652.64</ele>
        <time>2024-09-18T14:06:07Z</time>
      </trkpt>
      <trkpt lat="44.8297" lon="5.47408">
        <ele>1652.64</ele>
        <time>2024-09-18T14:06:08Z</time>
      </trkpt>
      <trkpt lat="44.8297" lon="5.47381">
        <ele>1652.64</ele>
        <time>2024-09-18T14:06:24Z</time>
      </trkpt>
      <trkpt lat="44.82963" lon="5.47345">
        <ele>1654.57</ele>
        <time>2024-09-18T14:06:36Z</time>
      </trkpt>
      <trkpt lat="44.82963" lon="5.4731">
        <ele>1656.01</ele>
        <time>2024-09-18T14:06:55Z</time>
      </trkpt>
      <trkpt lat="44.82971" lon="5.47273">
        <ele>1656.01</ele>
        <time>2024-09-18T14:07:13Z</time>
      </trkpt>
      <trkpt lat="44.82984" lon="5.47244">
        <ele>1656.01</ele>
        <time>2024-09-18T14:07:31Z</time>
      </trkpt>
      <trkpt lat="44.83001" lon="5.47208">
        <ele>1656.49</ele>
        <time>2024-09-18T14:07:50Z</time>
      </trkpt>
      <trkpt lat="44.83009" lon="5.47184">
        <ele>1657.93</ele>
        <time>2024-09-18T14:08:02Z</time>
      </trkpt>
      <trkpt lat="44.83017" lon="5.47156">
        <ele>1658.89</ele>
        <time>2024-09-18T14:08:17Z</time>
      </trkpt>
      <trkpt lat="44.83017" lon="5.47121">
        <ele>1660.81</ele>
        <time>2024-09-18T14:08:35Z</time>
      </trkpt>
      <trkpt lat="44.83014" lon="5.47088">
        <ele>1662.26</ele>
        <time>2024-09-18T14:08:48Z</time>
      </trkpt>
      <trkpt lat="44.83013" lon="5.4706">
        <ele>1665.62</ele>
        <time>2024-09-18T14:09:05Z</time>
      </trkpt>
      <trkpt lat="44.83016" lon="5.47034">
        <ele>1666.58</ele>
        <time>2024-09-18T14:09:19Z</time>
      </trkpt>
      <trkpt lat="44.83025" lon="5.47004">
        <ele>1665.14</ele>
        <time>2024-09-18T14:09:35Z</time>
      </trkpt>
      <trkpt lat="44.83026" lon="5.47003">
        <ele>1665.14</ele>
        <time>2024-09-18T14:09:36Z</time>
      </trkpt>
      <trkpt lat="44.83027" lon="5.47001">
        <ele>1665.14</ele>
        <time>2024-09-18T14:09:37Z</time>
      </trkpt>
      <trkpt lat="44.83032" lon="5.46989">
        <ele>1664.66</ele>
        <time>2024-09-18T14:09:45Z</time>
      </trkpt>
      <trkpt lat="44.83033" lon="5.46988">
        <ele>1664.66</ele>
        <time>2024-09-18T14:09:46Z</time>
      </trkpt>
      <trkpt lat="44.83034" lon="5.46986">
        <ele>1664.66</ele>
        <time>2024-09-18T14:09:47Z</time>
      </trkpt>
      <trkpt lat="44.83035" lon="5.46984">
        <ele>1664.66</ele>
        <time>2024-09-18T14:09:48Z</time>
      </trkpt>
      <trkpt lat="44.83035" lon="5.46983">
        <ele>1664.66</ele>
        <time>2024-09-18T14:09:49Z</time>
      </trkpt>
      <trkpt lat="44.83043" lon="5.46952">
        <ele>1665.62</ele>
        <time>2024-09-18T14:10:01Z</time>
      </trkpt>
      <trkpt lat="44.83052" lon="5.46926">
        <ele>1666.1</ele>
        <time>2024-09-18T14:10:16Z</time>
      </trkpt>
      <trkpt lat="44.83054" lon="5.46919">
        <ele>1665.14</ele>
        <time>2024-09-18T14:10:19Z</time>
      </trkpt>
      <trkpt lat="44.83054" lon="5.46916">
        <ele>1665.14</ele>
        <time>2024-09-18T14:10:20Z</time>
      </trkpt>
      <trkpt lat="44.83054" lon="5.46914">
        <ele>1664.66</ele>
        <time>2024-09-18T14:10:21Z</time>
      </trkpt>
      <trkpt lat="44.83055" lon="5.46912">
        <ele>1664.66</ele>
        <time>2024-09-18T14:10:22Z</time>
      </trkpt>
      <trkpt lat="44.83055" lon="5.4691">
        <ele>1664.18</ele>
        <time>2024-09-18T14:10:23Z</time>
      </trkpt>
      <trkpt lat="44.83055" lon="5.46908">
        <ele>1663.7</ele>
        <time>2024-09-18T14:10:24Z</time>
      </trkpt>
      <trkpt lat="44.83063" lon="5.4688">
        <ele>1658.41</ele>
        <time>2024-09-18T14:10:39Z</time>
      </trkpt>
      <trkpt lat="44.83069" lon="5.4686">
        <ele>1654.57</ele>
        <time>2024-09-18T14:10:49Z</time>
      </trkpt>
      <trkpt lat="44.83069" lon="5.46858">
        <ele>1654.57</ele>
        <time>2024-09-18T14:10:50Z</time>
      </trkpt>
      <trkpt lat="44.83083" lon="5.46827">
        <ele>1651.2</ele>
        <time>2024-09-18T14:11:05Z</time>
      </trkpt>
      <trkpt lat="44.83102" lon="5.46803">
        <ele>1650.72</ele>
        <time>2024-09-18T14:11:20Z</time>
      </trkpt>
      <trkpt lat="44.83119" lon="5.46773">
        <ele>1648.32</ele>
        <time>2024-09-18T14:11:37Z</time>
      </trkpt>
      <trkpt lat="44.8313" lon="5.46742">
        <ele>1645.91</ele>
        <time>2024-09-18T14:11:53Z</time>
      </trkpt>
      <trkpt lat="44.83137" lon="5.46714">
        <ele>1643.99</ele>
        <time>2024-09-18T14:12:07Z</time>
      </trkpt>
      <trkpt lat="44.83132" lon="5.46696">
        <ele>1641.11</ele>
        <time>2024-09-18T14:12:21Z</time>
      </trkpt>
      <trkpt lat="44.83125" lon="5.46675">
        <ele>1635.34</ele>
        <time>2024-09-18T14:12:33Z</time>
      </trkpt>
      <trkpt lat="44.83124" lon="5.46673">
        <ele>1634.86</ele>
        <time>2024-09-18T14:12:34Z</time>
      </trkpt>
      <trkpt lat="44.83123" lon="5.46672">
        <ele>1634.38</ele>
        <time>2024-09-18T14:12:35Z</time>
      </trkpt>
      <trkpt lat="44.83122" lon="5.4667">
        <ele>1633.9</ele>
        <time>2024-09-18T14:12:36Z</time>
      </trkpt>
      <trkpt lat="44.83121" lon="5.46668">
        <ele>1633.42</ele>
        <time>2024-09-18T14:12:37Z</time>
      </trkpt>
      <trkpt lat="44.83121" lon="5.46665">
        <ele>1632.94</ele>
        <time>2024-09-18T14:12:38Z</time>
      </trkpt>
      <trkpt lat="44.8312" lon="5.46663">
        <ele>1632.46</ele>
        <time>2024-09-18T14:12:39Z</time>
      </trkpt>
      <trkpt lat="44.8312" lon="5.46661">
        <ele>1632.46</ele>
        <time>2024-09-18T14:12:40Z</time>
      </trkpt>
      <trkpt lat="44.83119" lon="5.46659">
        <ele>1631.98</ele>
        <time>2024-09-18T14:12:41Z</time>
      </trkpt>
      <trkpt lat="44.83119" lon="5.46657">
        <ele>1631.49</ele>
        <time>2024-09-18T14:12:42Z</time>
      </trkpt>
      <trkpt lat="44.83119" lon="5.46655">
        <ele>1631.49</ele>
        <time>2024-09-18T14:12:43Z</time>
      </trkpt>
      <trkpt lat="44.8312" lon="5.46623">
        <ele>1633.42</ele>
        <time>2024-09-18T14:12:57Z</time>
      </trkpt>
      <trkpt lat="44.83126" lon="5.46583">
        <ele>1632.46</ele>
        <time>2024-09-18T14:13:16Z</time>
      </trkpt>
      <trkpt lat="44.83131" lon="5.46554">
        <ele>1629.57</ele>
        <time>2024-09-18T14:13:32Z</time>
      </trkpt>
      <trkpt lat="44.83133" lon="5.4652">
        <ele>1627.17</ele>
        <time>2024-09-18T14:13:48Z</time>
      </trkpt>
      <trkpt lat="44.83133" lon="5.46502">
        <ele>1625.73</ele>
        <time>2024-09-18T14:13:58Z</time>
      </trkpt>
      <trkpt lat="44.83133" lon="5.465">
        <ele>1625.73</ele>
        <time>2024-09-18T14:13:59Z</time>
      </trkpt>
      <trkpt lat="44.83133" lon="5.46498">
        <ele>1625.25</ele>
        <time>2024-09-18T14:14:00Z</time>
      </trkpt>
      <trkpt lat="44.83133" lon="5.46496">
        <ele>1625.25</ele>
        <time>2024-09-18T14:14:01Z</time>
      </trkpt>
      <trkpt lat="44.83134" lon="5.46494">
        <ele>1624.77</ele>
        <time>2024-09-18T14:14:02Z</time>
      </trkpt>
      <trkpt lat="44.83132" lon="5.46465">
        <ele>1619.96</ele>
        <time>2024-09-18T14:14:16Z</time>
      </trkpt>
      <trkpt lat="44.83141" lon="5.46433">
        <ele>1614.67</ele>
        <time>2024-09-18T14:14:32Z</time>
      </trkpt>
      <trkpt lat="44.83153" lon="5.46402">
        <ele>1609.38</ele>
        <time>2024-09-18T14:14:48Z</time>
      </trkpt>
      <trkpt lat="44.83159" lon="5.46386">
        <ele>1607.94</ele>
        <time>2024-09-18T14:14:57Z</time>
      </trkpt>
      <trkpt lat="44.83159" lon="5.46384">
        <ele>1607.94</ele>
        <time>2024-09-18T14:14:58Z</time>
      </trkpt>
      <trkpt lat="44.8316" lon="5.46382">
        <ele>1607.94</ele>
        <time>2024-09-18T14:14:59Z</time>
      </trkpt>
      <trkpt lat="44.83168" lon="5.46355">
        <ele>1606.98</ele>
        <time>2024-09-18T14:15:12Z</time>
      </trkpt>
      <trkpt lat="44.83177" lon="5.46327">
        <ele>1605.06</ele>
        <time>2024-09-18T14:15:27Z</time>
      </trkpt>
      <trkpt lat="44.83184" lon="5.4629">
        <ele>1604.1</ele>
        <time>2024-09-18T14:15:45Z</time>
      </trkpt>
      <trkpt lat="44.83187" lon="5.46278">
        <ele>1603.14</ele>
        <time>2024-09-18T14:15:52Z</time>
      </trkpt>
      <trkpt lat="44.83187" lon="5.46276">
        <ele>1602.66</ele>
        <time>2024-09-18T14:15:53Z</time>
      </trkpt>
      <trkpt lat="44.83195" lon="5.4624">
        <ele>1599.77</ele>
        <time>2024-09-18T14:16:10Z</time>
      </trkpt>
      <trkpt lat="44.83201" lon="5.46211">
        <ele>1599.29</ele>
        <time>2024-09-18T14:16:25Z</time>
      </trkpt>
      <trkpt lat="44.83214" lon="5.46188">
        <ele>1594.48</ele>
        <time>2024-09-18T14:16:37Z</time>
      </trkpt>
      <trkpt lat="44.83232" lon="5.46147">
        <ele>1589.68</ele>
        <time>2024-09-18T14:16:58Z</time>
      </trkpt>
      <trkpt lat="44.8324" lon="5.46107">
        <ele>1587.27</ele>
        <time>2024-09-18T14:17:16Z</time>
      </trkpt>
      <trkpt lat="44.83247" lon="5.46074">
        <ele>1583.91</ele>
        <time>2024-09-18T14:17:31Z</time>
      </trkpt>
      <trkpt lat="44.83255" lon="5.46042">
        <ele>1582.47</ele>
        <time>2024-09-18T14:17:46Z</time>
      </trkpt>
      <trkpt lat="44.83262" lon="5.46009">
        <ele>1581.99</ele>
        <time>2024-09-18T14:18:02Z</time>
      </trkpt>
      <trkpt lat="44.83266" lon="5.45975">
        <ele>1580.06</ele>
        <time>2024-09-18T14:18:18Z</time>
      </trkpt>
      <trkpt lat="44.83266" lon="5.45939">
        <ele>1577.66</ele>
        <time>2024-09-18T14:18:34Z</time>
      </trkpt>
      <trkpt lat="44.83268" lon="5.45899">
        <ele>1575.26</ele>
        <time>2024-09-18T14:18:53Z</time>
      </trkpt>
      <trkpt lat="44.83273" lon="5.45866">
        <ele>1572.37</ele>
        <time>2024-09-18T14:19:06Z</time>
      </trkpt>
      <trkpt lat="44.8328" lon="5.45822">
        <ele>1567.57</ele>
        <time>2024-09-18T14:19:25Z</time>
      </trkpt>
      <trkpt lat="44.83279" lon="5.45785">
        <ele>1564.2</ele>
        <time>2024-09-18T14:19:42Z</time>
      </trkpt>
      <trkpt lat="44.83274" lon="5.45756">
        <ele>1562.28</ele>
        <time>2024-09-18T14:19:54Z</time>
      </trkpt>
      <trkpt lat="44.83269" lon="5.45719">
        <ele>1556.03</ele>
        <time>2024-09-18T14:20:10Z</time>
      </trkpt>
      <trkpt lat="44.83258" lon="5.45688">
        <ele>1551.22</ele>
        <time>2024-09-18T14:20:28Z</time>
      </trkpt>
      <trkpt lat="44.83246" lon="5.45659">
        <ele>1548.34</ele>
        <time>2024-09-18T14:20:43Z</time>
      </trkpt>
      <trkpt lat="44.83238" lon="5.45629">
        <ele>1549.3</ele>
        <time>2024-09-18T14:21:01Z</time>
      </trkpt>
      <trkpt lat="44.83228" lon="5.45593">
        <ele>1557.95</ele>
        <time>2024-09-18T14:21:19Z</time>
      </trkpt>
      <trkpt lat="44.83215" lon="5.45561">
        <ele>1559.88</ele>
        <time>2024-09-18T14:21:36Z</time>
      </trkpt>
      <trkpt lat="44.83196" lon="5.45539">
        <ele>1561.8</ele>
        <time>2024-09-18T14:21:54Z</time>
      </trkpt>
      <trkpt lat="44.83174" lon="5.45528">
        <ele>1559.4</ele>
        <time>2024-09-18T14:22:08Z</time>
      </trkpt>
      <trkpt lat="44.83152" lon="5.45514">
        <ele>1560.36</ele>
        <time>2024-09-18T14:22:25Z</time>
      </trkpt>
      <trkpt lat="44.83142" lon="5.45511">
        <ele>1560.36</ele>
        <time>2024-09-18T14:22:32Z</time>
      </trkpt>
      <trkpt lat="44.83141" lon="5.45511">
        <ele>1560.36</ele>
        <time>2024-09-18T14:22:33Z</time>
      </trkpt>
      <trkpt lat="44.8314" lon="5.45511">
        <ele>1559.88</ele>
        <time>2024-09-18T14:22:34Z</time>
      </trkpt>
      <trkpt lat="44.83138" lon="5.45511">
        <ele>1559.88</ele>
        <time>2024-09-18T14:22:35Z</time>
      </trkpt>
      <trkpt lat="44.83137" lon="5.4551">
        <ele>1560.36</ele>
        <time>2024-09-18T14:22:36Z</time>
      </trkpt>
      <trkpt lat="44.83135" lon="5.45509">
        <ele>1559.88</ele>
        <time>2024-09-18T14:22:37Z</time>
      </trkpt>
      <trkpt lat="44.83113" lon="5.45494">
        <ele>1556.99</ele>
        <time>2024-09-18T14:22:53Z</time>
      </trkpt>
      <trkpt lat="44.83094" lon="5.45486">
        <ele>1555.55</ele>
        <time>2024-09-18T14:23:07Z</time>
      </trkpt>
      <trkpt lat="44.83093" lon="5.45486">
        <ele>1555.55</ele>
        <time>2024-09-18T14:23:08Z</time>
      </trkpt>
      <trkpt lat="44.83091" lon="5.45486">
        <ele>1555.55</ele>
        <time>2024-09-18T14:23:09Z</time>
      </trkpt>
      <trkpt lat="44.8309" lon="5.45486">
        <ele>1555.55</ele>
        <time>2024-09-18T14:23:10Z</time>
      </trkpt>
      <trkpt lat="44.83088" lon="5.45486">
        <ele>1555.55</ele>
        <time>2024-09-18T14:23:11Z</time>
      </trkpt>
      <trkpt lat="44.83068" lon="5.45475">
        <ele>1553.15</ele>
        <time>2024-09-18T14:23:25Z</time>
      </trkpt>
      <trkpt lat="44.83046" lon="5.45448">
        <ele>1548.82</ele>
        <time>2024-09-18T14:23:43Z</time>
      </trkpt>
      <trkpt lat="44.8303" lon="5.45425">
        <ele>1546.42</ele>
        <time>2024-09-18T14:23:58Z</time>
      </trkpt>
      <trkpt lat="44.83017" lon="5.45394">
        <ele>1543.53</ele>
        <time>2024-09-18T14:24:12Z</time>
      </trkpt>
      <trkpt lat="44.83008" lon="5.45361">
        <ele>1541.61</ele>
        <time>2024-09-18T14:24:29Z</time>
      </trkpt>
      <trkpt lat="44.8299" lon="5.45327">
        <ele>1538.25</ele>
        <time>2024-09-18T14:24:43Z</time>
      </trkpt>
      <trkpt lat="44.82975" lon="5.45296">
        <ele>1538.25</ele>
        <time>2024-09-18T14:25:02Z</time>
      </trkpt>
      <trkpt lat="44.8296" lon="5.45272">
        <ele>1541.13</ele>
        <time>2024-09-18T14:25:13Z</time>
      </trkpt>
      <trkpt lat="44.82959" lon="5.45243">
        <ele>1544.98</ele>
        <time>2024-09-18T14:25:28Z</time>
      </trkpt>
      <trkpt lat="44.82962" lon="5.45234">
        <ele>1545.94</ele>
        <time>2024-09-18T14:25:34Z</time>
      </trkpt>
      <trkpt lat="44.82963" lon="5.45232">
        <ele>1546.42</ele>
        <time>2024-09-18T14:25:35Z</time>
      </trkpt>
      <trkpt lat="44.82972" lon="5.45203">
        <ele>1550.26</ele>
        <time>2024-09-18T14:25:51Z</time>
      </trkpt>
      <trkpt lat="44.82981" lon="5.4518">
        <ele>1557.47</ele>
        <time>2024-09-18T14:26:04Z</time>
      </trkpt>
      <trkpt lat="44.82994" lon="5.45159">
        <ele>1564.2</ele>
        <time>2024-09-18T14:26:21Z</time>
      </trkpt>
      <trkpt lat="44.83009" lon="5.45144">
        <ele>1572.85</ele>
        <time>2024-09-18T14:26:39Z</time>
      </trkpt>
      <trkpt lat="44.83023" lon="5.45126">
        <ele>1577.66</ele>
        <time>2024-09-18T14:26:55Z</time>
      </trkpt>
      <trkpt lat="44.83039" lon="5.45099">
        <ele>1582.47</ele>
        <time>2024-09-18T14:27:11Z</time>
      </trkpt>
      <trkpt lat="44.8305" lon="5.45077">
        <ele>1586.79</ele>
        <time>2024-09-18T14:27:27Z</time>
      </trkpt>
      <trkpt lat="44.83064" lon="5.45056">
        <ele>1591.12</ele>
        <time>2024-09-18T14:27:43Z</time>
      </trkpt>
      <trkpt lat="44.83082" lon="5.45021">
        <ele>1594</ele>
        <time>2024-09-18T14:28:03Z</time>
      </trkpt>
      <trkpt lat="44.83092" lon="5.45004">
        <ele>1594.48</ele>
        <time>2024-09-18T14:28:16Z</time>
      </trkpt>
      <trkpt lat="44.83102" lon="5.44978">
        <ele>1594</ele>
        <time>2024-09-18T14:28:34Z</time>
      </trkpt>
      <trkpt lat="44.83111" lon="5.44949">
        <ele>1590.16</ele>
        <time>2024-09-18T14:28:51Z</time>
      </trkpt>
      <trkpt lat="44.83112" lon="5.44946">
        <ele>1589.68</ele>
        <time>2024-09-18T14:28:53Z</time>
      </trkpt>
      <trkpt lat="44.83122" lon="5.44921">
        <ele>1589.2</ele>
        <time>2024-09-18T14:29:09Z</time>
      </trkpt>
      <trkpt lat="44.83129" lon="5.44882">
        <ele>1592.08</ele>
        <time>2024-09-18T14:29:21Z</time>
      </trkpt>
      <trkpt lat="44.83134" lon="5.44853">
        <ele>1594.48</ele>
        <time>2024-09-18T14:29:36Z</time>
      </trkpt>
      <trkpt lat="44.83136" lon="5.44822">
        <ele>1596.89</ele>
        <time>2024-09-18T14:29:53Z</time>
      </trkpt>
      <trkpt lat="44.83146" lon="5.44797">
        <ele>1600.25</ele>
        <time>2024-09-18T14:30:06Z</time>
      </trkpt>
      <trkpt lat="44.83152" lon="5.44786">
        <ele>1600.25</ele>
        <time>2024-09-18T14:30:14Z</time>
      </trkpt>
      <trkpt lat="44.83153" lon="5.44784">
        <ele>1600.25</ele>
        <time>2024-09-18T14:30:15Z</time>
      </trkpt>
      <trkpt lat="44.83154" lon="5.44782">
        <ele>1600.25</ele>
        <time>2024-09-18T14:30:16Z</time>
      </trkpt>
      <trkpt lat="44.83162" lon="5.44755">
        <ele>1602.66</ele>
        <time>2024-09-18T14:30:33Z</time>
      </trkpt>
      <trkpt lat="44.83171" lon="5.44719">
        <ele>1606.5</ele>
        <time>2024-09-18T14:30:48Z</time>
      </trkpt>
      <trkpt lat="44.83181" lon="5.44694">
        <ele>1607.94</ele>
        <time>2024-09-18T14:31:01Z</time>
      </trkpt>
      <trkpt lat="44.83188" lon="5.44662">
        <ele>1605.06</ele>
        <time>2024-09-18T14:31:14Z</time>
      </trkpt>
      <trkpt lat="44.83193" lon="5.44633">
        <ele>1604.58</ele>
        <time>2024-09-18T14:31:28Z</time>
      </trkpt>
      <trkpt lat="44.83191" lon="5.44602">
        <ele>1606.98</ele>
        <time>2024-09-18T14:31:44Z</time>
      </trkpt>
      <trkpt lat="44.83186" lon="5.44568">
        <ele>1613.23</ele>
        <time>2024-09-18T14:31:59Z</time>
      </trkpt>
      <trkpt lat="44.83192" lon="5.44533">
        <ele>1617.07</ele>
        <time>2024-09-18T14:32:14Z</time>
      </trkpt>
      <trkpt lat="44.832" lon="5.44505">
        <ele>1619.48</ele>
        <time>2024-09-18T14:32:29Z</time>
      </trkpt>
      <trkpt lat="44.83203" lon="5.44473">
        <ele>1623.32</ele>
        <time>2024-09-18T14:32:42Z</time>
      </trkpt>
      <trkpt lat="44.83205" lon="5.4444">
        <ele>1625.73</ele>
        <time>2024-09-18T14:32:56Z</time>
      </trkpt>
      <trkpt lat="44.83208" lon="5.44404">
        <ele>1627.17</ele>
        <time>2024-09-18T14:33:12Z</time>
      </trkpt>
      <trkpt lat="44.83213" lon="5.44383">
        <ele>1629.09</ele>
        <time>2024-09-18T14:33:19Z</time>
      </trkpt>
      <trkpt lat="44.83213" lon="5.44381">
        <ele>1629.09</ele>
        <time>2024-09-18T14:33:20Z</time>
      </trkpt>
      <trkpt lat="44.83211" lon="5.44351">
        <ele>1630.05</ele>
        <time>2024-09-18T14:33:31Z</time>
      </trkpt>
      <trkpt lat="44.83212" lon="5.4432">
        <ele>1629.57</ele>
        <time>2024-09-18T14:33:44Z</time>
      </trkpt>
      <trkpt lat="44.83215" lon="5.44287">
        <ele>1624.77</ele>
        <time>2024-09-18T14:33:59Z</time>
      </trkpt>
      <trkpt lat="44.8322" lon="5.44253">
        <ele>1620.92</ele>
        <time>2024-09-18T14:34:15Z</time>
      </trkpt>
      <trkpt lat="44.83219" lon="5.44226">
        <ele>1616.59</ele>
        <time>2024-09-18T14:34:27Z</time>
      </trkpt>
      <trkpt lat="44.83222" lon="5.44187">
        <ele>1612.75</ele>
        <time>2024-09-18T14:34:42Z</time>
      </trkpt>
      <trkpt lat="44.83226" lon="5.44159">
        <ele>1617.07</ele>
        <time>2024-09-18T14:34:54Z</time>
      </trkpt>
      <trkpt lat="44.83228" lon="5.44133">
        <ele>1620.44</ele>
        <time>2024-09-18T14:35:04Z</time>
      </trkpt>
      <trkpt lat="44.83228" lon="5.441">
        <ele>1624.77</ele>
        <time>2024-09-18T14:35:18Z</time>
      </trkpt>
      <trkpt lat="44.83234" lon="5.44071">
        <ele>1633.9</ele>
        <time>2024-09-18T14:35:30Z</time>
      </trkpt>
      <trkpt lat="44.83251" lon="5.44059">
        <ele>1635.34</ele>
        <time>2024-09-18T14:35:45Z</time>
      </trkpt>
      <trkpt lat="44.83271" lon="5.44058">
        <ele>1633.9</ele>
        <time>2024-09-18T14:35:57Z</time>
      </trkpt>
      <trkpt lat="44.83288" lon="5.44052">
        <ele>1639.19</ele>
        <time>2024-09-18T14:36:10Z</time>
      </trkpt>
      <trkpt lat="44.83308" lon="5.44036">
        <ele>1639.19</ele>
        <time>2024-09-18T14:36:25Z</time>
      </trkpt>
      <trkpt lat="44.83326" lon="5.44034">
        <ele>1636.3</ele>
        <time>2024-09-18T14:36:39Z</time>
      </trkpt>
      <trkpt lat="44.83353" lon="5.44037">
        <ele>1633.42</ele>
        <time>2024-09-18T14:36:57Z</time>
      </trkpt>
      <trkpt lat="44.83368" lon="5.44013">
        <ele>1636.3</ele>
        <time>2024-09-18T14:37:12Z</time>
      </trkpt>
      <trkpt lat="44.83374" lon="5.43986">
        <ele>1634.86</ele>
        <time>2024-09-18T14:37:28Z</time>
      </trkpt>
      <trkpt lat="44.83384" lon="5.43962">
        <ele>1631.49</ele>
        <time>2024-09-18T14:37:42Z</time>
      </trkpt>
      <trkpt lat="44.83386" lon="5.43934">
        <ele>1626.69</ele>
        <time>2024-09-18T14:37:56Z</time>
      </trkpt>
      <trkpt lat="44.8339" lon="5.43904">
        <ele>1621.4</ele>
        <time>2024-09-18T14:38:11Z</time>
      </trkpt>
      <trkpt lat="44.83399" lon="5.43887">
        <ele>1618.52</ele>
        <time>2024-09-18T14:38:20Z</time>
      </trkpt>
      <trkpt lat="44.834" lon="5.43885">
        <ele>1618.52</ele>
        <time>2024-09-18T14:38:21Z</time>
      </trkpt>
      <trkpt lat="44.83401" lon="5.43884">
        <ele>1618.04</ele>
        <time>2024-09-18T14:38:22Z</time>
      </trkpt>
      <trkpt lat="44.83402" lon="5.43882">
        <ele>1617.56</ele>
        <time>2024-09-18T14:38:23Z</time>
      </trkpt>
      <trkpt lat="44.83402" lon="5.4388">
        <ele>1617.07</ele>
        <time>2024-09-18T14:38:24Z</time>
      </trkpt>
      <trkpt lat="44.83402" lon="5.43879">
        <ele>1616.59</ele>
        <time>2024-09-18T14:38:25Z</time>
      </trkpt>
      <trkpt lat="44.83402" lon="5.43877">
        <ele>1616.11</ele>
        <time>2024-09-18T14:38:26Z</time>
      </trkpt>
      <trkpt lat="44.83401" lon="5.43876">
        <ele>1615.63</ele>
        <time>2024-09-18T14:38:27Z</time>
      </trkpt>
      <trkpt lat="44.83401" lon="5.43875">
        <ele>1615.15</ele>
        <time>2024-09-18T14:38:28Z</time>
      </trkpt>
      <trkpt lat="44.83391" lon="5.43847">
        <ele>1610.35</ele>
        <time>2024-09-18T14:38:44Z</time>
      </trkpt>
      <trkpt lat="44.83382" lon="5.43815">
        <ele>1607.94</ele>
        <time>2024-09-18T14:39:00Z</time>
      </trkpt>
      <trkpt lat="44.8337" lon="5.43781">
        <ele>1605.06</ele>
        <time>2024-09-18T14:39:19Z</time>
      </trkpt>
      <trkpt lat="44.8337" lon="5.43774">
        <ele>1604.58</ele>
        <time>2024-09-18T14:39:23Z</time>
      </trkpt>
      <trkpt lat="44.83371" lon="5.43772">
        <ele>1604.1</ele>
        <time>2024-09-18T14:39:24Z</time>
      </trkpt>
      <trkpt lat="44.83372" lon="5.43771">
        <ele>1604.1</ele>
        <time>2024-09-18T14:39:25Z</time>
      </trkpt>
      <trkpt lat="44.83373" lon="5.4377">
        <ele>1603.62</ele>
        <time>2024-09-18T14:39:26Z</time>
      </trkpt>
      <trkpt lat="44.83374" lon="5.43769">
        <ele>1603.62</ele>
        <time>2024-09-18T14:39:27Z</time>
      </trkpt>
      <trkpt lat="44.83375" lon="5.43767">
        <ele>1603.62</ele>
        <time>2024-09-18T14:39:28Z</time>
      </trkpt>
      <trkpt lat="44.83375" lon="5.43765">
        <ele>1603.14</ele>
        <time>2024-09-18T14:39:29Z</time>
      </trkpt>
      <trkpt lat="44.83376" lon="5.43763">
        <ele>1603.14</ele>
        <time>2024-09-18T14:39:30Z</time>
      </trkpt>
      <trkpt lat="44.83384" lon="5.43751">
        <ele>1601.21</ele>
        <time>2024-09-18T14:39:39Z</time>
      </trkpt>
      <trkpt lat="44.83385" lon="5.4375">
        <ele>1600.73</ele>
        <time>2024-09-18T14:39:40Z</time>
      </trkpt>
      <trkpt lat="44.83395" lon="5.43731">
        <ele>1595.93</ele>
        <time>2024-09-18T14:39:53Z</time>
      </trkpt>
      <trkpt lat="44.83399" lon="5.43721">
        <ele>1594</ele>
        <time>2024-09-18T14:40:00Z</time>
      </trkpt>
      <trkpt lat="44.834" lon="5.43719">
        <ele>1593.52</ele>
        <time>2024-09-18T14:40:01Z</time>
      </trkpt>
      <trkpt lat="44.834" lon="5.43717">
        <ele>1593.52</ele>
        <time>2024-09-18T14:40:02Z</time>
      </trkpt>
      <trkpt lat="44.834" lon="5.43716">
        <ele>1593.04</ele>
        <time>2024-09-18T14:40:03Z</time>
      </trkpt>
      <trkpt lat="44.83401" lon="5.43714">
        <ele>1592.56</ele>
        <time>2024-09-18T14:40:04Z</time>
      </trkpt>
      <trkpt lat="44.83401" lon="5.43712">
        <ele>1592.56</ele>
        <time>2024-09-18T14:40:05Z</time>
      </trkpt>
      <trkpt lat="44.83404" lon="5.43688">
        <ele>1588.24</ele>
        <time>2024-09-18T14:40:20Z</time>
      </trkpt>
      <trkpt lat="44.8341" lon="5.43662">
        <ele>1581.03</ele>
        <time>2024-09-18T14:40:33Z</time>
      </trkpt>
      <trkpt lat="44.83412" lon="5.43652">
        <ele>1578.14</ele>
        <time>2024-09-18T14:40:43Z</time>
      </trkpt>
      <trkpt lat="44.83416" lon="5.43625">
        <ele>1572.37</ele>
        <time>2024-09-18T14:40:57Z</time>
      </trkpt>
      <trkpt lat="44.83417" lon="5.43623">
        <ele>1571.89</ele>
        <time>2024-09-18T14:40:58Z</time>
      </trkpt>
      <trkpt lat="44.83421" lon="5.43606">
        <ele>1568.53</ele>
        <time>2024-09-18T14:41:08Z</time>
      </trkpt>
      <trkpt lat="44.83421" lon="5.43604">
        <ele>1568.05</ele>
        <time>2024-09-18T14:41:09Z</time>
      </trkpt>
      <trkpt lat="44.83421" lon="5.43602">
        <ele>1568.05</ele>
        <time>2024-09-18T14:41:10Z</time>
      </trkpt>
      <trkpt lat="44.83421" lon="5.43599">
        <ele>1567.57</ele>
        <time>2024-09-18T14:41:11Z</time>
      </trkpt>
      <trkpt lat="44.83421" lon="5.43597">
        <ele>1567.09</ele>
        <time>2024-09-18T14:41:12Z</time>
      </trkpt>
      <trkpt lat="44.83421" lon="5.43595">
        <ele>1567.09</ele>
        <time>2024-09-18T14:41:13Z</time>
      </trkpt>
      <trkpt lat="44.83422" lon="5.43594">
        <ele>1566.61</ele>
        <time>2024-09-18T14:41:14Z</time>
      </trkpt>
      <trkpt lat="44.83424" lon="5.43591">
        <ele>1565.64</ele>
        <time>2024-09-18T14:41:17Z</time>
      </trkpt>
      <trkpt lat="44.83424" lon="5.4359">
        <ele>1565.16</ele>
        <time>2024-09-18T14:41:18Z</time>
      </trkpt>
      <trkpt lat="44.83423" lon="5.43586">
        <ele>1564.68</ele>
        <time>2024-09-18T14:41:21Z</time>
      </trkpt>
      <trkpt lat="44.83422" lon="5.43586">
        <ele>1564.68</ele>
        <time>2024-09-18T14:41:22Z</time>
      </trkpt>
      <trkpt lat="44.8342" lon="5.43586">
        <ele>1564.68</ele>
        <time>2024-09-18T14:41:23Z</time>
      </trkpt>
      <trkpt lat="44.83398" lon="5.43595">
        <ele>1563.72</ele>
        <time>2024-09-18T14:41:40Z</time>
      </trkpt>
      <trkpt lat="44.8338" lon="5.43596">
        <ele>1563.24</ele>
        <time>2024-09-18T14:41:51Z</time>
      </trkpt>
      <trkpt lat="44.83378" lon="5.43594">
        <ele>1562.76</ele>
        <time>2024-09-18T14:41:52Z</time>
      </trkpt>
      <trkpt lat="44.83377" lon="5.43592">
        <ele>1562.76</ele>
        <time>2024-09-18T14:41:53Z</time>
      </trkpt>
      <trkpt lat="44.83376" lon="5.43591">
        <ele>1563.24</ele>
        <time>2024-09-18T14:41:54Z</time>
      </trkpt>
      <trkpt lat="44.83375" lon="5.43589">
        <ele>1563.24</ele>
        <time>2024-09-18T14:41:55Z</time>
      </trkpt>
      <trkpt lat="44.83374" lon="5.43587">
        <ele>1563.24</ele>
        <time>2024-09-18T14:41:56Z</time>
      </trkpt>
      <trkpt lat="44.8337" lon="5.4355">
        <ele>1563.24</ele>
        <time>2024-09-18T14:42:13Z</time>
      </trkpt>
      <trkpt lat="44.83372" lon="5.4352">
        <ele>1562.28</ele>
        <time>2024-09-18T14:42:27Z</time>
      </trkpt>
      <trkpt lat="44.83372" lon="5.43519">
        <ele>1562.28</ele>
        <time>2024-09-18T14:42:28Z</time>
      </trkpt>
      <trkpt lat="44.83372" lon="5.43517">
        <ele>1562.28</ele>
        <time>2024-09-18T14:42:29Z</time>
      </trkpt>
      <trkpt lat="44.83372" lon="5.43515">
        <ele>1561.8</ele>
        <time>2024-09-18T14:42:30Z</time>
      </trkpt>
      <trkpt lat="44.83372" lon="5.43513">
        <ele>1561.8</ele>
        <time>2024-09-18T14:42:31Z</time>
      </trkpt>
      <trkpt lat="44.83373" lon="5.43511">
        <ele>1561.32</ele>
        <time>2024-09-18T14:42:32Z</time>
      </trkpt>
      <trkpt lat="44.83373" lon="5.4351">
        <ele>1560.84</ele>
        <time>2024-09-18T14:42:33Z</time>
      </trkpt>
      <trkpt lat="44.83373" lon="5.43508">
        <ele>1560.36</ele>
        <time>2024-09-18T14:42:34Z</time>
      </trkpt>
      <trkpt lat="44.83379" lon="5.43477">
        <ele>1556.51</ele>
        <time>2024-09-18T14:42:49Z</time>
      </trkpt>
      <trkpt lat="44.83385" lon="5.4344">
        <ele>1553.63</ele>
        <time>2024-09-18T14:43:07Z</time>
      </trkpt>
      <trkpt lat="44.8339" lon="5.43412">
        <ele>1547.38</ele>
        <time>2024-09-18T14:43:23Z</time>
      </trkpt>
      <trkpt lat="44.83398" lon="5.43379">
        <ele>1542.57</ele>
        <time>2024-09-18T14:43:39Z</time>
      </trkpt>
      <trkpt lat="44.83403" lon="5.43352">
        <ele>1540.17</ele>
        <time>2024-09-18T14:43:53Z</time>
      </trkpt>
      <trkpt lat="44.83408" lon="5.43329">
        <ele>1537.29</ele>
        <time>2024-09-18T14:44:06Z</time>
      </trkpt>
      <trkpt lat="44.83409" lon="5.43327">
        <ele>1537.29</ele>
        <time>2024-09-18T14:44:07Z</time>
      </trkpt>
      <trkpt lat="44.83416" lon="5.43308">
        <ele>1536.8</ele>
        <time>2024-09-18T14:44:18Z</time>
      </trkpt>
      <trkpt lat="44.83417" lon="5.43307">
        <ele>1536.32</ele>
        <time>2024-09-18T14:44:19Z</time>
      </trkpt>
      <trkpt lat="44.83417" lon="5.43305">
        <ele>1536.32</ele>
        <time>2024-09-18T14:44:20Z</time>
      </trkpt>
      <trkpt lat="44.83417" lon="5.43304">
        <ele>1536.32</ele>
        <time>2024-09-18T14:44:21Z</time>
      </trkpt>
      <trkpt lat="44.83418" lon="5.43302">
        <ele>1536.32</ele>
        <time>2024-09-18T14:44:22Z</time>
      </trkpt>
      <trkpt lat="44.83419" lon="5.43301">
        <ele>1535.84</ele>
        <time>2024-09-18T14:44:23Z</time>
      </trkpt>
      <trkpt lat="44.8342" lon="5.43299">
        <ele>1535.84</ele>
        <time>2024-09-18T14:44:24Z</time>
      </trkpt>
      <trkpt lat="44.83425" lon="5.43275">
        <ele>1531.52</ele>
        <time>2024-09-18T14:44:37Z</time>
      </trkpt>
      <trkpt lat="44.83427" lon="5.43268">
        <ele>1530.08</ele>
        <time>2024-09-18T14:44:41Z</time>
      </trkpt>
      <trkpt lat="44.83428" lon="5.43266">
        <ele>1529.59</ele>
        <time>2024-09-18T14:44:42Z</time>
      </trkpt>
      <trkpt lat="44.83436" lon="5.43246">
        <ele>1526.23</ele>
        <time>2024-09-18T14:44:57Z</time>
      </trkpt>
      <trkpt lat="44.83448" lon="5.43232">
        <ele>1526.23</ele>
        <time>2024-09-18T14:45:11Z</time>
      </trkpt>
      <trkpt lat="44.83476" lon="5.43232">
        <ele>1530.56</ele>
        <time>2024-09-18T14:45:30Z</time>
      </trkpt>
      <trkpt lat="44.83497" lon="5.43231">
        <ele>1531.52</ele>
        <time>2024-09-18T14:45:47Z</time>
      </trkpt>
      <trkpt lat="44.83517" lon="5.43226">
        <ele>1529.59</ele>
        <time>2024-09-18T14:46:03Z</time>
      </trkpt>
      <trkpt lat="44.83542" lon="5.43217">
        <ele>1526.71</ele>
        <time>2024-09-18T14:46:19Z</time>
      </trkpt>
      <trkpt lat="44.83544" lon="5.43214">
        <ele>1525.27</ele>
        <time>2024-09-18T14:46:21Z</time>
      </trkpt>
      <trkpt lat="44.83545" lon="5.43212">
        <ele>1524.79</ele>
        <time>2024-09-18T14:46:22Z</time>
      </trkpt>
      <trkpt lat="44.83572" lon="5.432">
        <ele>1526.71</ele>
        <time>2024-09-18T14:46:39Z</time>
      </trkpt>
      <trkpt lat="44.83587" lon="5.43192">
        <ele>1527.67</ele>
        <time>2024-09-18T14:46:51Z</time>
      </trkpt>
      <trkpt lat="44.83618" lon="5.43188">
        <ele>1525.27</ele>
        <time>2024-09-18T14:47:12Z</time>
      </trkpt>
      <trkpt lat="44.83641" lon="5.43185">
        <ele>1522.39</ele>
        <time>2024-09-18T14:47:29Z</time>
      </trkpt>
      <trkpt lat="44.8366" lon="5.4317">
        <ele>1519.98</ele>
        <time>2024-09-18T14:47:43Z</time>
      </trkpt>
      <trkpt lat="44.83677" lon="5.43152">
        <ele>1513.73</ele>
        <time>2024-09-18T14:47:59Z</time>
      </trkpt>
      <trkpt lat="44.83686" lon="5.43148">
        <ele>1508.93</ele>
        <time>2024-09-18T14:48:08Z</time>
      </trkpt>
      <trkpt lat="44.83686" lon="5.43145">
        <ele>1507.97</ele>
        <time>2024-09-18T14:48:09Z</time>
      </trkpt>
      <trkpt lat="44.83687" lon="5.43142">
        <ele>1507</ele>
        <time>2024-09-18T14:48:10Z</time>
      </trkpt>
      <trkpt lat="44.83688" lon="5.4314">
        <ele>1506.52</ele>
        <time>2024-09-18T14:48:11Z</time>
      </trkpt>
      <trkpt lat="44.83689" lon="5.43137">
        <ele>1506.04</ele>
        <time>2024-09-18T14:48:12Z</time>
      </trkpt>
      <trkpt lat="44.8369" lon="5.43134">
        <ele>1505.08</ele>
        <time>2024-09-18T14:48:13Z</time>
      </trkpt>
      <trkpt lat="44.83707" lon="5.43104">
        <ele>1494.51</ele>
        <time>2024-09-18T14:48:29Z</time>
      </trkpt>
      <trkpt lat="44.83719" lon="5.43073">
        <ele>1487.78</ele>
        <time>2024-09-18T14:48:46Z</time>
      </trkpt>
      <trkpt lat="44.83725" lon="5.43062">
        <ele>1485.85</ele>
        <time>2024-09-18T14:48:54Z</time>
      </trkpt>
      <trkpt lat="44.83746" lon="5.43046">
        <ele>1488.74</ele>
        <time>2024-09-18T14:49:09Z</time>
      </trkpt>
      <trkpt lat="44.83751" lon="5.43022">
        <ele>1487.3</ele>
        <time>2024-09-18T14:49:24Z</time>
      </trkpt>
      <trkpt lat="44.83745" lon="5.4299">
        <ele>1490.18</ele>
        <time>2024-09-18T14:49:43Z</time>
      </trkpt>
      <trkpt lat="44.83739" lon="5.42966">
        <ele>1493.55</ele>
        <time>2024-09-18T14:49:59Z</time>
      </trkpt>
      <trkpt lat="44.83738" lon="5.42921">
        <ele>1495.47</ele>
        <time>2024-09-18T14:50:19Z</time>
      </trkpt>
      <trkpt lat="44.83742" lon="5.42904">
        <ele>1490.66</ele>
        <time>2024-09-18T14:50:27Z</time>
      </trkpt>
      <trkpt lat="44.8376" lon="5.42885">
        <ele>1488.26</ele>
        <time>2024-09-18T14:50:41Z</time>
      </trkpt>
      <trkpt lat="44.8378" lon="5.42871">
        <ele>1487.78</ele>
        <time>2024-09-18T14:50:59Z</time>
      </trkpt>
      <trkpt lat="44.83804" lon="5.42855">
        <ele>1484.41</ele>
        <time>2024-09-18T14:51:15Z</time>
      </trkpt>
      <trkpt lat="44.83831" lon="5.42843">
        <ele>1476.72</ele>
        <time>2024-09-18T14:51:33Z</time>
      </trkpt>
      <trkpt lat="44.83862" lon="5.42825">
        <ele>1468.55</ele>
        <time>2024-09-18T14:51:54Z</time>
      </trkpt>
      <trkpt lat="44.83882" lon="5.42825">
        <ele>1466.63</ele>
        <time>2024-09-18T14:52:12Z</time>
      </trkpt>
      <trkpt lat="44.83906" lon="5.42823">
        <ele>1465.67</ele>
        <time>2024-09-18T14:52:30Z</time>
      </trkpt>
      <trkpt lat="44.83934" lon="5.42815">
        <ele>1466.63</ele>
        <time>2024-09-18T14:52:49Z</time>
      </trkpt>
      <trkpt lat="44.8396" lon="5.42802">
        <ele>1459.9</ele>
        <time>2024-09-18T14:53:09Z</time>
      </trkpt>
      <trkpt lat="44.83984" lon="5.42798">
        <ele>1450.77</ele>
        <time>2024-09-18T14:53:27Z</time>
      </trkpt>
      <trkpt lat="44.83995" lon="5.42785">
        <ele>1445.96</ele>
        <time>2024-09-18T14:53:38Z</time>
      </trkpt>
      <trkpt lat="44.84006" lon="5.42763">
        <ele>1445.96</ele>
        <time>2024-09-18T14:53:54Z</time>
      </trkpt>
      <trkpt lat="44.84011" lon="5.42757">
        <ele>1445.96</ele>
        <time>2024-09-18T14:53:59Z</time>
      </trkpt>
      <trkpt lat="44.84033" lon="5.42739">
        <ele>1444.52</ele>
        <time>2024-09-18T14:54:18Z</time>
      </trkpt>
      <trkpt lat="44.84052" lon="5.42725">
        <ele>1440.19</ele>
        <time>2024-09-18T14:54:31Z</time>
      </trkpt>
      <trkpt lat="44.84054" lon="5.42724">
        <ele>1439.71</ele>
        <time>2024-09-18T14:54:32Z</time>
      </trkpt>
      <trkpt lat="44.84082" lon="5.42703">
        <ele>1431.54</ele>
        <time>2024-09-18T14:54:50Z</time>
      </trkpt>
      <trkpt lat="44.84094" lon="5.42683">
        <ele>1427.7</ele>
        <time>2024-09-18T14:55:07Z</time>
      </trkpt>
      <trkpt lat="44.84111" lon="5.42662">
        <ele>1423.85</ele>
        <time>2024-09-18T14:55:23Z</time>
      </trkpt>
      <trkpt lat="44.84125" lon="5.42652">
        <ele>1421.45</ele>
        <time>2024-09-18T14:55:32Z</time>
      </trkpt>
      <trkpt lat="44.84148" lon="5.42633">
        <ele>1419.52</ele>
        <time>2024-09-18T14:55:50Z</time>
      </trkpt>
      <trkpt lat="44.84167" lon="5.42628">
        <ele>1414.72</ele>
        <time>2024-09-18T14:56:07Z</time>
      </trkpt>
      <trkpt lat="44.84186" lon="5.42612">
        <ele>1403.66</ele>
        <time>2024-09-18T14:56:21Z</time>
      </trkpt>
      <trkpt lat="44.84202" lon="5.42585">
        <ele>1392.61</ele>
        <time>2024-09-18T14:56:38Z</time>
      </trkpt>
      <trkpt lat="44.84205" lon="5.42566">
        <ele>1388.28</ele>
        <time>2024-09-18T14:56:55Z</time>
      </trkpt>
      <trkpt lat="44.84223" lon="5.42549">
        <ele>1382.99</ele>
        <time>2024-09-18T14:57:12Z</time>
      </trkpt>
      <trkpt lat="44.8425" lon="5.42553">
        <ele>1381.55</ele>
        <time>2024-09-18T14:57:29Z</time>
      </trkpt>
      <trkpt lat="44.84253" lon="5.42543">
        <ele>1380.11</ele>
        <time>2024-09-18T14:57:44Z</time>
      </trkpt>
      <trkpt lat="44.84241" lon="5.4252">
        <ele>1386.84</ele>
        <time>2024-09-18T14:58:02Z</time>
      </trkpt>
      <trkpt lat="44.8424" lon="5.42518">
        <ele>1387.32</ele>
        <time>2024-09-18T14:58:03Z</time>
      </trkpt>
      <trkpt lat="44.8424" lon="5.42473">
        <ele>1399.82</ele>
        <time>2024-09-18T14:58:21Z</time>
      </trkpt>
      <trkpt lat="44.84245" lon="5.42435">
        <ele>1398.86</ele>
        <time>2024-09-18T14:58:39Z</time>
      </trkpt>
      <trkpt lat="44.84245" lon="5.42434">
        <ele>1398.86</ele>
        <time>2024-09-18T14:58:40Z</time>
      </trkpt>
      <trkpt lat="44.84246" lon="5.42426">
        <ele>1399.82</ele>
        <time>2024-09-18T14:58:44Z</time>
      </trkpt>
      <trkpt lat="44.84244" lon="5.42378">
        <ele>1399.34</ele>
        <time>2024-09-18T14:59:07Z</time>
      </trkpt>
      <trkpt lat="44.84243" lon="5.42365">
        <ele>1398.86</ele>
        <time>2024-09-18T14:59:13Z</time>
      </trkpt>
      <trkpt lat="44.84261" lon="5.42317">
        <ele>1394.05</ele>
        <time>2024-09-18T14:59:37Z</time>
      </trkpt>
      <trkpt lat="44.84279" lon="5.42311">
        <ele>1392.13</ele>
        <time>2024-09-18T14:59:56Z</time>
      </trkpt>
      <trkpt lat="44.84279" lon="5.42311">
        <ele>1391.17</ele>
        <time>2024-09-18T15:00:17Z</time>
      </trkpt>
      <trkpt lat="44.84279" lon="5.42312">
        <ele>1389.24</ele>
        <time>2024-09-18T15:00:33Z</time>
      </trkpt>
      <trkpt lat="44.84279" lon="5.4231">
        <ele>1386.36</ele>
        <time>2024-09-18T15:00:52Z</time>
      </trkpt>
      <trkpt lat="44.8428" lon="5.42309">
        <ele>1386.84</ele>
        <time>2024-09-18T15:01:08Z</time>
      </trkpt>
      <trkpt lat="44.8428" lon="5.42311">
        <ele>1388.76</ele>
        <time>2024-09-18T15:01:17Z</time>
      </trkpt>
      <trkpt lat="44.8428" lon="5.42312">
        <ele>1390.68</ele>
        <time>2024-09-18T15:01:40Z</time>
      </trkpt>
      <trkpt lat="44.84279" lon="5.4231">
        <ele>1391.65</ele>
        <time>2024-09-18T15:01:55Z</time>
      </trkpt>
      <trkpt lat="44.8428" lon="5.4231">
        <ele>1392.61</ele>
        <time>2024-09-18T15:02:12Z</time>
      </trkpt>
      <trkpt lat="44.84281" lon="5.4231">
        <ele>1390.68</ele>
        <time>2024-09-18T15:02:27Z</time>
      </trkpt>
      <trkpt lat="44.8428" lon="5.4231">
        <ele>1389.72</ele>
        <time>2024-09-18T15:02:49Z</time>
      </trkpt>
      <trkpt lat="44.84281" lon="5.42314">
        <ele>1388.76</ele>
        <time>2024-09-18T15:03:11Z</time>
      </trkpt>
      <trkpt lat="44.8428" lon="5.42313">
        <ele>1388.28</ele>
        <time>2024-09-18T15:03:37Z</time>
      </trkpt>
      <trkpt lat="44.8428" lon="5.42312">
        <ele>1386.36</ele>
        <time>2024-09-18T15:03:59Z</time>
      </trkpt>
      <trkpt lat="44.8428" lon="5.42312">
        <ele>1387.8</ele>
        <time>2024-09-18T15:04:11Z</time>
      </trkpt>
      <trkpt lat="44.8428" lon="5.42312">
        <ele>1390.2</ele>
        <time>2024-09-18T15:04:34Z</time>
      </trkpt>
      <trkpt lat="44.84281" lon="5.42316">
        <ele>1391.17</ele>
        <time>2024-09-18T15:04:48Z</time>
      </trkpt>
      <trkpt lat="44.84281" lon="5.42309">
        <ele>1390.2</ele>
        <time>2024-09-18T15:04:58Z</time>
      </trkpt>
      <trkpt lat="44.8428" lon="5.42312">
        <ele>1386.84</ele>
        <time>2024-09-18T15:05:15Z</time>
      </trkpt>
      <trkpt lat="44.8428" lon="5.42312">
        <ele>1386.84</ele>
        <time>2024-09-18T15:05:33Z</time>
      </trkpt>
      <trkpt lat="44.84278" lon="5.42316">
        <ele>1387.32</ele>
        <time>2024-09-18T15:05:53Z</time>
      </trkpt>
      <trkpt lat="44.84278" lon="5.42311">
        <ele>1386.36</ele>
        <time>2024-09-18T15:06:06Z</time>
      </trkpt>
      <trkpt lat="44.84279" lon="5.42311">
        <ele>1385.88</ele>
        <time>2024-09-18T15:06:10Z</time>
      </trkpt>
      <trkpt lat="44.8428" lon="5.42315">
        <ele>1387.8</ele>
        <time>2024-09-18T15:06:24Z</time>
      </trkpt>
      <trkpt lat="44.8428" lon="5.42316">
        <ele>1387.8</ele>
        <time>2024-09-18T15:06:44Z</time>
      </trkpt>
      <trkpt lat="44.84281" lon="5.42316">
        <ele>1386.84</ele>
        <time>2024-09-18T15:06:53Z</time>
      </trkpt>
      <trkpt lat="44.84279" lon="5.42313">
        <ele>1386.36</ele>
        <time>2024-09-18T15:07:04Z</time>
      </trkpt>
      <trkpt lat="44.8428" lon="5.4231">
        <ele>1385.4</ele>
        <time>2024-09-18T15:07:18Z</time>
      </trkpt>
      <trkpt lat="44.84278" lon="5.42293">
        <ele>1385.4</ele>
        <time>2024-09-18T15:07:34Z</time>
      </trkpt>
      <trkpt lat="44.84276" lon="5.42294">
        <ele>1386.36</ele>
        <time>2024-09-18T15:07:42Z</time>
      </trkpt>
      <trkpt lat="44.84279" lon="5.42308">
        <ele>1385.4</ele>
        <time>2024-09-18T15:07:58Z</time>
      </trkpt>
      <trkpt lat="44.84278" lon="5.42309">
        <ele>1384.44</ele>
        <time>2024-09-18T15:08:07Z</time>
      </trkpt>
      <trkpt lat="44.84277" lon="5.42302">
        <ele>1384.92</ele>
        <time>2024-09-18T15:08:12Z</time>
      </trkpt>
      <trkpt lat="44.84281" lon="5.42302">
        <ele>1384.44</ele>
        <time>2024-09-18T15:08:22Z</time>
      </trkpt>
      <trkpt lat="44.84279" lon="5.42301">
        <ele>1387.32</ele>
        <time>2024-09-18T15:08:34Z</time>
        <extensions>
          <visugpx:TrkExtension xmlns:visugpx="https://www.visugpx.com/editgpx/">
            <visugpx:node>1</visugpx:node>
            </visugpx:TrkExtension>
        </extensions>
      </trkpt>
    </trkseg>
  </trk>
</gpx>